Time,TemperatureF,DewpointF,PressureIn,WindDirection,WindDirectionDegrees,WindSpeedMPH,WindSpeedGustMPH,Humidity,HourlyPrecipIn,Conditions,Clouds,dailyrainin,SoftwareType,DateUTC
2013-04-01 00:00:00,18.3,-0.4,29.94,NNW,338,10.7,10.7,43,0.00,,,0.00,VWS V14.01,2013-04-01 05:00:00,
2013-04-01 00:01:00,18.3,-0.4,29.94,NW,315,9.4,9.4,43,0.00,,,0.00,VWS V14.01,2013-04-01 05:01:00,
2013-04-01 00:02:00,18.3,-0.4,29.94,North,0,17.5,17.5,43,0.00,,,0.00,VWS V14.01,2013-04-01 05:02:00,
2013-04-01 00:03:00,18.3,-0.4,29.94,NNW,338,12.8,12.8,43,0.00,,,0.00,VWS V14.01,2013-04-01 05:03:00,
2013-04-01 00:05:00,18.3,-0.4,29.94,NNE,22,14.8,14.8,43,0.00,,,0.00,VWS V14.01,2013-04-01 05:05:00,
2013-04-01 00:07:00,18.3,-0.4,29.94,NNW,338,14.8,14.8,43,0.00,,,0.00,VWS V14.01,2013-04-01 05:07:00,
2013-04-01 00:08:00,18.3,-0.4,29.94,North,0,8.1,8.1,43,0.00,,,0.00,VWS V14.01,2013-04-01 05:08:00,
2013-04-01 00:09:00,18.1,-0.6,29.94,NNE,22,12.8,12.8,43,0.00,,,0.00,VWS V14.01,2013-04-01 05:09:00,
2013-04-01 00:10:00,18.1,-0.6,29.94,NNW,338,7.4,7.4,43,0.00,,,0.00,VWS V14.01,2013-04-01 05:10:00,
2013-04-01 00:11:00,18.1,-0.6,29.94,North,0,10.1,10.1,43,0.00,,,0.00,VWS V14.01,2013-04-01 05:11:00,
2013-04-01 00:12:00,18.1,-0.6,29.94,WSW,248,12.1,12.1,43,0.00,,,0.00,VWS V14.01,2013-04-01 05:12:00,
2013-04-01 00:13:00,18.1,-0.6,29.94,NNW,338,8.7,8.7,43,0.00,,,0.00,VWS V14.01,2013-04-01 05:13:00,
2013-04-01 00:14:00,18.1,-0.6,29.94,NNW,338,7.4,7.4,43,0.00,,,0.00,VWS V14.01,2013-04-01 05:14:00,
2013-04-01 00:15:00,18.0,-0.8,29.94,NW,315,8.1,8.1,43,0.00,,,0.00,VWS V14.01,2013-04-01 05:15:00,
2013-04-01 00:16:00,18.0,-0.8,29.94,NW,315,6.0,6.0,43,0.00,,,0.00,VWS V14.01,2013-04-01 05:16:00,
2013-04-01 00:17:00,18.0,-0.3,29.94,NW,315,12.8,12.8,44,0.00,,,0.00,VWS V14.01,2013-04-01 05:17:00,
2013-04-01 00:18:00,18.0,-0.3,29.94,WNW,292,10.7,10.7,44,0.00,,,0.00,VWS V14.01,2013-04-01 05:18:00,
2013-04-01 00:19:00,18.0,-0.3,29.94,NNE,22,12.1,12.1,44,0.00,,,0.00,VWS V14.01,2013-04-01 05:19:00,
2013-04-01 00:20:00,18.0,-0.3,29.94,NNW,338,7.4,7.4,44,0.00,,,0.00,VWS V14.01,2013-04-01 05:20:00,
2013-04-01 00:21:00,18.0,-0.3,29.94,NW,315,9.4,9.4,44,0.00,,,0.00,VWS V14.01,2013-04-01 05:21:00,
2013-04-01 00:22:00,18.0,-0.3,29.94,NE,45,18.1,18.1,44,0.00,,,0.00,VWS V14.01,2013-04-01 05:22:00,
2013-04-01 00:23:00,17.8,-0.4,29.94,NNW,338,14.1,14.1,44,0.00,,,0.00,VWS V14.01,2013-04-01 05:23:00,
2013-04-01 00:24:00,18.0,-0.3,29.94,NNW,338,9.4,9.4,44,0.00,,,0.00,VWS V14.01,2013-04-01 05:24:00,
2013-04-01 00:25:00,17.8,-0.4,29.94,NNW,338,12.8,12.8,44,0.00,,,0.00,VWS V14.01,2013-04-01 05:25:00,
2013-04-01 00:26:00,17.8,-0.4,29.94,NW,315,6.0,6.0,44,0.00,,,0.00,VWS V14.01,2013-04-01 05:26:00,
2013-04-01 00:28:00,17.8,-0.4,29.94,North,0,10.7,10.7,44,0.00,,,0.00,VWS V14.01,2013-04-01 05:28:00,
2013-04-01 00:30:00,17.8,-0.4,29.94,WSW,248,6.0,6.0,44,0.00,,,0.00,VWS V14.01,2013-04-01 05:30:00,
2013-04-01 00:32:00,17.8,-0.4,29.94,North,0,8.1,8.1,44,0.00,,,0.00,VWS V14.01,2013-04-01 05:32:00,
2013-04-01 00:34:00,17.8,-0.4,29.94,West,270,10.7,10.7,44,0.00,,,0.00,VWS V14.01,2013-04-01 05:34:00,
2013-04-01 00:36:00,17.8,-0.4,29.94,NNW,338,4.7,4.7,44,0.00,,,0.00,VWS V14.01,2013-04-01 05:36:00,
2013-04-01 00:38:00,17.6,-0.6,29.94,NNW,338,8.7,8.7,44,0.00,,,0.00,VWS V14.01,2013-04-01 05:38:00,
2013-04-01 00:40:00,17.6,-0.6,29.94,NW,315,13.4,13.4,44,0.00,,,0.00,VWS V14.01,2013-04-01 05:40:00,
2013-04-01 00:41:00,17.6,-0.6,29.94,WNW,292,10.7,10.7,44,0.00,,,0.00,VWS V14.01,2013-04-01 05:41:00,
2013-04-01 00:42:00,17.6,-0.6,29.94,NNW,338,6.0,6.0,44,0.00,,,0.00,VWS V14.01,2013-04-01 05:42:00,
2013-04-01 00:43:00,17.6,-0.6,29.94,West,270,8.7,8.7,44,0.00,,,0.00,VWS V14.01,2013-04-01 05:43:00,
2013-04-01 00:44:00,17.6,-0.6,29.94,NNW,338,4.7,4.7,44,0.00,,,0.00,VWS V14.01,2013-04-01 05:44:00,
2013-04-01 00:45:00,17.4,-0.3,29.94,WSW,248,10.7,10.7,45,0.00,,,0.00,VWS V14.01,2013-04-01 05:45:00,
2013-04-01 00:46:00,17.4,-0.3,29.94,NNW,338,8.1,8.1,45,0.00,,,0.00,VWS V14.01,2013-04-01 05:46:00,
2013-04-01 00:47:00,17.4,-0.3,29.94,NW,315,10.7,10.7,45,0.00,,,0.00,VWS V14.01,2013-04-01 05:47:00,
2013-04-01 00:48:00,17.4,-0.3,29.94,NW,315,10.7,10.7,45,0.00,,,0.00,VWS V14.01,2013-04-01 05:48:00,
2013-04-01 00:49:00,17.4,-0.3,29.94,WNW,292,7.4,7.4,45,0.00,,,0.00,VWS V14.01,2013-04-01 05:49:00,
2013-04-01 00:51:00,17.2,-0.4,29.94,NNW,338,4.0,4.0,45,0.00,,,0.00,VWS V14.01,2013-04-01 05:51:00,
2013-04-01 00:52:00,17.2,-0.4,29.94,NNW,338,8.1,8.1,45,0.00,,,0.00,VWS V14.01,2013-04-01 05:52:00,
2013-04-01 00:53:00,17.2,-0.4,29.94,NNW,338,10.1,10.1,45,0.00,,,0.00,VWS V14.01,2013-04-01 05:53:00,
2013-04-01 00:54:00,17.2,-0.4,29.94,NNE,22,9.4,9.4,45,0.00,,,0.00,VWS V14.01,2013-04-01 05:54:00,
2013-04-01 00:55:00,17.1,-0.6,29.94,NE,45,16.8,16.8,45,0.00,,,0.00,VWS V14.01,2013-04-01 05:55:00,
2013-04-01 00:56:00,17.1,-0.6,29.97,West,270,10.1,10.1,45,0.00,,,0.00,VWS V14.01,2013-04-01 05:56:00,
2013-04-01 00:57:00,17.1,-0.6,29.97,WNW,292,6.0,6.0,45,0.00,,,0.00,VWS V14.01,2013-04-01 05:57:00,
2013-04-01 00:58:00,17.1,-0.6,29.97,NNE,22,8.7,8.7,45,0.00,,,0.00,VWS V14.01,2013-04-01 05:58:00,
2013-04-01 00:59:00,17.1,-0.6,29.97,NNW,338,18.8,18.8,45,0.00,,,0.00,VWS V14.01,2013-04-01 05:59:00,
2013-04-01 01:00:00,17.1,-0.6,29.97,NNE,22,6.7,6.7,45,0.00,,,0.00,VWS V14.01,2013-04-01 06:00:00,
2013-04-01 01:01:00,17.1,-0.6,29.97,WNW,292,6.7,6.7,45,0.00,,,0.00,VWS V14.01,2013-04-01 06:01:00,
2013-04-01 01:02:00,17.1,-0.6,29.97,NNW,338,8.7,8.7,45,0.00,,,0.00,VWS V14.01,2013-04-01 06:02:00,
2013-04-01 01:03:00,17.1,-0.6,29.97,NNW,338,11.4,11.4,45,0.00,,,0.00,VWS V14.01,2013-04-01 06:03:00,
2013-04-01 01:04:00,17.1,-0.6,29.97,NW,315,11.4,11.4,45,0.00,,,0.00,VWS V14.01,2013-04-01 06:04:00,
2013-04-01 01:05:00,17.1,-0.6,29.97,NNE,22,8.1,8.1,45,0.00,,,0.00,VWS V14.01,2013-04-01 06:05:00,
2013-04-01 01:06:00,17.1,-0.6,29.97,NNW,338,8.1,8.1,45,0.00,,,0.00,VWS V14.01,2013-04-01 06:06:00,
2013-04-01 01:07:00,17.1,-0.6,29.97,NNW,338,8.1,8.1,45,0.00,,,0.00,VWS V14.01,2013-04-01 06:07:00,
2013-04-01 01:08:00,17.1,-0.6,29.97,WNW,292,12.1,12.1,45,0.00,,,0.00,VWS V14.01,2013-04-01 06:08:00,
2013-04-01 01:09:00,16.9,-0.8,29.97,NNW,338,6.0,6.0,45,0.00,,,0.00,VWS V14.01,2013-04-01 06:09:00,
2013-04-01 01:10:00,16.9,-0.8,29.97,NNW,338,4.7,4.7,45,0.00,,,0.00,VWS V14.01,2013-04-01 06:10:00,
2013-04-01 01:11:00,16.9,-0.8,29.97,NNW,338,9.4,9.4,45,0.00,,,0.00,VWS V14.01,2013-04-01 06:11:00,
2013-04-01 01:12:00,16.9,-0.8,29.97,NNE,22,8.7,8.7,45,0.00,,,0.00,VWS V14.01,2013-04-01 06:12:00,
2013-04-01 01:13:00,16.9,-0.8,29.97,North,0,12.1,12.1,45,0.00,,,0.00,VWS V14.01,2013-04-01 06:13:00,
2013-04-01 01:14:00,16.9,-0.8,29.97,North,0,8.1,8.1,45,0.00,,,0.00,VWS V14.01,2013-04-01 06:14:00,
2013-04-01 01:15:00,16.9,-0.8,29.97,North,0,6.7,6.7,45,0.00,,,0.00,VWS V14.01,2013-04-01 06:15:00,
2013-04-01 01:16:00,16.9,-0.8,29.97,NNW,338,4.7,4.7,45,0.00,,,0.00,VWS V14.01,2013-04-01 06:16:00,
2013-04-01 01:17:00,16.9,-0.8,29.97,WNW,292,4.0,4.0,45,0.00,,,0.00,VWS V14.01,2013-04-01 06:17:00,
2013-04-01 01:18:00,16.9,-0.8,29.97,NNE,22,7.4,7.4,45,0.00,,,0.00,VWS V14.01,2013-04-01 06:18:00,
2013-04-01 01:19:00,16.7,-0.9,29.97,NNW,338,9.4,9.4,45,0.00,,,0.00,VWS V14.01,2013-04-01 06:19:00,
2013-04-01 01:20:00,16.7,-0.9,29.97,NNW,338,7.4,7.4,45,0.00,,,0.00,VWS V14.01,2013-04-01 06:20:00,
2013-04-01 01:21:00,16.7,-0.9,29.97,NE,45,16.1,16.1,45,0.00,,,0.00,VWS V14.01,2013-04-01 06:21:00,
2013-04-01 01:22:00,16.7,-0.9,29.97,NNW,338,16.8,16.8,45,0.00,,,0.00,VWS V14.01,2013-04-01 06:22:00,
2013-04-01 01:23:00,16.7,-0.9,29.97,North,0,3.4,5.6,45,0.00,,,0.00,VWS V14.01,2013-04-01 06:23:00,
2013-04-01 01:24:00,16.7,-0.9,29.97,North,0,10.7,10.7,45,0.00,,,0.00,VWS V14.01,2013-04-01 06:24:00,
2013-04-01 01:25:00,16.7,-0.9,29.97,ESE,112,9.4,9.4,45,0.00,,,0.00,VWS V14.01,2013-04-01 06:25:00,
2013-04-01 01:26:00,16.7,-0.9,29.97,WNW,292,4.0,4.0,45,0.00,,,0.00,VWS V14.01,2013-04-01 06:26:00,
2013-04-01 01:27:00,16.7,-0.9,29.97,NNW,338,9.4,9.4,45,0.00,,,0.00,VWS V14.01,2013-04-01 06:27:00,
2013-04-01 01:28:00,16.7,-0.9,29.97,NNW,338,8.1,8.1,45,0.00,,,0.00,VWS V14.01,2013-04-01 06:28:00,
2013-04-01 01:29:00,16.7,-0.9,29.97,NNE,22,7.4,7.4,45,0.00,,,0.00,VWS V14.01,2013-04-01 06:29:00,
2013-04-01 01:30:00,16.5,-1.1,29.97,NW,315,6.7,6.7,45,0.00,,,0.00,VWS V14.01,2013-04-01 06:30:00,
2013-04-01 01:31:00,16.5,-1.1,29.97,NNW,338,6.0,6.0,45,0.00,,,0.00,VWS V14.01,2013-04-01 06:31:00,
2013-04-01 01:32:00,16.5,-1.1,29.97,NNE,22,4.0,4.0,45,0.00,,,0.00,VWS V14.01,2013-04-01 06:32:00,
2013-04-01 01:33:00,16.5,-1.1,29.97,NNE,22,4.0,4.0,45,0.00,,,0.00,VWS V14.01,2013-04-01 06:33:00,
2013-04-01 01:34:00,16.5,-1.1,29.97,NNE,22,4.7,4.7,45,0.00,,,0.00,VWS V14.01,2013-04-01 06:34:00,
2013-04-01 01:35:00,16.3,-1.3,29.97,WNW,292,12.8,12.8,45,0.00,,,0.00,VWS V14.01,2013-04-01 06:35:00,
2013-04-01 01:36:00,16.3,-1.3,29.97,NW,315,8.1,8.1,45,0.00,,,0.00,VWS V14.01,2013-04-01 06:36:00,
2013-04-01 01:37:00,16.3,-1.3,29.97,NW,315,10.1,10.1,45,0.00,,,0.00,VWS V14.01,2013-04-01 06:37:00,
2013-04-01 01:38:00,16.3,-0.8,29.97,North,0,6.0,6.0,46,0.00,,,0.00,VWS V14.01,2013-04-01 06:38:00,
2013-04-01 01:39:00,16.3,-0.8,29.97,North,0,8.7,8.7,46,0.00,,,0.00,VWS V14.01,2013-04-01 06:39:00,
2013-04-01 01:40:00,16.2,-1.0,29.97,WNW,292,12.8,12.8,46,0.00,,,0.00,VWS V14.01,2013-04-01 06:40:00,
2013-04-01 01:41:00,16.2,-1.0,29.97,WNW,292,12.8,12.8,46,0.00,,,0.00,VWS V14.01,2013-04-01 06:41:00,
2013-04-01 01:42:00,16.2,-1.0,29.97,North,0,6.7,6.7,46,0.00,,,0.00,VWS V14.01,2013-04-01 06:42:00,
2013-04-01 01:43:00,16.2,-1.0,29.97,North,0,6.7,6.7,46,0.00,,,0.00,VWS V14.01,2013-04-01 06:43:00,
2013-04-01 01:44:00,16.2,-1.0,29.97,ENE,68,9.4,9.4,46,0.00,,,0.00,VWS V14.01,2013-04-01 06:44:00,
2013-04-01 01:45:00,16.2,-1.0,29.97,NNW,338,7.4,7.4,46,0.00,,,0.00,VWS V14.01,2013-04-01 06:45:00,
2013-04-01 01:46:00,16.2,-1.0,29.97,WNW,292,14.8,14.8,46,0.00,,,0.00,VWS V14.01,2013-04-01 06:46:00,
2013-04-01 01:47:00,16.2,-1.0,29.97,NW,315,11.4,11.4,46,0.00,,,0.00,VWS V14.01,2013-04-01 06:47:00,
2013-04-01 01:48:00,16.2,-1.0,29.97,NNW,338,8.7,8.7,46,0.00,,,0.00,VWS V14.01,2013-04-01 06:48:00,
2013-04-01 01:49:00,16.2,-1.0,29.97,NNW,338,8.7,8.7,46,0.00,,,0.00,VWS V14.01,2013-04-01 06:49:00,
2013-04-01 01:50:00,16.2,-1.0,29.97,NW,315,10.1,10.1,46,0.00,,,0.00,VWS V14.01,2013-04-01 06:50:00,
2013-04-01 01:51:00,16.2,-1.0,29.97,NW,315,10.1,10.1,46,0.00,,,0.00,VWS V14.01,2013-04-01 06:51:00,
2013-04-01 01:52:00,16.2,-1.0,29.97,NW,315,6.0,6.0,46,0.00,,,0.00,VWS V14.01,2013-04-01 06:52:00,
2013-04-01 01:53:00,16.0,-1.1,29.97,NW,315,7.4,7.4,46,0.00,,,0.00,VWS V14.01,2013-04-01 06:53:00,
2013-04-01 01:54:00,16.0,-1.1,29.97,NNE,22,8.1,8.1,46,0.00,,,0.00,VWS V14.01,2013-04-01 06:54:00,
2013-04-01 01:55:00,16.0,-1.1,29.97,NNE,22,9.4,9.4,46,0.00,,,0.00,VWS V14.01,2013-04-01 06:55:00,
2013-04-01 01:56:00,16.0,-1.1,29.97,NW,315,12.8,12.8,46,0.00,,,0.00,VWS V14.01,2013-04-01 06:56:00,
2013-04-01 01:57:00,16.0,-1.1,29.97,NW,315,12.8,12.8,46,0.00,,,0.00,VWS V14.01,2013-04-01 06:57:00,
2013-04-01 01:58:00,16.0,-1.1,29.97,NW,315,12.8,12.8,46,0.00,,,0.00,VWS V14.01,2013-04-01 06:58:00,
2013-04-01 01:59:00,16.0,-1.1,29.97,North,0,8.1,8.1,46,0.00,,,0.00,VWS V14.01,2013-04-01 06:59:00,
2013-04-01 02:00:00,16.0,-1.1,29.97,North,0,8.1,8.1,46,0.00,,,0.00,VWS V14.01,2013-04-01 07:00:00,
2013-04-01 02:01:00,16.0,-1.1,29.97,North,0,8.1,8.1,46,0.00,,,0.00,VWS V14.01,2013-04-01 07:01:00,
2013-04-01 02:02:00,16.0,-1.1,29.97,North,0,8.1,8.1,46,0.00,,,0.00,VWS V14.01,2013-04-01 07:02:00,
2013-04-01 02:03:00,16.0,-1.1,29.97,WNW,292,8.1,8.1,46,0.00,,,0.00,VWS V14.01,2013-04-01 07:03:00,
2013-04-01 02:04:00,16.0,-1.1,29.97,North,0,8.1,8.1,46,0.00,,,0.00,VWS V14.01,2013-04-01 07:04:00,
2013-04-01 02:05:00,16.0,-1.1,29.97,North,0,7.4,7.4,46,0.00,,,0.00,VWS V14.01,2013-04-01 07:05:00,
2013-04-01 02:06:00,16.0,-1.1,29.97,NNW,338,8.7,8.7,46,0.00,,,0.00,VWS V14.01,2013-04-01 07:06:00,
2013-04-01 02:07:00,16.0,-1.1,29.97,NNW,338,8.7,8.7,46,0.00,,,0.00,VWS V14.01,2013-04-01 07:07:00,
2013-04-01 02:08:00,16.0,-1.1,29.97,NNE,22,8.1,8.1,46,0.00,,,0.00,VWS V14.01,2013-04-01 07:08:00,
2013-04-01 02:09:00,15.8,-0.9,29.97,NNW,338,4.7,4.7,47,0.00,,,0.00,VWS V14.01,2013-04-01 07:09:00,
2013-04-01 02:10:00,15.8,-0.9,29.97,ENE,68,10.1,10.1,47,0.00,,,0.00,VWS V14.01,2013-04-01 07:10:00,
2013-04-01 02:11:00,15.8,-1.3,29.97,ENE,68,10.1,10.1,46,0.00,,,0.00,VWS V14.01,2013-04-01 07:11:00,
2013-04-01 02:12:00,15.8,-1.3,29.97,ENE,68,10.1,10.1,46,0.00,,,0.00,VWS V14.01,2013-04-01 07:12:00,
2013-04-01 02:13:00,15.8,-1.3,29.97,ENE,68,10.1,10.1,46,0.00,,,0.00,VWS V14.01,2013-04-01 07:13:00,
2013-04-01 02:14:00,15.8,-1.3,29.97,ENE,68,10.1,10.1,46,0.00,,,0.00,VWS V14.01,2013-04-01 07:14:00,
2013-04-01 02:15:00,15.8,-1.3,29.97,NNE,22,4.7,4.7,46,0.00,,,0.00,VWS V14.01,2013-04-01 07:15:00,
2013-04-01 02:16:00,15.6,-1.5,29.97,NNE,22,4.7,4.7,46,0.00,,,0.00,VWS V14.01,2013-04-01 07:16:00,
2013-04-01 02:17:00,15.6,-1.5,29.97,NNE,22,4.7,4.7,46,0.00,,,0.00,VWS V14.01,2013-04-01 07:17:00,
2013-04-01 02:18:00,15.6,-1.5,29.97,WSW,248,6.0,6.0,46,0.00,,,0.00,VWS V14.01,2013-04-01 07:18:00,
2013-04-01 02:19:00,15.6,-1.5,29.97,WSW,248,6.0,6.0,46,0.00,,,0.00,VWS V14.01,2013-04-01 07:19:00,
2013-04-01 02:20:00,15.4,-1.6,29.97,WSW,248,6.0,6.0,46,0.00,,,0.00,VWS V14.01,2013-04-01 07:20:00,
2013-04-01 02:21:00,15.4,-1.6,29.97,NW,315,4.7,4.7,46,0.00,,,0.00,VWS V14.01,2013-04-01 07:21:00,
2013-04-01 02:22:00,15.4,-1.6,29.97,NW,315,4.7,4.7,46,0.00,,,0.00,VWS V14.01,2013-04-01 07:22:00,
2013-04-01 02:23:00,15.4,-1.6,29.97,NW,315,4.7,4.7,46,0.00,,,0.00,VWS V14.01,2013-04-01 07:23:00,
2013-04-01 02:24:00,15.4,-1.6,29.97,NW,315,4.7,4.7,46,0.00,,,0.00,VWS V14.01,2013-04-01 07:24:00,
2013-04-01 02:25:00,15.3,-1.8,29.97,SW,225,3.4,3.4,46,0.00,,,0.00,VWS V14.01,2013-04-01 07:25:00,
2013-04-01 02:26:00,15.3,-1.8,29.97,NNW,338,8.7,8.7,46,0.00,,,0.00,VWS V14.01,2013-04-01 07:26:00,
2013-04-01 02:27:00,15.3,-1.8,29.97,NNW,338,9.4,9.4,46,0.00,,,0.00,VWS V14.01,2013-04-01 07:27:00,
2013-04-01 02:28:00,15.3,-1.3,29.97,NNW,338,8.7,8.7,47,0.00,,,0.00,VWS V14.01,2013-04-01 07:28:00,
2013-04-01 02:29:00,15.3,-1.3,29.97,NNW,338,8.7,8.7,47,0.00,,,0.00,VWS V14.01,2013-04-01 07:29:00,
2013-04-01 02:30:00,15.3,-1.3,29.97,NNW,338,8.7,8.7,47,0.00,,,0.00,VWS V14.01,2013-04-01 07:30:00,
2013-04-01 02:31:00,15.3,-1.3,29.97,NNW,338,8.7,8.7,47,0.00,,,0.00,VWS V14.01,2013-04-01 07:31:00,
2013-04-01 02:32:00,15.4,-1.2,29.97,NW,315,6.7,6.7,47,0.00,,,0.00,VWS V14.01,2013-04-01 07:32:00,
2013-04-01 02:33:00,15.4,-1.2,29.97,NW,315,6.7,6.7,47,0.00,,,0.00,VWS V14.01,2013-04-01 07:33:00,
2013-04-01 02:34:00,15.4,-1.2,29.97,WNW,292,8.1,8.1,47,0.00,,,0.00,VWS V14.01,2013-04-01 07:34:00,
2013-04-01 02:35:00,15.3,-1.3,29.97,WNW,292,8.1,8.1,47,0.00,,,0.00,VWS V14.01,2013-04-01 07:35:00,
2013-04-01 02:36:00,15.4,-1.2,29.97,NNW,338,20.1,20.1,47,0.00,,,0.00,VWS V14.01,2013-04-01 07:36:00,
2013-04-01 02:37:00,15.4,-1.2,29.97,NNE,22,8.7,8.7,47,0.00,,,0.00,VWS V14.01,2013-04-01 07:37:00,
2013-04-01 02:38:00,15.4,-1.2,29.97,NNE,22,8.7,8.7,47,0.00,,,0.00,VWS V14.01,2013-04-01 07:38:00,
2013-04-01 02:39:00,15.4,-1.2,29.97,NNE,22,8.7,8.7,47,0.00,,,0.00,VWS V14.01,2013-04-01 07:39:00,
2013-04-01 02:40:00,15.4,-1.2,29.97,NNE,22,8.7,8.7,47,0.00,,,0.00,VWS V14.01,2013-04-01 07:40:00,
2013-04-01 02:41:00,15.4,-1.2,30.00,WNW,292,8.1,8.1,47,0.00,,,0.00,VWS V14.01,2013-04-01 07:41:00,
2013-04-01 02:42:00,15.4,-1.2,30.00,North,0,8.1,8.1,47,0.00,,,0.00,VWS V14.01,2013-04-01 07:42:00,
2013-04-01 02:43:00,15.4,-1.2,30.00,North,0,8.1,8.1,47,0.00,,,0.00,VWS V14.01,2013-04-01 07:43:00,
2013-04-01 02:44:00,15.4,-1.2,30.00,NNW,338,10.7,10.7,47,0.00,,,0.00,VWS V14.01,2013-04-01 07:44:00,
2013-04-01 02:45:00,15.4,-1.2,30.00,NNW,338,10.7,10.7,47,0.00,,,0.00,VWS V14.01,2013-04-01 07:45:00,
2013-04-01 02:46:00,15.4,-1.2,30.00,NNW,338,10.7,10.7,47,0.00,,,0.00,VWS V14.01,2013-04-01 07:46:00,
2013-04-01 02:47:00,15.3,-1.3,30.00,NNW,338,10.7,10.7,47,0.00,,,0.00,VWS V14.01,2013-04-01 07:47:00,
2013-04-01 02:48:00,15.3,-1.3,30.00,NNW,338,10.7,10.7,47,0.00,,,0.00,VWS V14.01,2013-04-01 07:48:00,
2013-04-01 02:49:00,15.3,-1.3,30.00,NW,315,10.7,10.7,47,0.00,,,0.00,VWS V14.01,2013-04-01 07:49:00,
2013-04-01 02:50:00,15.3,-1.3,30.00,West,270,7.4,7.4,47,0.00,,,0.00,VWS V14.01,2013-04-01 07:50:00,
2013-04-01 02:51:00,15.3,-1.3,30.00,West,270,7.4,7.4,47,0.00,,,0.00,VWS V14.01,2013-04-01 07:51:00,
2013-04-01 02:52:00,15.3,-1.3,30.00,West,270,7.4,7.4,47,0.00,,,0.00,VWS V14.01,2013-04-01 07:52:00,
2013-04-01 02:53:00,15.3,-1.3,30.00,NNW,338,6.0,6.0,47,0.00,,,0.00,VWS V14.01,2013-04-01 07:53:00,
2013-04-01 02:54:00,15.3,-1.3,30.00,NNW,338,6.0,6.0,47,0.00,,,0.00,VWS V14.01,2013-04-01 07:54:00,
2013-04-01 02:55:00,15.3,-1.3,30.00,WNW,292,11.4,11.4,47,0.00,,,0.00,VWS V14.01,2013-04-01 07:55:00,
2013-04-01 02:56:00,15.3,-1.3,29.97,WNW,292,11.4,11.4,47,0.00,,,0.00,VWS V14.01,2013-04-01 07:56:00,
2013-04-01 02:57:00,15.3,-1.3,29.97,NNW,338,8.7,8.7,47,0.00,,,0.00,VWS V14.01,2013-04-01 07:57:00,
2013-04-01 02:58:00,15.3,-1.3,29.97,NNW,338,4.0,4.0,47,0.00,,,0.00,VWS V14.01,2013-04-01 07:58:00,
2013-04-01 02:59:00,15.3,-1.3,29.97,NNW,338,4.0,4.0,47,0.00,,,0.00,VWS V14.01,2013-04-01 07:59:00,
2013-04-01 03:00:00,15.1,-1.5,29.97,WNW,292,7.4,7.4,47,0.00,,,0.00,VWS V14.01,2013-04-01 08:00:00,
2013-04-01 03:01:00,15.1,-1.5,29.97,WNW,292,7.4,7.4,47,0.00,,,0.00,VWS V14.01,2013-04-01 08:01:00,
2013-04-01 03:02:00,15.1,-1.5,29.97,North,0,8.7,8.7,47,0.00,,,0.00,VWS V14.01,2013-04-01 08:02:00,
2013-04-01 03:03:00,15.1,-1.5,29.97,North,0,8.7,8.7,47,0.00,,,0.00,VWS V14.01,2013-04-01 08:03:00,
2013-04-01 03:04:00,15.1,-1.5,29.97,NNE,22,6.0,6.0,47,0.00,,,0.00,VWS V14.01,2013-04-01 08:04:00,
2013-04-01 03:05:00,15.1,-1.5,29.97,NNE,22,6.0,6.0,47,0.00,,,0.00,VWS V14.01,2013-04-01 08:05:00,
2013-04-01 03:06:00,15.1,-1.5,29.97,WNW,292,10.1,10.1,47,0.00,,,0.00,VWS V14.01,2013-04-01 08:06:00,
2013-04-01 03:07:00,15.1,-1.5,29.97,WNW,292,10.1,10.1,47,0.00,,,0.00,VWS V14.01,2013-04-01 08:07:00,
2013-04-01 03:08:00,15.1,-1.5,29.97,WNW,292,7.4,7.4,47,0.00,,,0.00,VWS V14.01,2013-04-01 08:08:00,
2013-04-01 03:09:00,15.1,-1.5,29.97,South,180,7.4,7.4,47,0.00,,,0.00,VWS V14.01,2013-04-01 08:09:00,
2013-04-01 03:10:00,15.1,-1.5,29.97,NNW,338,0.0,2.5,47,0.00,,,0.00,VWS V14.01,2013-04-01 08:10:00,
2013-04-01 03:11:00,14.9,-1.7,29.97,ENE,68,7.4,7.4,47,0.00,,,0.00,VWS V14.01,2013-04-01 08:11:00,
2013-04-01 03:12:00,14.9,-1.7,30.00,ENE,68,7.4,7.4,47,0.00,,,0.00,VWS V14.01,2013-04-01 08:12:00,
2013-04-01 03:13:00,14.9,-1.2,30.00,NNW,338,10.1,10.1,48,0.00,,,0.00,VWS V14.01,2013-04-01 08:13:00,
2013-04-01 03:14:00,15.1,-1.1,30.00,NNW,338,10.1,10.1,48,0.00,,,0.00,VWS V14.01,2013-04-01 08:14:00,
2013-04-01 03:15:00,14.9,-1.2,30.00,NW,315,4.7,4.7,48,0.00,,,0.00,VWS V14.01,2013-04-01 08:15:00,
2013-04-01 03:16:00,14.9,-1.7,30.00,WNW,292,3.4,3.4,47,0.00,,,0.00,VWS V14.01,2013-04-01 08:16:00,
2013-04-01 03:17:00,14.9,-1.7,30.00,NNW,338,11.4,11.4,47,0.00,,,0.00,VWS V14.01,2013-04-01 08:17:00,
2013-04-01 03:18:00,14.9,-1.2,30.00,NNW,338,11.4,11.4,48,0.00,,,0.00,VWS V14.01,2013-04-01 08:18:00,
2013-04-01 03:19:00,14.9,-1.2,30.00,NNW,338,8.1,8.1,48,0.00,,,0.00,VWS V14.01,2013-04-01 08:19:00,
2013-04-01 03:20:00,14.9,-1.2,30.00,NE,45,8.1,8.1,48,0.00,,,0.00,VWS V14.01,2013-04-01 08:20:00,
2013-04-01 03:21:00,14.9,-1.2,30.00,NNW,338,18.1,18.1,48,0.00,,,0.00,VWS V14.01,2013-04-01 08:21:00,
2013-04-01 03:22:00,14.9,-1.2,30.00,NNW,338,18.1,18.1,48,0.00,,,0.00,VWS V14.01,2013-04-01 08:22:00,
2013-04-01 03:23:00,14.9,-1.2,30.00,NNW,338,18.1,18.1,48,0.00,,,0.00,VWS V14.01,2013-04-01 08:23:00,
2013-04-01 03:24:00,14.9,-1.2,30.00,NNW,338,4.7,6.0,48,0.00,,,0.00,VWS V14.01,2013-04-01 08:24:00,
2013-04-01 03:25:00,14.9,-1.2,30.00,NNW,338,4.7,6.0,48,0.00,,,0.00,VWS V14.01,2013-04-01 08:25:00,
2013-04-01 03:26:00,14.9,-1.7,30.00,NNW,338,4.7,4.7,47,0.00,,,0.00,VWS V14.01,2013-04-01 08:26:00,
2013-04-01 03:27:00,14.9,-1.2,30.00,NW,315,10.1,10.1,48,0.00,,,0.00,VWS V14.01,2013-04-01 08:27:00,
2013-04-01 03:28:00,14.9,-1.2,30.00,NNW,338,6.0,6.0,48,0.00,,,0.00,VWS V14.01,2013-04-01 08:28:00,
2013-04-01 03:29:00,14.9,-1.2,30.00,NE,45,6.0,6.0,48,0.00,,,0.00,VWS V14.01,2013-04-01 08:29:00,
2013-04-01 03:30:00,14.9,-1.7,30.00,NE,45,6.0,6.0,47,0.00,,,0.00,VWS V14.01,2013-04-01 08:30:00,
2013-04-01 03:31:00,14.9,-1.2,30.00,NW,315,3.4,3.4,48,0.00,,,0.00,VWS V14.01,2013-04-01 08:31:00,
2013-04-01 03:32:00,14.7,-1.8,30.00,NW,315,3.4,3.4,47,0.00,,,0.00,VWS V14.01,2013-04-01 08:32:00,
2013-04-01 03:33:00,14.7,-1.4,30.00,NW,315,9.4,9.4,48,0.00,,,0.00,VWS V14.01,2013-04-01 08:33:00,
2013-04-01 03:34:00,14.7,-1.4,30.00,WNW,292,9.4,9.4,48,0.00,,,0.00,VWS V14.01,2013-04-01 08:34:00,
2013-04-01 03:35:00,14.7,-1.4,30.00,WNW,292,9.4,9.4,48,0.00,,,0.00,VWS V14.01,2013-04-01 08:35:00,
2013-04-01 03:36:00,14.7,-1.4,30.00,NNW,338,4.0,4.0,48,0.00,,,0.00,VWS V14.01,2013-04-01 08:36:00,
2013-04-01 03:37:00,14.7,-1.4,30.00,NW,315,4.0,4.0,48,0.00,,,0.00,VWS V14.01,2013-04-01 08:37:00,
2013-04-01 03:38:00,14.7,-1.4,30.00,WNW,292,6.0,6.0,48,0.00,,,0.00,VWS V14.01,2013-04-01 08:38:00,
2013-04-01 03:39:00,14.5,-2.0,30.00,NW,315,4.7,4.7,47,0.00,,,0.00,VWS V14.01,2013-04-01 08:39:00,
2013-04-01 03:40:00,14.5,-1.6,30.00,NW,315,4.7,4.7,48,0.00,,,0.00,VWS V14.01,2013-04-01 08:40:00,
2013-04-01 03:41:00,14.5,-1.6,30.00,West,270,7.4,7.4,48,0.00,,,0.00,VWS V14.01,2013-04-01 08:41:00,
2013-04-01 03:42:00,14.5,-1.6,30.00,West,270,7.4,7.4,48,0.00,,,0.00,VWS V14.01,2013-04-01 08:42:00,
2013-04-01 03:43:00,14.5,-1.6,30.00,West,270,7.4,7.4,48,0.00,,,0.00,VWS V14.01,2013-04-01 08:43:00,
2013-04-01 03:44:00,14.5,-1.6,30.00,West,270,7.4,7.4,48,0.00,,,0.00,VWS V14.01,2013-04-01 08:44:00,
2013-04-01 03:45:00,14.5,-1.6,30.00,West,270,7.4,7.4,48,0.00,,,0.00,VWS V14.01,2013-04-01 08:45:00,
2013-04-01 03:46:00,14.5,-1.6,30.00,NW,315,8.7,8.7,48,0.00,,,0.00,VWS V14.01,2013-04-01 08:46:00,
2013-04-01 03:47:00,14.5,-1.6,30.00,NW,315,4.0,4.0,48,0.00,,,0.00,VWS V14.01,2013-04-01 08:47:00,
2013-04-01 03:48:00,14.5,-1.6,30.00,NW,315,4.0,4.0,48,0.00,,,0.00,VWS V14.01,2013-04-01 08:48:00,
2013-04-01 03:49:00,14.5,-1.6,30.00,NNW,338,9.4,9.4,48,0.00,,,0.00,VWS V14.01,2013-04-01 08:49:00,
2013-04-01 03:50:00,14.5,-1.6,30.00,NNW,338,9.4,9.4,48,0.00,,,0.00,VWS V14.01,2013-04-01 08:50:00,
2013-04-01 03:51:00,14.5,-1.6,30.00,NNW,338,9.4,9.4,48,0.00,,,0.00,VWS V14.01,2013-04-01 08:51:00,
2013-04-01 03:52:00,14.5,-1.6,30.00,NW,315,9.4,9.4,48,0.00,,,0.00,VWS V14.01,2013-04-01 08:52:00,
2013-04-01 03:53:00,14.4,-1.7,30.00,North,0,4.7,4.7,48,0.00,,,0.00,VWS V14.01,2013-04-01 08:53:00,
2013-04-01 03:54:00,14.4,-1.7,30.00,North,0,4.7,4.7,48,0.00,,,0.00,VWS V14.01,2013-04-01 08:54:00,
2013-04-01 03:55:00,14.4,-1.7,30.00,North,0,4.7,4.7,48,0.00,,,0.00,VWS V14.01,2013-04-01 08:55:00,
2013-04-01 03:56:00,14.4,-1.7,30.00,NW,315,4.7,4.7,48,0.00,,,0.00,VWS V14.01,2013-04-01 08:56:00,
2013-04-01 03:57:00,14.4,-1.7,30.00,NW,315,4.7,4.7,48,0.00,,,0.00,VWS V14.01,2013-04-01 08:57:00,
2013-04-01 03:58:00,14.4,-1.7,30.00,WNW,292,9.4,9.4,48,0.00,,,0.00,VWS V14.01,2013-04-01 08:58:00,
2013-04-01 03:59:00,14.4,-1.7,30.00,WNW,292,9.4,9.4,48,0.00,,,0.00,VWS V14.01,2013-04-01 08:59:00,
2013-04-01 04:00:00,14.4,-1.7,30.00,WNW,292,9.4,9.4,48,0.00,,,0.00,VWS V14.01,2013-04-01 09:00:00,
2013-04-01 04:01:00,14.5,-1.6,30.00,NW,315,4.7,4.7,48,0.00,,,0.00,VWS V14.01,2013-04-01 09:01:00,
2013-04-01 04:02:00,14.5,-1.6,30.00,NNE,22,6.7,6.7,48,0.00,,,0.00,VWS V14.01,2013-04-01 09:02:00,
2013-04-01 04:03:00,14.5,-1.6,30.00,NNE,22,6.7,6.7,48,0.00,,,0.00,VWS V14.01,2013-04-01 09:03:00,
2013-04-01 04:04:00,14.4,-1.7,30.00,NNE,22,6.7,6.7,48,0.00,,,0.00,VWS V14.01,2013-04-01 09:04:00,
2013-04-01 04:05:00,14.5,-1.6,30.00,WNW,292,16.1,16.1,48,0.00,,,0.00,VWS V14.01,2013-04-01 09:05:00,
2013-04-01 04:06:00,14.5,-1.6,30.00,WNW,292,16.1,16.1,48,0.00,,,0.00,VWS V14.01,2013-04-01 09:06:00,
2013-04-01 04:07:00,14.5,-1.6,30.00,WNW,292,16.1,16.1,48,0.00,,,0.00,VWS V14.01,2013-04-01 09:07:00,
2013-04-01 04:08:00,14.4,-1.7,30.00,North,0,3.4,5.4,48,0.00,,,0.00,VWS V14.01,2013-04-01 09:08:00,
2013-04-01 04:09:00,14.4,-1.7,30.00,North,0,8.1,8.1,48,0.00,,,0.00,VWS V14.01,2013-04-01 09:09:00,
2013-04-01 04:10:00,14.4,-1.7,30.00,North,0,8.1,8.1,48,0.00,,,0.00,VWS V14.01,2013-04-01 09:10:00,
2013-04-01 04:11:00,14.4,-1.7,29.97,North,0,8.1,8.1,48,0.00,,,0.00,VWS V14.01,2013-04-01 09:11:00,
2013-04-01 04:12:00,14.4,-1.7,29.97,NW,315,8.7,8.7,48,0.00,,,0.00,VWS V14.01,2013-04-01 09:12:00,
2013-04-01 04:13:00,14.4,-1.7,29.97,NW,315,8.7,8.7,48,0.00,,,0.00,VWS V14.01,2013-04-01 09:13:00,
2013-04-01 04:14:00,14.4,-1.7,29.97,NW,315,8.7,8.7,48,0.00,,,0.00,VWS V14.01,2013-04-01 09:14:00,
2013-04-01 04:15:00,14.4,-1.7,29.97,NW,315,8.7,8.7,48,0.00,,,0.00,VWS V14.01,2013-04-01 09:15:00,
2013-04-01 04:16:00,14.4,-1.7,29.97,NW,315,4.7,4.7,48,0.00,,,0.00,VWS V14.01,2013-04-01 09:16:00,
2013-04-01 04:17:00,14.4,-1.7,29.97,NW,315,4.7,4.7,48,0.00,,,0.00,VWS V14.01,2013-04-01 09:17:00,
2013-04-01 04:18:00,14.4,-1.7,29.97,NNW,338,8.7,8.7,48,0.00,,,0.00,VWS V14.01,2013-04-01 09:18:00,
2013-04-01 04:19:00,14.4,-1.7,29.97,NNW,338,8.7,8.7,48,0.00,,,0.00,VWS V14.01,2013-04-01 09:19:00,
2013-04-01 04:20:00,14.4,-1.7,29.97,NNW,338,8.7,8.7,48,0.00,,,0.00,VWS V14.01,2013-04-01 09:20:00,
2013-04-01 04:21:00,14.4,-1.7,29.97,NNW,338,8.7,8.7,48,0.00,,,0.00,VWS V14.01,2013-04-01 09:21:00,
2013-04-01 04:22:00,14.4,-1.7,29.97,NNW,338,8.7,8.7,48,0.00,,,0.00,VWS V14.01,2013-04-01 09:22:00,
2013-04-01 04:23:00,14.4,-1.7,29.97,NNW,338,8.7,8.7,48,0.00,,,0.00,VWS V14.01,2013-04-01 09:23:00,
2013-04-01 04:24:00,14.4,-1.7,29.97,NNE,22,6.0,6.0,48,0.00,,,0.00,VWS V14.01,2013-04-01 09:24:00,
2013-04-01 04:25:00,14.4,-1.7,29.97,NNW,338,6.7,6.7,48,0.00,,,0.00,VWS V14.01,2013-04-01 09:25:00,
2013-04-01 04:26:00,14.4,-1.7,30.00,NNW,338,6.7,6.7,48,0.00,,,0.00,VWS V14.01,2013-04-01 09:26:00,
2013-04-01 04:27:00,14.4,-1.7,30.00,NW,315,6.0,6.0,48,0.00,,,0.00,VWS V14.01,2013-04-01 09:27:00,
2013-04-01 04:28:00,14.4,-1.7,30.00,NW,315,6.0,6.0,48,0.00,,,0.00,VWS V14.01,2013-04-01 09:28:00,
2013-04-01 04:29:00,14.4,-1.7,30.00,NW,315,7.4,7.4,48,0.00,,,0.00,VWS V14.01,2013-04-01 09:29:00,
2013-04-01 04:30:00,14.4,-1.7,30.00,NNE,22,9.4,9.4,48,0.00,,,0.00,VWS V14.01,2013-04-01 09:30:00,
2013-04-01 04:31:00,14.4,-1.7,30.00,NW,315,10.1,10.1,48,0.00,,,0.00,VWS V14.01,2013-04-01 09:31:00,
2013-04-01 04:32:00,14.5,-1.6,30.00,NW,315,10.1,10.1,48,0.00,,,0.00,VWS V14.01,2013-04-01 09:32:00,
2013-04-01 04:33:00,14.4,-1.7,30.00,NNW,338,6.7,6.7,48,0.00,,,0.00,VWS V14.01,2013-04-01 09:33:00,
2013-04-01 04:34:00,14.4,-1.7,30.00,NNW,338,6.7,6.7,48,0.00,,,0.00,VWS V14.01,2013-04-01 09:34:00,
2013-04-01 04:35:00,14.4,-1.7,30.00,NNW,338,6.7,6.7,48,0.00,,,0.00,VWS V14.01,2013-04-01 09:35:00,
2013-04-01 04:36:00,14.4,-1.7,30.00,NNW,338,4.0,4.0,48,0.00,,,0.00,VWS V14.01,2013-04-01 09:36:00,
2013-04-01 04:37:00,14.4,-1.7,30.00,NNW,338,4.0,4.0,48,0.00,,,0.00,VWS V14.01,2013-04-01 09:37:00,
2013-04-01 04:38:00,14.4,-1.7,30.00,NNW,338,4.0,4.0,48,0.00,,,0.00,VWS V14.01,2013-04-01 09:38:00,
2013-04-01 04:39:00,14.4,-1.7,30.00,NNW,338,4.0,4.0,48,0.00,,,0.00,VWS V14.01,2013-04-01 09:39:00,
2013-04-01 04:40:00,14.4,-1.7,30.00,NNW,338,4.0,4.0,48,0.00,,,0.00,VWS V14.01,2013-04-01 09:40:00,
2013-04-01 04:41:00,14.4,-1.7,30.00,NNW,338,4.0,4.0,48,0.00,,,0.00,VWS V14.01,2013-04-01 09:41:00,
2013-04-01 04:42:00,14.4,-1.7,30.00,SSW,202,8.1,8.1,48,0.00,,,0.00,VWS V14.01,2013-04-01 09:42:00,
2013-04-01 04:43:00,14.4,-1.7,30.00,SSW,202,8.1,8.1,48,0.00,,,0.00,VWS V14.01,2013-04-01 09:43:00,
2013-04-01 04:44:00,14.4,-1.7,30.00,NNE,22,8.1,8.1,48,0.00,,,0.00,VWS V14.01,2013-04-01 09:44:00,
2013-04-01 04:45:00,14.4,-1.7,30.00,NW,315,6.0,6.0,48,0.00,,,0.00,VWS V14.01,2013-04-01 09:45:00,
2013-04-01 04:46:00,14.4,-1.7,30.00,NW,315,6.0,6.0,48,0.00,,,0.00,VWS V14.01,2013-04-01 09:46:00,
2013-04-01 04:47:00,14.4,-1.7,30.00,NW,315,6.0,6.0,48,0.00,,,0.00,VWS V14.01,2013-04-01 09:47:00,
2013-04-01 04:48:00,14.4,-1.7,30.00,NW,315,6.0,6.0,48,0.00,,,0.00,VWS V14.01,2013-04-01 09:48:00,
2013-04-01 04:49:00,14.4,-1.7,30.00,NNW,338,8.7,8.7,48,0.00,,,0.00,VWS V14.01,2013-04-01 09:49:00,
2013-04-01 04:50:00,14.4,-1.7,30.00,NNW,338,8.7,8.7,48,0.00,,,0.00,VWS V14.01,2013-04-01 09:50:00,
2013-04-01 04:51:00,14.4,-1.7,30.00,NNW,338,8.7,8.7,48,0.00,,,0.00,VWS V14.01,2013-04-01 09:51:00,
2013-04-01 04:52:00,14.4,-1.7,30.00,NNW,338,8.7,8.7,48,0.00,,,0.00,VWS V14.01,2013-04-01 09:52:00,
2013-04-01 04:53:00,14.4,-1.7,30.00,NNW,338,8.7,8.7,48,0.00,,,0.00,VWS V14.01,2013-04-01 09:53:00,
2013-04-01 04:54:00,14.4,-1.7,30.00,NNW,338,4.0,4.0,48,0.00,,,0.00,VWS V14.01,2013-04-01 09:54:00,
2013-04-01 04:55:00,14.4,-1.7,30.00,NNW,338,4.0,4.0,48,0.00,,,0.00,VWS V14.01,2013-04-01 09:55:00,
2013-04-01 04:56:00,14.4,-1.7,30.00,NNW,338,6.0,6.0,48,0.00,,,0.00,VWS V14.01,2013-04-01 09:56:00,
2013-04-01 04:57:00,14.4,-1.7,30.00,NNW,338,6.0,6.0,48,0.00,,,0.00,VWS V14.01,2013-04-01 09:57:00,
2013-04-01 04:58:00,14.4,-1.7,30.00,NW,315,10.7,10.7,48,0.00,,,0.00,VWS V14.01,2013-04-01 09:58:00,
2013-04-01 04:59:00,14.4,-1.7,30.00,NW,315,10.7,10.7,48,0.00,,,0.00,VWS V14.01,2013-04-01 09:59:00,
2013-04-01 05:00:00,14.4,-1.7,30.00,NW,315,10.7,10.7,48,0.00,,,0.00,VWS V14.01,2013-04-01 10:00:00,
2013-04-01 05:01:00,14.4,-1.7,30.00,NW,315,10.7,10.7,48,0.00,,,0.00,VWS V14.01,2013-04-01 10:01:00,
2013-04-01 05:02:00,14.4,-1.7,30.00,South,180,10.7,10.7,48,0.00,,,0.00,VWS V14.01,2013-04-01 10:02:00,
2013-04-01 05:03:00,14.4,-1.7,30.00,South,180,10.7,10.7,48,0.00,,,0.00,VWS V14.01,2013-04-01 10:03:00,
2013-04-01 05:04:00,14.4,-1.7,30.00,South,180,10.7,10.7,48,0.00,,,0.00,VWS V14.01,2013-04-01 10:04:00,
2013-04-01 05:05:00,14.4,-1.7,30.00,South,180,10.7,10.7,48,0.00,,,0.00,VWS V14.01,2013-04-01 10:05:00,
2013-04-01 05:06:00,14.4,-1.7,30.00,South,180,10.7,10.7,48,0.00,,,0.00,VWS V14.01,2013-04-01 10:06:00,
2013-04-01 05:07:00,14.4,-1.7,30.00,NNW,338,8.1,8.1,48,0.00,,,0.00,VWS V14.01,2013-04-01 10:07:00,
2013-04-01 05:08:00,14.4,-1.7,30.00,NNW,338,8.1,8.1,48,0.00,,,0.00,VWS V14.01,2013-04-01 10:08:00,
2013-04-01 05:09:00,14.4,-1.7,30.00,SW,225,6.0,6.0,48,0.00,,,0.00,VWS V14.01,2013-04-01 10:09:00,
2013-04-01 05:10:00,14.4,-1.7,30.00,SW,225,6.0,6.0,48,0.00,,,0.00,VWS V14.01,2013-04-01 10:10:00,
2013-04-01 05:11:00,14.4,-1.7,30.00,SW,225,6.0,6.0,48,0.00,,,0.00,VWS V14.01,2013-04-01 10:11:00,
2013-04-01 05:12:00,14.4,-1.7,30.00,NNW,338,9.4,9.4,48,0.00,,,0.00,VWS V14.01,2013-04-01 10:12:00,
2013-04-01 05:13:00,14.4,-1.7,30.00,NNW,338,9.4,9.4,48,0.00,,,0.00,VWS V14.01,2013-04-01 10:13:00,
2013-04-01 05:14:00,14.4,-1.7,30.00,NNW,338,11.4,11.4,48,0.00,,,0.00,VWS V14.01,2013-04-01 10:14:00,
2013-04-01 05:15:00,14.4,-2.2,30.00,NNW,338,11.4,11.4,47,0.00,,,0.00,VWS V14.01,2013-04-01 10:15:00,
2013-04-01 05:16:00,14.4,-1.7,30.00,NNW,338,11.4,11.4,48,0.00,,,0.00,VWS V14.01,2013-04-01 10:16:00,
2013-04-01 05:17:00,14.4,-1.7,30.00,NW,315,12.1,12.1,48,0.00,,,0.00,VWS V14.01,2013-04-01 10:17:00,
2013-04-01 05:18:00,14.4,-1.7,30.00,NW,315,12.1,12.1,48,0.00,,,0.00,VWS V14.01,2013-04-01 10:18:00,
2013-04-01 05:19:00,14.4,-2.2,30.00,NNW,338,8.7,8.7,47,0.00,,,0.00,VWS V14.01,2013-04-01 10:19:00,
2013-04-01 05:20:00,14.2,-2.3,30.00,NNW,338,8.7,8.7,47,0.00,,,0.00,VWS V14.01,2013-04-01 10:20:00,
2013-04-01 05:21:00,14.2,-2.3,30.00,NNW,338,8.7,8.7,47,0.00,,,0.00,VWS V14.01,2013-04-01 10:21:00,
2013-04-01 05:22:00,14.2,-2.3,30.00,NNW,338,8.7,8.7,47,0.00,,,0.00,VWS V14.01,2013-04-01 10:22:00,
2013-04-01 05:23:00,14.2,-2.3,30.00,NNW,338,8.7,8.7,47,0.00,,,0.00,VWS V14.01,2013-04-01 10:23:00,
2013-04-01 05:24:00,14.2,-2.3,30.00,NNW,338,8.7,8.7,47,0.00,,,0.00,VWS V14.01,2013-04-01 10:24:00,
2013-04-01 05:25:00,14.2,-2.3,30.00,NNW,338,8.7,8.7,47,0.00,,,0.00,VWS V14.01,2013-04-01 10:25:00,
2013-04-01 05:26:00,14.2,-2.3,30.03,NNW,338,8.7,8.7,47,0.00,,,0.00,VWS V14.01,2013-04-01 10:26:00,
2013-04-01 05:27:00,14.2,-2.3,30.03,NNW,338,8.7,8.7,47,0.00,,,0.00,VWS V14.01,2013-04-01 10:27:00,
2013-04-01 05:28:00,14.2,-2.3,30.03,NNW,338,8.7,8.7,47,0.00,,,0.00,VWS V14.01,2013-04-01 10:28:00,
2013-04-01 05:29:00,14.2,-2.3,30.03,NW,315,12.8,12.8,47,0.00,,,0.00,VWS V14.01,2013-04-01 10:29:00,
2013-04-01 05:30:00,14.2,-2.3,30.03,NW,315,12.8,12.8,47,0.00,,,0.00,VWS V14.01,2013-04-01 10:30:00,
2013-04-01 05:31:00,14.2,-2.3,30.03,NW,315,12.8,12.8,47,0.00,,,0.00,VWS V14.01,2013-04-01 10:31:00,
2013-04-01 05:32:00,14.2,-2.3,30.03,NW,315,12.8,12.8,47,0.00,,,0.00,VWS V14.01,2013-04-01 10:32:00,
2013-04-01 05:33:00,14.0,-2.1,30.03,NW,315,12.8,12.8,48,0.00,,,0.00,VWS V14.01,2013-04-01 10:33:00,
2013-04-01 05:34:00,14.2,-2.3,30.03,NW,315,12.8,12.8,47,0.00,,,0.00,VWS V14.01,2013-04-01 10:34:00,
2013-04-01 05:35:00,14.2,-2.3,30.03,NW,315,12.8,12.8,47,0.00,,,0.00,VWS V14.01,2013-04-01 10:35:00,
2013-04-01 05:36:00,14.2,-2.3,30.03,NW,315,12.8,12.8,47,0.00,,,0.00,VWS V14.01,2013-04-01 10:36:00,
2013-04-01 05:37:00,14.2,-2.3,30.03,NW,315,12.8,12.8,47,0.00,,,0.00,VWS V14.01,2013-04-01 10:37:00,
2013-04-01 05:38:00,14.0,-2.1,30.03,NW,315,12.8,12.8,48,0.00,,,0.00,VWS V14.01,2013-04-01 10:38:00,
2013-04-01 05:39:00,14.0,-2.1,30.03,NW,315,12.8,12.8,48,0.00,,,0.00,VWS V14.01,2013-04-01 10:39:00,
2013-04-01 05:40:00,14.0,-2.1,30.03,NW,315,12.8,12.8,48,0.00,,,0.00,VWS V14.01,2013-04-01 10:40:00,
2013-04-01 05:41:00,14.0,-2.1,30.03,NW,315,12.8,12.8,48,0.00,,,0.00,VWS V14.01,2013-04-01 10:41:00,
2013-04-01 05:42:00,14.0,-2.1,30.03,WNW,292,8.1,8.1,48,0.00,,,0.00,VWS V14.01,2013-04-01 10:42:00,
2013-04-01 05:43:00,13.8,-2.2,30.03,WNW,292,8.1,8.1,48,0.00,,,0.00,VWS V14.01,2013-04-01 10:43:00,
2013-04-01 05:44:00,13.8,-2.2,30.03,WNW,292,8.1,8.1,48,0.00,,,0.00,VWS V14.01,2013-04-01 10:44:00,
2013-04-01 05:45:00,13.8,-2.2,30.03,WNW,292,8.1,8.1,48,0.00,,,0.00,VWS V14.01,2013-04-01 10:45:00,
2013-04-01 05:46:00,13.8,-2.2,30.03,WNW,292,8.1,8.1,48,0.00,,,0.00,VWS V14.01,2013-04-01 10:46:00,
2013-04-01 05:47:00,13.8,-2.2,30.03,WNW,292,8.1,8.1,48,0.00,,,0.00,VWS V14.01,2013-04-01 10:47:00,
2013-04-01 05:48:00,13.8,-2.2,30.03,NNW,338,7.4,7.4,48,0.00,,,0.00,VWS V14.01,2013-04-01 10:48:00,
2013-04-01 05:49:00,13.6,-2.4,30.03,ENE,68,8.7,8.7,48,0.00,,,0.00,VWS V14.01,2013-04-01 10:49:00,
2013-04-01 05:50:00,13.6,-2.4,30.03,ENE,68,8.7,8.7,48,0.00,,,0.00,VWS V14.01,2013-04-01 10:50:00,
2013-04-01 05:51:00,13.6,-2.4,30.03,NW,315,12.1,12.1,48,0.00,,,0.00,VWS V14.01,2013-04-01 10:51:00,
2013-04-01 05:52:00,13.6,-2.4,30.03,NW,315,8.7,8.7,48,0.00,,,0.00,VWS V14.01,2013-04-01 10:52:00,
2013-04-01 05:53:00,13.6,-2.4,30.03,NW,315,8.1,8.1,48,0.00,,,0.00,VWS V14.01,2013-04-01 10:53:00,
2013-04-01 05:54:00,13.6,-2.4,30.03,NW,315,8.1,8.1,48,0.00,,,0.00,VWS V14.01,2013-04-01 10:54:00,
2013-04-01 05:55:00,13.6,-2.4,30.03,NW,315,8.1,8.1,48,0.00,,,0.00,VWS V14.01,2013-04-01 10:55:00,
2013-04-01 05:56:00,13.6,-2.4,30.03,NW,315,8.1,8.1,48,0.00,,,0.00,VWS V14.01,2013-04-01 10:56:00,
2013-04-01 05:57:00,13.6,-2.4,30.03,NNW,338,8.7,8.7,48,0.00,,,0.00,VWS V14.01,2013-04-01 10:57:00,
2013-04-01 05:58:00,13.6,-2.4,30.03,NNW,338,8.7,8.7,48,0.00,,,0.00,VWS V14.01,2013-04-01 10:58:00,
2013-04-01 05:59:00,13.6,-2.4,30.03,NNW,338,8.7,8.7,48,0.00,,,0.00,VWS V14.01,2013-04-01 10:59:00,
2013-04-01 06:00:00,13.6,-2.4,30.03,NNW,338,8.7,8.7,48,0.00,,,0.00,VWS V14.01,2013-04-01 11:00:00,
2013-04-01 06:01:00,13.6,-2.4,30.03,NNW,338,8.7,8.7,48,0.00,,,0.00,VWS V14.01,2013-04-01 11:01:00,
2013-04-01 06:02:00,13.6,-2.4,30.03,NNW,338,8.7,8.7,48,0.00,,,0.00,VWS V14.01,2013-04-01 11:02:00,
2013-04-01 06:03:00,13.6,-2.4,30.03,NNW,338,8.7,8.7,48,0.00,,,0.00,VWS V14.01,2013-04-01 11:03:00,
2013-04-01 06:04:00,13.5,-2.6,30.03,NNW,338,8.7,8.7,48,0.00,,,0.00,VWS V14.01,2013-04-01 11:04:00,
2013-04-01 06:05:00,13.5,-2.6,30.03,NNW,338,8.7,8.7,48,0.00,,,0.00,VWS V14.01,2013-04-01 11:05:00,
2013-04-01 06:06:00,13.5,-2.6,30.03,West,270,8.1,8.1,48,0.00,,,0.00,VWS V14.01,2013-04-01 11:06:00,
2013-04-01 06:07:00,13.5,-2.6,30.03,West,270,8.1,8.1,48,0.00,,,0.00,VWS V14.01,2013-04-01 11:07:00,
2013-04-01 06:08:00,13.5,-2.6,30.03,SSE,158,6.0,6.0,48,0.00,,,0.00,VWS V14.01,2013-04-01 11:08:00,
2013-04-01 06:09:00,13.5,-2.6,30.03,SSE,158,6.0,6.0,48,0.00,,,0.00,VWS V14.01,2013-04-01 11:09:00,
2013-04-01 06:10:00,13.5,-2.6,30.03,SSE,158,6.0,6.0,48,0.00,,,0.00,VWS V14.01,2013-04-01 11:10:00,
2013-04-01 06:11:00,13.5,-2.6,30.03,SSE,158,6.0,6.0,48,0.00,,,0.00,VWS V14.01,2013-04-01 11:11:00,
2013-04-01 06:12:00,13.5,-2.6,30.03,SSE,158,6.0,6.0,48,0.00,,,0.00,VWS V14.01,2013-04-01 11:12:00,
2013-04-01 06:13:00,13.5,-2.6,30.03,SSE,158,6.0,6.0,48,0.00,,,0.00,VWS V14.01,2013-04-01 11:13:00,
2013-04-01 06:14:00,13.5,-2.6,30.03,SSE,158,6.0,6.0,48,0.00,,,0.00,VWS V14.01,2013-04-01 11:14:00,
2013-04-01 06:15:00,13.5,-2.6,30.03,SSE,158,6.0,6.0,48,0.00,,,0.00,VWS V14.01,2013-04-01 11:15:00,
2013-04-01 06:16:00,13.5,-2.6,30.03,SSE,158,6.0,6.0,48,0.00,,,0.00,VWS V14.01,2013-04-01 11:16:00,
2013-04-01 06:17:00,13.6,-2.4,30.03,SSE,158,6.0,6.0,48,0.00,,,0.00,VWS V14.01,2013-04-01 11:17:00,
2013-04-01 06:18:00,13.6,-2.4,30.03,SSE,158,6.0,6.0,48,0.00,,,0.00,VWS V14.01,2013-04-01 11:18:00,
2013-04-01 06:19:00,13.6,-2.4,30.03,SSE,158,6.0,6.0,48,0.00,,,0.00,VWS V14.01,2013-04-01 11:19:00,
2013-04-01 06:20:00,13.6,-2.4,30.03,SSE,158,6.0,6.0,48,0.00,,,0.00,VWS V14.01,2013-04-01 11:20:00,
2013-04-01 06:21:00,13.6,-2.4,30.03,SSE,158,6.0,6.0,48,0.00,,,0.00,VWS V14.01,2013-04-01 11:21:00,
2013-04-01 06:22:00,13.6,-2.4,30.03,SSE,158,6.0,6.0,48,0.00,,,0.00,VWS V14.01,2013-04-01 11:22:00,
2013-04-01 06:23:00,13.6,-2.4,30.03,SSE,158,6.0,6.0,48,0.00,,,0.00,VWS V14.01,2013-04-01 11:23:00,
2013-04-01 06:24:00,13.6,-2.4,30.03,SSE,158,6.0,6.0,48,0.00,,,0.00,VWS V14.01,2013-04-01 11:24:00,
2013-04-01 06:25:00,13.6,-2.4,30.03,SSE,158,6.0,6.0,48,0.00,,,0.00,VWS V14.01,2013-04-01 11:25:00,
2013-04-01 06:26:00,13.6,-2.4,30.03,SSE,158,6.0,6.0,48,0.00,,,0.00,VWS V14.01,2013-04-01 11:26:00,
2013-04-01 06:27:00,13.8,-2.2,30.03,NNE,22,8.7,8.7,48,0.00,,,0.00,VWS V14.01,2013-04-01 11:27:00,
2013-04-01 06:28:00,13.8,-2.2,30.03,NNE,22,8.7,8.7,48,0.00,,,0.00,VWS V14.01,2013-04-01 11:28:00,
2013-04-01 06:29:00,13.8,-2.2,30.03,NNE,22,8.7,8.7,48,0.00,,,0.00,VWS V14.01,2013-04-01 11:29:00,
2013-04-01 06:30:00,13.8,-2.2,30.03,NNE,22,8.7,8.7,48,0.00,,,0.00,VWS V14.01,2013-04-01 11:30:00,
2013-04-01 06:31:00,13.8,-2.2,30.03,NNE,22,8.7,8.7,48,0.00,,,0.00,VWS V14.01,2013-04-01 11:31:00,
2013-04-01 06:32:00,13.8,-2.2,30.03,NNE,22,8.7,8.7,48,0.00,,,0.00,VWS V14.01,2013-04-01 11:32:00,
2013-04-01 06:33:00,13.8,-2.2,30.03,NNE,22,8.7,8.7,48,0.00,,,0.00,VWS V14.01,2013-04-01 11:33:00,
2013-04-01 06:34:00,13.8,-2.2,30.03,NNE,22,8.7,8.7,48,0.00,,,0.00,VWS V14.01,2013-04-01 11:34:00,
2013-04-01 06:35:00,13.8,-2.2,30.03,NNE,22,8.7,8.7,48,0.00,,,0.00,VWS V14.01,2013-04-01 11:35:00,
2013-04-01 06:36:00,13.8,-2.2,30.03,NNE,22,8.7,8.7,48,0.00,,,0.00,VWS V14.01,2013-04-01 11:36:00,
2013-04-01 06:37:00,13.8,-2.2,30.03,NNE,22,8.7,8.7,48,0.00,,,0.00,VWS V14.01,2013-04-01 11:37:00,
2013-04-01 06:38:00,13.8,-2.2,30.03,NNE,22,8.7,8.7,48,0.00,,,0.00,VWS V14.01,2013-04-01 11:38:00,
2013-04-01 06:39:00,13.8,-2.2,30.03,NNE,22,8.7,8.7,48,0.00,,,0.00,VWS V14.01,2013-04-01 11:39:00,
2013-04-01 06:40:00,13.8,-2.2,30.03,NNE,22,8.7,8.7,48,0.00,,,0.00,VWS V14.01,2013-04-01 11:40:00,
2013-04-01 06:41:00,13.8,-2.2,30.03,NNE,22,8.7,8.7,48,0.00,,,0.00,VWS V14.01,2013-04-01 11:41:00,
2013-04-01 06:42:00,13.8,-2.2,30.03,NNE,22,8.7,8.7,48,0.00,,,0.00,VWS V14.01,2013-04-01 11:42:00,
2013-04-01 06:43:00,13.8,-2.2,30.03,NNE,22,8.7,8.7,48,0.00,,,0.00,VWS V14.01,2013-04-01 11:43:00,
2013-04-01 06:44:00,13.8,-2.2,30.03,NNE,22,8.7,8.7,48,0.00,,,0.00,VWS V14.01,2013-04-01 11:44:00,
2013-04-01 06:45:00,13.8,-2.2,30.03,NNE,22,8.7,8.7,48,0.00,,,0.00,VWS V14.01,2013-04-01 11:45:00,
2013-04-01 06:46:00,13.8,-2.2,30.03,NNE,22,8.7,8.7,48,0.00,,,0.00,VWS V14.01,2013-04-01 11:46:00,
2013-04-01 06:47:00,14.0,-2.1,30.03,NNE,22,8.7,8.7,48,0.00,,,0.00,VWS V14.01,2013-04-01 11:47:00,
2013-04-01 06:48:00,14.0,-2.1,30.03,NNE,22,8.7,8.7,48,0.00,,,0.00,VWS V14.01,2013-04-01 11:48:00,
2013-04-01 06:49:00,14.0,-2.1,30.03,NNE,22,8.7,8.7,48,0.00,,,0.00,VWS V14.01,2013-04-01 11:49:00,
2013-04-01 06:50:00,14.2,-2.3,30.03,WNW,292,20.8,20.8,47,0.00,,,0.00,VWS V14.01,2013-04-01 11:50:00,
2013-04-01 06:51:00,14.2,-2.3,30.03,WNW,292,20.8,20.8,47,0.00,,,0.00,VWS V14.01,2013-04-01 11:51:00,
2013-04-01 06:52:00,14.2,-2.3,30.03,WNW,292,20.8,20.8,47,0.00,,,0.00,VWS V14.01,2013-04-01 11:52:00,
2013-04-01 06:53:00,14.4,-2.2,30.03,WNW,292,20.8,20.8,47,0.00,,,0.00,VWS V14.01,2013-04-01 11:53:00,
2013-04-01 06:54:00,14.4,-2.2,30.03,WNW,292,20.8,20.8,47,0.00,,,0.00,VWS V14.01,2013-04-01 11:54:00,
2013-04-01 06:55:00,14.7,-1.8,30.03,WNW,292,20.8,20.8,47,0.00,,,0.00,VWS V14.01,2013-04-01 11:55:00,
2013-04-01 06:56:00,14.9,-1.2,30.06,WNW,292,20.8,20.8,48,0.00,,,0.00,VWS V14.01,2013-04-01 11:56:00,
2013-04-01 06:57:00,15.4,-1.2,30.06,WNW,292,20.8,20.8,47,0.00,,,0.00,VWS V14.01,2013-04-01 11:57:00,
2013-04-01 06:58:00,15.8,-0.9,30.06,WNW,292,20.8,20.8,47,0.00,,,0.00,VWS V14.01,2013-04-01 11:58:00,
2013-04-01 06:59:00,16.0,-0.7,30.06,NW,315,6.7,6.9,47,0.00,,,0.00,VWS V14.01,2013-04-01 11:59:00,
2013-04-01 07:00:00,16.2,-0.5,30.06,NW,315,6.7,6.9,47,0.00,,,0.00,VWS V14.01,2013-04-01 12:00:00,
2013-04-01 07:01:00,16.5,-0.2,30.06,NW,315,4.7,4.7,47,0.00,,,0.00,VWS V14.01,2013-04-01 12:01:00,
2013-04-01 07:02:00,16.5,-0.2,30.06,NW,315,4.7,4.7,47,0.00,,,0.00,VWS V14.01,2013-04-01 12:02:00,
2013-04-01 07:03:00,16.7,-0.5,30.06,NW,315,4.7,4.7,46,0.00,,,0.00,VWS V14.01,2013-04-01 12:03:00,
2013-04-01 07:04:00,17.1,-0.6,30.06,NW,315,4.7,4.7,45,0.00,,,0.00,VWS V14.01,2013-04-01 12:04:00,
2013-04-01 07:05:00,17.1,-0.6,30.06,NNE,22,8.7,8.7,45,0.00,,,0.00,VWS V14.01,2013-04-01 12:05:00,
2013-04-01 07:06:00,17.4,-0.3,30.06,NW,315,12.8,12.8,45,0.00,,,0.00,VWS V14.01,2013-04-01 12:06:00,
2013-04-01 07:07:00,17.2,-0.4,30.06,SW,225,6.7,6.7,45,0.00,,,0.00,VWS V14.01,2013-04-01 12:07:00,
2013-04-01 07:08:00,17.4,-0.8,30.06,SW,225,6.7,6.7,44,0.00,,,0.00,VWS V14.01,2013-04-01 12:08:00,
2013-04-01 07:09:00,17.4,-0.8,30.06,SW,225,6.7,6.7,44,0.00,,,0.00,VWS V14.01,2013-04-01 12:09:00,
2013-04-01 07:10:00,17.6,-0.1,30.06,SW,225,6.7,6.7,45,0.00,,,0.00,VWS V14.01,2013-04-01 12:10:00,
2013-04-01 07:11:00,17.6,-0.6,30.06,SW,225,6.7,6.7,44,0.00,,,0.00,VWS V14.01,2013-04-01 12:11:00,
2013-04-01 07:12:00,18.1,-0.1,30.06,SW,225,6.7,6.7,44,0.00,,,0.00,VWS V14.01,2013-04-01 12:12:00,
2013-04-01 07:13:00,18.0,-0.3,30.06,NNW,338,8.7,8.7,44,0.00,,,0.00,VWS V14.01,2013-04-01 12:13:00,
2013-04-01 07:14:00,18.1,-0.6,30.06,NNW,338,8.7,8.7,43,0.00,,,0.00,VWS V14.01,2013-04-01 12:14:00,
2013-04-01 07:15:00,18.0,-0.8,30.06,NNW,338,8.7,8.7,43,0.00,,,0.00,VWS V14.01,2013-04-01 12:15:00,
2013-04-01 07:16:00,18.0,-0.8,30.06,NNW,338,8.7,8.7,43,0.00,,,0.00,VWS V14.01,2013-04-01 12:16:00,
2013-04-01 07:17:00,18.0,-0.8,30.06,NNW,338,8.7,8.7,43,0.00,,,0.00,VWS V14.01,2013-04-01 12:17:00,
2013-04-01 07:18:00,18.0,-0.8,30.06,NNW,338,8.7,8.7,43,0.00,,,0.00,VWS V14.01,2013-04-01 12:18:00,
2013-04-01 07:19:00,18.1,-0.6,30.06,NNW,338,8.7,8.7,43,0.00,,,0.00,VWS V14.01,2013-04-01 12:19:00,
2013-04-01 07:20:00,18.1,-0.6,30.06,NNW,338,7.4,7.4,43,0.00,,,0.00,VWS V14.01,2013-04-01 12:20:00,
2013-04-01 07:21:00,18.1,-0.6,30.06,NNE,22,10.1,10.1,43,0.00,,,0.00,VWS V14.01,2013-04-01 12:21:00,
2013-04-01 07:22:00,18.0,-0.8,30.06,NNE,22,10.1,10.1,43,0.00,,,0.00,VWS V14.01,2013-04-01 12:22:00,
2013-04-01 07:23:00,18.0,-0.8,30.06,West,270,4.0,4.0,43,0.00,,,0.00,VWS V14.01,2013-04-01 12:23:00,
2013-04-01 07:24:00,18.1,-0.6,30.06,NNW,338,3.4,3.4,43,0.00,,,0.00,VWS V14.01,2013-04-01 12:24:00,
2013-04-01 07:25:00,18.3,-0.4,30.06,NNW,338,8.1,8.1,43,0.00,,,0.00,VWS V14.01,2013-04-01 12:25:00,
2013-04-01 07:26:00,18.3,-0.4,30.06,NNE,22,6.7,6.7,43,0.00,,,0.00,VWS V14.01,2013-04-01 12:26:00,
2013-04-01 07:27:00,18.3,-0.4,30.06,NNW,338,12.8,12.8,43,0.00,,,0.00,VWS V14.01,2013-04-01 12:27:00,
2013-04-01 07:28:00,18.3,-0.4,30.06,NNW,338,12.1,12.1,43,0.00,,,0.00,VWS V14.01,2013-04-01 12:28:00,
2013-04-01 07:29:00,18.5,-0.3,30.06,NNW,338,7.4,8.5,43,0.00,,,0.00,VWS V14.01,2013-04-01 12:29:00,
2013-04-01 07:30:00,18.5,-0.3,30.06,NNE,22,10.7,10.7,43,0.00,,,0.00,VWS V14.01,2013-04-01 12:30:00,
2013-04-01 07:31:00,18.7,-0.1,30.06,NW,315,12.1,12.1,43,0.00,,,0.00,VWS V14.01,2013-04-01 12:31:00,
2013-04-01 07:32:00,18.7,-0.1,30.06,NE,45,8.7,8.7,43,0.00,,,0.00,VWS V14.01,2013-04-01 12:32:00,
2013-04-01 07:33:00,18.7,-0.1,30.06,NW,315,7.4,7.4,43,0.00,,,0.00,VWS V14.01,2013-04-01 12:33:00,
2013-04-01 07:34:00,18.7,-0.6,30.06,SW,225,3.4,4.0,42,0.00,,,0.00,VWS V14.01,2013-04-01 12:34:00,
2013-04-01 07:35:00,19.0,-0.3,30.06,West,270,8.7,8.7,42,0.00,,,0.00,VWS V14.01,2013-04-01 12:35:00,
2013-04-01 07:36:00,19.2,-0.1,30.06,NNE,22,6.0,6.3,42,0.00,,,0.00,VWS V14.01,2013-04-01 12:36:00,
2013-04-01 07:37:00,19.2,-0.1,30.06,NNE,22,6.0,6.0,42,0.00,,,0.00,VWS V14.01,2013-04-01 12:37:00,
2013-04-01 07:38:00,19.2,-0.1,30.06,WNW,292,11.4,11.4,42,0.00,,,0.00,VWS V14.01,2013-04-01 12:38:00,
2013-04-01 07:39:00,19.0,-0.3,30.06,NNE,22,12.1,12.1,42,0.00,,,0.00,VWS V14.01,2013-04-01 12:39:00,
2013-04-01 07:40:00,19.2,-0.1,30.06,NNE,22,3.4,6.3,42,0.00,,,0.00,VWS V14.01,2013-04-01 12:40:00,
2013-04-01 07:41:00,19.4,0.1,30.06,NNW,338,12.1,12.1,42,0.00,,,0.00,VWS V14.01,2013-04-01 12:41:00,
2013-04-01 07:42:00,19.4,0.1,30.06,NNW,338,10.1,10.1,42,0.00,,,0.00,VWS V14.01,2013-04-01 12:42:00,
2013-04-01 07:43:00,19.6,-0.3,30.06,NNW,338,10.7,10.7,41,0.00,,,0.00,VWS V14.01,2013-04-01 12:43:00,
2013-04-01 07:44:00,19.6,-0.3,30.06,NNW,338,7.4,7.4,41,0.00,,,0.00,VWS V14.01,2013-04-01 12:44:00,
2013-04-01 07:45:00,19.8,-0.1,30.06,ENE,68,10.1,10.1,41,0.00,,,0.00,VWS V14.01,2013-04-01 12:45:00,
2013-04-01 07:46:00,19.8,-0.1,30.06,NNW,338,9.4,9.4,41,0.00,,,0.00,VWS V14.01,2013-04-01 12:46:00,
2013-04-01 07:47:00,19.8,-0.1,30.06,NW,315,9.4,9.4,41,0.00,,,0.00,VWS V14.01,2013-04-01 12:47:00,
2013-04-01 07:48:00,19.8,-0.6,30.06,NW,315,12.1,12.1,40,0.00,,,0.00,VWS V14.01,2013-04-01 12:48:00,
2013-04-01 07:49:00,19.9,-0.5,30.06,NNW,338,12.8,12.8,40,0.00,,,0.00,VWS V14.01,2013-04-01 12:49:00,
2013-04-01 07:50:00,19.8,-1.2,30.06,SSW,202,11.4,11.4,39,0.00,,,0.00,VWS V14.01,2013-04-01 12:50:00,
2013-04-01 07:51:00,19.9,-1.0,30.06,NW,315,9.4,9.4,39,0.00,,,0.00,VWS V14.01,2013-04-01 12:51:00,
2013-04-01 07:52:00,19.8,-1.2,30.06,WSW,248,16.1,16.1,39,0.00,,,0.00,VWS V14.01,2013-04-01 12:52:00,
2013-04-01 07:53:00,19.8,-1.2,30.06,NNW,338,10.1,10.1,39,0.00,,,0.00,VWS V14.01,2013-04-01 12:53:00,
2013-04-01 07:54:00,19.8,-1.2,30.06,NNW,338,9.4,9.4,39,0.00,,,0.00,VWS V14.01,2013-04-01 12:54:00,
2013-04-01 07:55:00,19.8,-1.2,30.06,NW,315,10.7,10.7,39,0.00,,,0.00,VWS V14.01,2013-04-01 12:55:00,
2013-04-01 07:56:00,19.8,-1.2,30.06,ENE,68,8.1,8.1,39,0.00,,,0.00,VWS V14.01,2013-04-01 12:56:00,
2013-04-01 07:57:00,19.6,-1.3,30.06,North,0,12.8,12.8,39,0.00,,,0.00,VWS V14.01,2013-04-01 12:57:00,
2013-04-01 07:58:00,19.6,-1.3,30.06,NW,315,11.4,11.4,39,0.00,,,0.00,VWS V14.01,2013-04-01 12:58:00,
2013-04-01 07:59:00,19.6,-1.3,30.06,NW,315,9.4,9.4,39,0.00,,,0.00,VWS V14.01,2013-04-01 12:59:00,
2013-04-01 08:00:00,19.8,-1.2,30.06,NNW,338,9.4,9.4,39,0.00,,,0.00,VWS V14.01,2013-04-01 13:00:00,
2013-04-01 08:01:00,19.8,-1.2,30.06,North,0,14.1,14.1,39,0.00,,,0.00,VWS V14.01,2013-04-01 13:01:00,
2013-04-01 08:02:00,19.8,-1.2,30.06,NNW,338,8.1,8.1,39,0.00,,,0.00,VWS V14.01,2013-04-01 13:02:00,
2013-04-01 08:03:00,19.9,-1.0,30.06,NW,315,8.1,8.1,39,0.00,,,0.00,VWS V14.01,2013-04-01 13:03:00,
2013-04-01 08:04:00,19.9,-1.0,30.06,NNW,338,4.0,4.0,39,0.00,,,0.00,VWS V14.01,2013-04-01 13:04:00,
2013-04-01 08:05:00,20.1,-0.3,30.06,ESE,112,8.1,8.1,40,0.00,,,0.00,VWS V14.01,2013-04-01 13:05:00,
2013-04-01 08:06:00,20.1,-0.9,30.06,SW,225,10.7,10.7,39,0.00,,,0.00,VWS V14.01,2013-04-01 13:06:00,
2013-04-01 08:07:00,19.9,-1.0,30.06,NNE,22,16.8,16.8,39,0.00,,,0.00,VWS V14.01,2013-04-01 13:07:00,
2013-04-01 08:08:00,19.9,-1.0,30.06,NNE,22,8.1,8.1,39,0.00,,,0.00,VWS V14.01,2013-04-01 13:08:00,
2013-04-01 08:09:00,19.9,-1.0,30.06,WSW,248,17.5,17.5,39,0.00,,,0.00,VWS V14.01,2013-04-01 13:09:00,
2013-04-01 08:10:00,19.9,-1.0,30.06,NNW,338,11.4,11.4,39,0.00,,,0.00,VWS V14.01,2013-04-01 13:10:00,
2013-04-01 08:11:00,19.8,-1.2,30.06,NNW,338,10.1,10.1,39,0.00,,,0.00,VWS V14.01,2013-04-01 13:11:00,
2013-04-01 08:12:00,19.8,-1.2,30.06,NNW,338,12.8,12.8,39,0.00,,,0.00,VWS V14.01,2013-04-01 13:12:00,
2013-04-01 08:13:00,19.8,-1.2,30.06,North,0,11.4,11.4,39,0.00,,,0.00,VWS V14.01,2013-04-01 13:13:00,
2013-04-01 08:14:00,19.8,-1.2,30.06,WNW,292,8.7,8.7,39,0.00,,,0.00,VWS V14.01,2013-04-01 13:14:00,
2013-04-01 08:15:00,19.6,-1.3,30.06,NNW,338,8.1,8.1,39,0.00,,,0.00,VWS V14.01,2013-04-01 13:15:00,
2013-04-01 08:16:00,19.8,-1.2,30.06,ENE,68,9.4,9.4,39,0.00,,,0.00,VWS V14.01,2013-04-01 13:16:00,
2013-04-01 08:17:00,19.9,-1.0,30.06,North,0,10.1,10.1,39,0.00,,,0.00,VWS V14.01,2013-04-01 13:17:00,
2013-04-01 08:18:00,19.9,-1.0,30.06,SW,225,17.5,17.5,39,0.00,,,0.00,VWS V14.01,2013-04-01 13:18:00,
2013-04-01 08:19:00,20.1,-0.9,30.06,NNE,22,6.0,6.0,39,0.00,,,0.00,VWS V14.01,2013-04-01 13:19:00,
2013-04-01 08:20:00,20.1,-0.9,30.06,ENE,68,10.7,10.7,39,0.00,,,0.00,VWS V14.01,2013-04-01 13:20:00,
2013-04-01 08:21:00,20.3,-1.2,30.06,NNW,338,14.1,14.1,38,0.00,,,0.00,VWS V14.01,2013-04-01 13:21:00,
2013-04-01 08:22:00,20.3,-1.2,30.06,NNW,338,8.7,8.7,38,0.00,,,0.00,VWS V14.01,2013-04-01 13:22:00,
2013-04-01 08:23:00,20.5,-1.1,30.06,NNW,338,20.1,20.1,38,0.00,,,0.00,VWS V14.01,2013-04-01 13:23:00,
2013-04-01 08:24:00,20.7,-0.9,30.06,WNW,292,14.8,14.8,38,0.00,,,0.00,VWS V14.01,2013-04-01 13:24:00,
2013-04-01 08:25:00,20.7,-0.9,30.06,NNW,338,10.7,10.7,38,0.00,,,0.00,VWS V14.01,2013-04-01 13:25:00,
2013-04-01 08:26:00,20.8,-0.8,30.03,North,0,10.7,10.7,38,0.00,,,0.00,VWS V14.01,2013-04-01 13:26:00,
2013-04-01 08:27:00,20.8,-0.8,30.03,NW,315,17.5,17.5,38,0.00,,,0.00,VWS V14.01,2013-04-01 13:27:00,
2013-04-01 08:28:00,21.0,-1.2,30.03,NW,315,12.8,12.8,37,0.00,,,0.00,VWS V14.01,2013-04-01 13:28:00,
2013-04-01 08:29:00,21.2,-1.0,30.03,WNW,292,11.4,11.4,37,0.00,,,0.00,VWS V14.01,2013-04-01 13:29:00,
2013-04-01 08:30:00,21.2,-1.0,30.03,NW,315,23.5,23.5,37,0.00,,,0.00,VWS V14.01,2013-04-01 13:30:00,
2013-04-01 08:31:00,21.2,-1.0,30.03,NW,315,13.4,13.4,37,0.00,,,0.00,VWS V14.01,2013-04-01 13:31:00,
2013-04-01 08:32:00,21.2,-1.0,30.03,North,0,10.7,10.7,37,0.00,,,0.00,VWS V14.01,2013-04-01 13:32:00,
2013-04-01 08:33:00,21.2,-1.0,30.03,North,0,12.1,12.1,37,0.00,,,0.00,VWS V14.01,2013-04-01 13:33:00,
2013-04-01 08:34:00,21.4,-0.8,30.03,WNW,292,8.1,8.1,37,0.00,,,0.00,VWS V14.01,2013-04-01 13:34:00,
2013-04-01 08:35:00,21.4,-0.8,30.03,NNW,338,8.1,8.1,37,0.00,,,0.00,VWS V14.01,2013-04-01 13:35:00,
2013-04-01 08:36:00,21.6,-1.2,30.03,NNW,338,12.8,12.8,36,0.00,,,0.00,VWS V14.01,2013-04-01 13:36:00,
2013-04-01 08:37:00,21.6,-1.2,30.03,NNE,22,11.4,11.4,36,0.00,,,0.00,VWS V14.01,2013-04-01 13:37:00,
2013-04-01 08:38:00,21.7,-1.1,30.03,NNW,338,8.1,8.1,36,0.00,,,0.00,VWS V14.01,2013-04-01 13:38:00,
2013-04-01 08:39:00,21.9,-0.9,30.03,NW,315,16.8,16.8,36,0.00,,,0.00,VWS V14.01,2013-04-01 13:39:00,
2013-04-01 08:40:00,21.9,-0.9,30.03,WNW,292,8.1,8.1,36,0.00,,,0.00,VWS V14.01,2013-04-01 13:40:00,
2013-04-01 08:41:00,22.1,-0.8,30.03,NNW,338,8.1,8.1,36,0.00,,,0.00,VWS V14.01,2013-04-01 13:41:00,
2013-04-01 08:42:00,22.5,-0.4,30.03,NW,315,4.7,4.7,36,0.00,,,0.00,VWS V14.01,2013-04-01 13:42:00,
2013-04-01 08:43:00,22.8,-0.1,30.03,North,0,9.4,9.4,36,0.00,,,0.00,VWS V14.01,2013-04-01 13:43:00,
2013-04-01 08:44:00,22.8,-0.1,30.03,NNW,338,6.0,6.0,36,0.00,,,0.00,VWS V14.01,2013-04-01 13:44:00,
2013-04-01 08:45:00,23.0,0.0,30.03,NNE,22,8.7,8.7,36,0.00,,,0.00,VWS V14.01,2013-04-01 13:45:00,
2013-04-01 08:46:00,23.0,0.0,30.03,NE,45,12.1,12.1,36,0.00,,,0.00,VWS V14.01,2013-04-01 13:46:00,
2013-04-01 08:47:00,23.0,0.0,30.03,NNW,338,10.1,10.1,36,0.00,,,0.00,VWS V14.01,2013-04-01 13:47:00,
2013-04-01 08:48:00,23.0,0.0,30.03,North,0,11.4,11.4,36,0.00,,,0.00,VWS V14.01,2013-04-01 13:48:00,
2013-04-01 08:49:00,22.8,-0.1,30.03,NNW,338,11.4,11.4,36,0.00,,,0.00,VWS V14.01,2013-04-01 13:49:00,
2013-04-01 08:50:00,22.8,-0.1,30.03,NNE,22,6.0,6.0,36,0.00,,,0.00,VWS V14.01,2013-04-01 13:50:00,
2013-04-01 08:51:00,23.0,0.0,30.03,WSW,248,7.4,7.4,36,0.00,,,0.00,VWS V14.01,2013-04-01 13:51:00,
2013-04-01 08:52:00,23.0,0.0,30.03,WNW,292,10.1,10.1,36,0.00,,,0.00,VWS V14.01,2013-04-01 13:52:00,
2013-04-01 08:53:00,23.0,0.0,30.03,North,0,4.7,4.7,36,0.00,,,0.00,VWS V14.01,2013-04-01 13:53:00,
2013-04-01 08:54:00,23.0,0.0,30.03,NW,315,8.1,8.1,36,0.00,,,0.00,VWS V14.01,2013-04-01 13:54:00,
2013-04-01 08:55:00,23.2,-0.4,30.03,NW,315,6.0,6.0,35,0.00,,,0.00,VWS V14.01,2013-04-01 13:55:00,
2013-04-01 08:56:00,23.2,-0.4,30.03,WNW,292,11.4,11.4,35,0.00,,,0.00,VWS V14.01,2013-04-01 13:56:00,
2013-04-01 08:57:00,23.2,-0.4,30.03,NNW,338,18.8,18.8,35,0.00,,,0.00,VWS V14.01,2013-04-01 13:57:00,
2013-04-01 08:58:00,23.2,-0.4,30.03,North,0,16.8,16.8,35,0.00,,,0.00,VWS V14.01,2013-04-01 13:58:00,
2013-04-01 08:59:00,23.2,-0.4,30.03,NW,315,10.1,10.1,35,0.00,,,0.00,VWS V14.01,2013-04-01 13:59:00,
2013-04-01 09:00:00,23.2,-0.4,30.03,NNE,22,6.0,6.0,35,0.00,,,0.00,VWS V14.01,2013-04-01 14:00:00,
2013-04-01 09:01:00,23.4,-0.2,30.03,NNW,338,8.7,8.7,35,0.00,,,0.00,VWS V14.01,2013-04-01 14:01:00,
2013-04-01 09:02:00,23.5,-0.1,30.03,WSW,248,8.7,8.7,35,0.00,,,0.00,VWS V14.01,2013-04-01 14:02:00,
2013-04-01 09:03:00,23.5,-0.1,30.03,NNW,338,7.4,7.4,35,0.00,,,0.00,VWS V14.01,2013-04-01 14:03:00,
2013-04-01 09:04:00,23.7,0.1,30.03,NNW,338,12.8,12.8,35,0.00,,,0.00,VWS V14.01,2013-04-01 14:04:00,
2013-04-01 09:05:00,23.5,-0.7,30.03,NW,315,8.1,8.1,34,0.00,,,0.00,VWS V14.01,2013-04-01 14:05:00,
2013-04-01 09:06:00,23.5,-0.7,30.03,SSW,202,8.1,8.1,34,0.00,,,0.00,VWS V14.01,2013-04-01 14:06:00,
2013-04-01 09:07:00,23.4,-0.9,30.03,NNW,338,25.5,25.5,34,0.00,,,0.00,VWS V14.01,2013-04-01 14:07:00,
2013-04-01 09:08:00,23.5,-0.7,30.03,NNW,338,7.4,8.5,34,0.00,,,0.00,VWS V14.01,2013-04-01 14:08:00,
2013-04-01 09:09:00,23.5,-0.7,30.03,NNW,338,14.8,14.8,34,0.00,,,0.00,VWS V14.01,2013-04-01 14:09:00,
2013-04-01 09:10:00,23.4,-0.9,30.03,WNW,292,16.1,16.1,34,0.00,,,0.00,VWS V14.01,2013-04-01 14:10:00,
2013-04-01 09:11:00,23.5,-0.7,30.06,NNW,338,10.1,10.1,34,0.00,,,0.00,VWS V14.01,2013-04-01 14:11:00,
2013-04-01 09:12:00,23.7,-0.5,30.06,NNW,338,16.8,16.8,34,0.00,,,0.00,VWS V14.01,2013-04-01 14:12:00,
2013-04-01 09:13:00,23.9,-0.4,30.06,WNW,292,9.4,9.4,34,0.00,,,0.00,VWS V14.01,2013-04-01 14:13:00,
2013-04-01 09:14:00,24.3,-0.1,30.06,NNE,22,10.1,10.1,34,0.00,,,0.00,VWS V14.01,2013-04-01 14:14:00,
2013-04-01 09:15:00,24.4,0.1,30.06,NNW,338,12.1,12.1,34,0.00,,,0.00,VWS V14.01,2013-04-01 14:15:00,
2013-04-01 09:16:00,24.4,0.1,30.06,NNE,22,10.7,10.7,34,0.00,,,0.00,VWS V14.01,2013-04-01 14:16:00,
2013-04-01 09:17:00,24.6,0.3,30.06,NNW,338,12.8,12.8,34,0.00,,,0.00,VWS V14.01,2013-04-01 14:17:00,
2013-04-01 09:18:00,24.8,0.4,30.06,NNW,338,8.7,8.7,34,0.00,,,0.00,VWS V14.01,2013-04-01 14:18:00,
2013-04-01 09:19:00,25.2,0.8,30.06,North,0,8.1,8.1,34,0.00,,,0.00,VWS V14.01,2013-04-01 14:19:00,
2013-04-01 09:20:00,25.2,0.8,30.06,North,0,14.8,14.8,34,0.00,,,0.00,VWS V14.01,2013-04-01 14:20:00,
2013-04-01 09:21:00,25.3,0.9,30.06,North,0,8.1,8.1,34,0.00,,,0.00,VWS V14.01,2013-04-01 14:21:00,
2013-04-01 09:22:00,25.7,1.2,30.06,NNW,338,4.7,4.7,34,0.00,,,0.00,VWS V14.01,2013-04-01 14:22:00,
2013-04-01 09:23:00,26.1,1.5,30.06,NNE,22,6.0,6.0,34,0.00,,,0.00,VWS V14.01,2013-04-01 14:23:00,
2013-04-01 09:24:00,26.1,1.5,30.06,NNW,338,6.0,6.0,34,0.00,,,0.00,VWS V14.01,2013-04-01 14:24:00,
2013-04-01 09:25:00,26.2,1.7,30.06,NW,315,14.1,14.1,34,0.00,,,0.00,VWS V14.01,2013-04-01 14:25:00,
2013-04-01 09:26:00,26.2,1.1,30.06,NNW,338,6.0,6.0,33,0.00,,,0.00,VWS V14.01,2013-04-01 14:26:00,
2013-04-01 09:27:00,26.4,1.2,30.06,NW,315,8.1,8.1,33,0.00,,,0.00,VWS V14.01,2013-04-01 14:27:00,
2013-04-01 09:28:00,26.6,1.4,30.06,NNW,338,14.1,14.1,33,0.00,,,0.00,VWS V14.01,2013-04-01 14:28:00,
2013-04-01 09:29:00,26.4,1.2,30.06,NNW,338,14.8,14.8,33,0.00,,,0.00,VWS V14.01,2013-04-01 14:29:00,
2013-04-01 09:30:00,26.1,0.9,30.06,NNW,338,14.8,14.8,33,0.00,,,0.00,VWS V14.01,2013-04-01 14:30:00,
2013-04-01 09:31:00,26.1,0.9,30.06,NNW,338,8.7,8.7,33,0.00,,,0.00,VWS V14.01,2013-04-01 14:31:00,
2013-04-01 09:32:00,26.2,1.1,30.06,NW,315,9.4,9.4,33,0.00,,,0.00,VWS V14.01,2013-04-01 14:32:00,
2013-04-01 09:33:00,26.1,0.9,30.06,ESE,112,8.1,8.1,33,0.00,,,0.00,VWS V14.01,2013-04-01 14:33:00,
2013-04-01 09:34:00,26.1,0.9,30.06,WSW,248,16.1,16.1,33,0.00,,,0.00,VWS V14.01,2013-04-01 14:34:00,
2013-04-01 09:35:00,26.2,0.4,30.06,North,0,9.4,9.4,32,0.00,,,0.00,VWS V14.01,2013-04-01 14:35:00,
2013-04-01 09:36:00,26.4,0.6,30.06,NNW,338,14.1,14.1,32,0.00,,,0.00,VWS V14.01,2013-04-01 14:36:00,
2013-04-01 09:37:00,26.8,0.9,30.06,NW,315,10.1,10.1,32,0.00,,,0.00,VWS V14.01,2013-04-01 14:37:00,
2013-04-01 09:38:00,27.0,1.0,30.06,NE,45,9.4,9.4,32,0.00,,,0.00,VWS V14.01,2013-04-01 14:38:00,
2013-04-01 09:39:00,27.1,1.2,30.06,NNW,338,9.4,9.4,32,0.00,,,0.00,VWS V14.01,2013-04-01 14:39:00,
2013-04-01 09:40:00,27.3,1.4,30.06,NNE,22,10.7,10.7,32,0.00,,,0.00,VWS V14.01,2013-04-01 14:40:00,
2013-04-01 09:41:00,27.5,1.5,30.09,NNW,338,17.5,17.5,32,0.00,,,0.00,VWS V14.01,2013-04-01 14:41:00,
2013-04-01 09:42:00,27.7,1.7,30.09,NNE,22,12.1,12.1,32,0.00,,,0.00,VWS V14.01,2013-04-01 14:42:00,
2013-04-01 09:43:00,27.7,1.7,30.09,NNE,22,7.4,7.4,32,0.00,,,0.00,VWS V14.01,2013-04-01 14:43:00,
2013-04-01 09:44:00,28.0,2.0,30.09,NNW,338,8.7,8.7,32,0.00,,,0.00,VWS V14.01,2013-04-01 14:44:00,
2013-04-01 09:45:00,28.0,2.0,30.09,NNW,338,8.7,8.7,32,0.00,,,0.00,VWS V14.01,2013-04-01 14:45:00,
2013-04-01 09:46:00,28.0,2.0,30.09,NNW,338,8.7,8.7,32,0.00,,,0.00,VWS V14.01,2013-04-01 14:46:00,
2013-04-01 09:47:00,28.0,2.0,30.09,NNW,338,8.7,8.7,32,0.00,,,0.00,VWS V14.01,2013-04-01 14:47:00,
2013-04-01 09:48:00,27.9,1.8,30.09,NW,315,17.5,17.5,32,0.00,,,0.00,VWS V14.01,2013-04-01 14:48:00,
2013-04-01 09:49:00,28.0,2.0,30.09,NW,315,8.1,8.1,32,0.00,,,0.00,VWS V14.01,2013-04-01 14:49:00,
2013-04-01 09:50:00,28.4,1.6,30.09,NW,315,8.1,8.1,31,0.00,,,0.00,VWS V14.01,2013-04-01 14:50:00,
2013-04-01 09:51:00,28.6,1.8,30.09,NNE,22,8.1,8.1,31,0.00,,,0.00,VWS V14.01,2013-04-01 14:51:00,
2013-04-01 09:52:00,28.9,2.1,30.09,NNW,338,7.4,7.4,31,0.00,,,0.00,VWS V14.01,2013-04-01 14:52:00,
2013-04-01 09:53:00,29.1,2.3,30.09,NW,315,12.1,12.1,31,0.00,,,0.00,VWS V14.01,2013-04-01 14:53:00,
2013-04-01 09:54:00,29.1,2.3,30.09,NW,315,12.1,12.1,31,0.00,,,0.00,VWS V14.01,2013-04-01 14:54:00,
2013-04-01 09:55:00,29.3,2.4,30.09,NW,315,12.1,12.1,31,0.00,,,0.00,VWS V14.01,2013-04-01 14:55:00,
2013-04-01 09:56:00,29.5,2.6,30.03,NW,315,12.1,12.1,31,0.00,,,0.00,VWS V14.01,2013-04-01 14:56:00,
2013-04-01 09:57:00,29.8,2.9,30.03,NE,45,10.7,10.7,31,0.00,,,0.00,VWS V14.01,2013-04-01 14:57:00,
2013-04-01 09:58:00,30.0,3.1,30.03,NE,45,10.7,10.7,31,0.00,,,0.00,VWS V14.01,2013-04-01 14:58:00,
2013-04-01 09:59:00,30.6,3.5,30.03,NE,45,10.7,10.7,31,0.00,,,0.00,VWS V14.01,2013-04-01 14:59:00,
2013-04-01 10:00:00,30.4,2.7,30.03,NE,45,10.7,10.7,30,0.00,,,0.00,VWS V14.01,2013-04-01 15:00:00,
2013-04-01 10:01:00,30.2,3.2,30.03,NE,45,10.7,10.7,31,0.00,,,0.00,VWS V14.01,2013-04-01 15:01:00,
2013-04-01 10:02:00,30.4,2.7,30.03,NE,45,10.7,10.7,30,0.00,,,0.00,VWS V14.01,2013-04-01 15:02:00,
2013-04-01 10:03:00,30.7,3.0,30.03,NE,45,10.7,10.7,30,0.00,,,0.00,VWS V14.01,2013-04-01 15:03:00,
2013-04-01 10:04:00,30.7,3.0,30.03,NE,45,10.7,10.7,30,0.00,,,0.00,VWS V14.01,2013-04-01 15:04:00,
2013-04-01 10:05:00,30.7,3.0,30.03,NE,45,10.7,10.7,30,0.00,,,0.00,VWS V14.01,2013-04-01 15:05:00,
2013-04-01 10:06:00,30.7,3.0,30.03,NW,315,9.4,9.4,30,0.00,,,0.00,VWS V14.01,2013-04-01 15:06:00,
2013-04-01 10:07:00,30.6,2.8,30.03,NW,315,9.4,9.4,30,0.00,,,0.00,VWS V14.01,2013-04-01 15:07:00,
2013-04-01 10:08:00,31.3,3.5,30.03,NW,315,9.4,9.4,30,0.00,,,0.00,VWS V14.01,2013-04-01 15:08:00,
2013-04-01 10:09:00,31.3,3.5,30.03,NW,315,9.4,9.4,30,0.00,,,0.00,VWS V14.01,2013-04-01 15:09:00,
2013-04-01 10:10:00,31.6,3.8,30.03,NW,315,9.4,9.4,30,0.00,,,0.00,VWS V14.01,2013-04-01 15:10:00,
2013-04-01 10:11:00,31.8,3.9,30.09,NW,315,9.4,9.4,30,0.00,,,0.00,VWS V14.01,2013-04-01 15:11:00,
2013-04-01 10:12:00,32.0,4.1,30.09,NW,315,9.4,9.4,30,0.00,,,0.00,VWS V14.01,2013-04-01 15:12:00,
2013-04-01 10:13:00,32.2,4.2,30.09,NW,315,9.4,9.4,30,0.00,,,0.00,VWS V14.01,2013-04-01 15:13:00,
2013-04-01 10:14:00,31.6,3.8,30.09,NW,315,9.4,9.4,30,0.00,,,0.00,VWS V14.01,2013-04-01 15:14:00,
2013-04-01 10:15:00,31.8,3.9,30.09,NW,315,9.4,9.4,30,0.00,,,0.00,VWS V14.01,2013-04-01 15:15:00,
2013-04-01 10:16:00,32.2,4.2,30.09,NNW,338,10.1,10.1,30,0.00,,,0.00,VWS V14.01,2013-04-01 15:16:00,
2013-04-01 10:17:00,32.0,4.1,30.09,NNW,338,10.1,10.1,30,0.00,,,0.00,VWS V14.01,2013-04-01 15:17:00,
2013-04-01 10:18:00,32.4,4.4,30.09,NNW,338,10.7,10.7,30,0.00,,,0.00,VWS V14.01,2013-04-01 15:18:00,
2013-04-01 10:19:00,32.5,4.6,30.09,NNW,338,8.1,8.1,30,0.00,,,0.00,VWS V14.01,2013-04-01 15:19:00,
2013-04-01 10:20:00,32.7,4.7,30.09,WNW,292,8.7,8.7,30,0.00,,,0.00,VWS V14.01,2013-04-01 15:20:00,
2013-04-01 10:21:00,32.7,3.2,30.09,NNW,338,4.7,4.7,28,0.00,,,0.00,VWS V14.01,2013-04-01 15:21:00,
2013-04-01 10:22:00,33.3,5.2,30.09,North,0,6.7,6.7,30,0.00,,,0.00,VWS V14.01,2013-04-01 15:22:00,
2013-04-01 10:23:00,33.4,5.3,30.09,North,0,8.7,8.7,30,0.00,,,0.00,VWS V14.01,2013-04-01 15:23:00,
2013-04-01 10:24:00,33.8,5.7,30.09,North,0,8.7,8.7,30,0.00,,,0.00,VWS V14.01,2013-04-01 15:24:00,
2013-04-01 10:25:00,33.4,3.8,30.09,North,0,8.7,8.7,28,0.00,,,0.00,VWS V14.01,2013-04-01 15:25:00,
2013-04-01 10:26:00,33.3,3.7,30.06,North,0,8.7,8.7,28,0.00,,,0.00,VWS V14.01,2013-04-01 15:26:00,
2013-04-01 10:27:00,33.1,3.5,30.06,NW,315,7.4,7.4,28,0.00,,,0.00,VWS V14.01,2013-04-01 15:27:00,
2013-04-01 10:28:00,32.9,3.4,30.06,NNE,22,8.1,8.1,28,0.00,,,0.00,VWS V14.01,2013-04-01 15:28:00,
2013-04-01 10:29:00,33.3,3.7,30.06,SSW,202,12.1,12.1,28,0.00,,,0.00,VWS V14.01,2013-04-01 15:29:00,
2013-04-01 10:30:00,33.8,3.4,30.06,NNW,338,4.0,7.4,27,0.00,,,0.00,VWS V14.01,2013-04-01 15:30:00,
2013-04-01 10:31:00,33.8,3.4,30.06,North,0,7.4,7.4,27,0.00,,,0.00,VWS V14.01,2013-04-01 15:31:00,
2013-04-01 10:32:00,33.8,3.4,30.06,NNW,338,18.1,18.1,27,0.00,,,0.00,VWS V14.01,2013-04-01 15:32:00,
2013-04-01 10:33:00,34.0,3.5,30.06,SSE,158,12.8,12.8,27,0.00,,,0.00,VWS V14.01,2013-04-01 15:33:00,
2013-04-01 10:34:00,34.5,4.0,30.06,NE,45,8.1,8.1,27,0.00,,,0.00,VWS V14.01,2013-04-01 15:34:00,
2013-04-01 10:35:00,34.9,4.3,30.06,NNE,22,11.4,11.4,27,0.00,,,0.00,VWS V14.01,2013-04-01 15:35:00,
2013-04-01 10:36:00,34.9,4.3,30.06,NNW,338,11.4,11.4,27,0.00,,,0.00,VWS V14.01,2013-04-01 15:36:00,
2013-04-01 10:37:00,35.1,4.5,30.06,NNW,338,6.7,6.7,27,0.00,,,0.00,VWS V14.01,2013-04-01 15:37:00,
2013-04-01 10:38:00,35.1,4.5,30.06,NNW,338,7.4,7.4,27,0.00,,,0.00,VWS V14.01,2013-04-01 15:38:00,
2013-04-01 10:39:00,35.6,4.9,30.06,NNE,22,9.4,9.4,27,0.00,,,0.00,VWS V14.01,2013-04-01 15:39:00,
2013-04-01 10:40:00,35.8,5.1,30.06,NNE,22,8.7,8.7,27,0.00,,,0.00,VWS V14.01,2013-04-01 15:40:00,
2013-04-01 10:41:00,36.0,5.2,30.06,NE,45,8.1,8.1,27,0.00,,,0.00,VWS V14.01,2013-04-01 15:41:00,
2013-04-01 10:42:00,36.0,5.2,30.06,North,0,16.8,16.8,27,0.00,,,0.00,VWS V14.01,2013-04-01 15:42:00,
2013-04-01 10:43:00,35.8,2.5,30.06,NNE,22,10.1,10.1,24,0.00,,,0.00,VWS V14.01,2013-04-01 15:43:00,
2013-04-01 10:44:00,35.8,2.5,30.06,NW,315,6.7,6.7,24,0.00,,,0.00,VWS V14.01,2013-04-01 15:44:00,
2013-04-01 10:45:00,36.1,2.8,30.06,NNE,22,12.1,12.1,24,0.00,,,0.00,VWS V14.01,2013-04-01 15:45:00,
2013-04-01 10:46:00,35.8,2.5,30.06,North,0,10.1,10.1,24,0.00,,,0.00,VWS V14.01,2013-04-01 15:46:00,
2013-04-01 10:47:00,36.1,2.8,30.06,NNW,338,14.1,14.1,24,0.00,,,0.00,VWS V14.01,2013-04-01 15:47:00,
2013-04-01 10:48:00,35.8,2.5,30.06,NNE,22,16.8,16.8,24,0.00,,,0.00,VWS V14.01,2013-04-01 15:48:00,
2013-04-01 10:49:00,36.0,2.7,30.06,North,0,9.4,9.4,24,0.00,,,0.00,VWS V14.01,2013-04-01 15:49:00,
2013-04-01 10:50:00,36.1,2.8,30.06,NNW,338,16.8,16.8,24,0.00,,,0.00,VWS V14.01,2013-04-01 15:50:00,
2013-04-01 10:51:00,36.0,2.7,30.06,North,0,7.4,7.4,24,0.00,,,0.00,VWS V14.01,2013-04-01 15:51:00,
2013-04-01 10:52:00,36.1,2.8,30.06,North,0,10.1,10.1,24,0.00,,,0.00,VWS V14.01,2013-04-01 15:52:00,
2013-04-01 10:53:00,36.5,3.2,30.06,NNE,22,8.7,8.7,24,0.00,,,0.00,VWS V14.01,2013-04-01 15:53:00,
2013-04-01 10:54:00,36.3,3.0,30.06,NNE,22,16.1,16.1,24,0.00,,,0.00,VWS V14.01,2013-04-01 15:54:00,
2013-04-01 10:55:00,36.7,3.3,30.06,NNW,338,12.8,12.8,24,0.00,,,0.00,VWS V14.01,2013-04-01 15:55:00,
2013-04-01 10:56:00,36.7,3.3,30.09,NNW,338,24.2,24.2,24,0.00,,,0.00,VWS V14.01,2013-04-01 15:56:00,
2013-04-01 10:57:00,36.5,3.2,30.09,NE,45,7.4,8.1,24,0.00,,,0.00,VWS V14.01,2013-04-01 15:57:00,
2013-04-01 10:58:00,36.7,3.3,30.09,NW,315,4.0,5.4,24,0.00,,,0.00,VWS V14.01,2013-04-01 15:58:00,
2013-04-01 10:59:00,36.9,3.5,30.09,NNW,338,10.1,10.1,24,0.00,,,0.00,VWS V14.01,2013-04-01 15:59:00,
2013-04-01 11:00:00,36.5,1.3,30.09,NW,315,6.0,6.0,22,0.00,,,0.00,VWS V14.01,2013-04-01 16:00:00,
2013-04-01 11:01:00,36.3,1.1,30.09,NNE,22,11.4,11.4,22,0.00,,,0.00,VWS V14.01,2013-04-01 16:01:00,
2013-04-01 11:02:00,36.0,0.8,30.09,NE,45,14.8,14.8,22,0.00,,,0.00,VWS V14.01,2013-04-01 16:02:00,
2013-04-01 11:03:00,36.7,3.3,30.09,NW,315,4.7,4.9,24,0.00,,,0.00,VWS V14.01,2013-04-01 16:03:00,
2013-04-01 11:04:00,37.2,3.8,30.09,WSW,248,18.1,18.1,24,0.00,,,0.00,VWS V14.01,2013-04-01 16:04:00,
2013-04-01 11:05:00,37.0,3.6,30.09,NNW,338,16.1,16.1,24,0.00,,,0.00,VWS V14.01,2013-04-01 16:05:00,
2013-04-01 11:06:00,36.9,1.6,30.09,North,0,14.8,14.8,22,0.00,,,0.00,VWS V14.01,2013-04-01 16:06:00,
2013-04-01 11:07:00,36.3,1.1,30.09,NNW,338,12.8,12.8,22,0.00,,,0.00,VWS V14.01,2013-04-01 16:07:00,
2013-04-01 11:08:00,36.7,1.4,30.09,NE,45,7.4,7.4,22,0.00,,,0.00,VWS V14.01,2013-04-01 16:08:00,
2013-04-01 11:09:00,36.7,1.4,30.09,WSW,248,22.2,22.2,22,0.00,,,0.00,VWS V14.01,2013-04-01 16:09:00,
2013-04-01 11:10:00,36.9,1.6,30.09,SW,225,11.4,11.4,22,0.00,,,0.00,VWS V14.01,2013-04-01 16:10:00,
2013-04-01 11:11:00,37.4,1.0,30.06,WSW,248,7.4,7.4,21,0.00,,,0.00,VWS V14.01,2013-04-01 16:11:00,
2013-04-01 11:12:00,37.4,1.0,30.06,West,270,14.8,14.8,21,0.00,,,0.00,VWS V14.01,2013-04-01 16:12:00,
2013-04-01 11:13:00,37.2,1.9,30.06,SSW,202,10.1,10.1,22,0.00,,,0.00,VWS V14.01,2013-04-01 16:13:00,
2013-04-01 11:14:00,37.0,1.7,30.06,WSW,248,12.8,12.8,22,0.00,,,0.00,VWS V14.01,2013-04-01 16:14:00,
2013-04-01 11:15:00,37.0,1.7,30.06,WNW,292,6.7,6.7,22,0.00,,,0.00,VWS V14.01,2013-04-01 16:15:00,
2013-04-01 11:16:00,37.0,1.7,30.06,NNW,338,8.7,8.7,22,0.00,,,0.00,VWS V14.01,2013-04-01 16:16:00,
2013-04-01 11:17:00,36.7,1.4,30.06,NW,315,8.7,8.7,22,0.00,,,0.00,VWS V14.01,2013-04-01 16:17:00,
2013-04-01 11:18:00,36.7,1.4,30.06,NNE,22,10.1,10.1,22,0.00,,,0.00,VWS V14.01,2013-04-01 16:18:00,
2013-04-01 11:19:00,36.9,1.6,30.06,NW,315,9.4,9.4,22,0.00,,,0.00,VWS V14.01,2013-04-01 16:19:00,
2013-04-01 11:20:00,36.9,1.6,30.06,ESE,112,7.4,7.4,22,0.00,,,0.00,VWS V14.01,2013-04-01 16:20:00,
2013-04-01 11:21:00,36.5,1.3,30.06,West,270,13.4,13.4,22,0.00,,,0.00,VWS V14.01,2013-04-01 16:21:00,
2013-04-01 11:22:00,36.3,1.1,30.06,NW,315,16.1,16.1,22,0.00,,,0.00,VWS V14.01,2013-04-01 16:22:00,
2013-04-01 11:23:00,36.7,1.4,30.06,NNW,338,16.8,16.8,22,0.00,,,0.00,VWS V14.01,2013-04-01 16:23:00,
2013-04-01 11:24:00,37.0,1.7,30.06,SSW,202,16.8,16.8,22,0.00,,,0.00,VWS V14.01,2013-04-01 16:24:00,
2013-04-01 11:25:00,37.0,1.7,30.06,NNE,22,8.7,8.7,22,0.00,,,0.00,VWS V14.01,2013-04-01 16:25:00,
2013-04-01 11:26:00,36.5,1.3,30.06,West,270,8.1,8.1,22,0.00,,,0.00,VWS V14.01,2013-04-01 16:26:00,
2013-04-01 11:27:00,37.0,1.7,30.06,West,270,16.1,16.1,22,0.00,,,0.00,VWS V14.01,2013-04-01 16:27:00,
2013-04-01 11:28:00,36.7,1.4,30.06,NNW,338,23.5,23.5,22,0.00,,,0.00,VWS V14.01,2013-04-01 16:28:00,
2013-04-01 11:29:00,36.7,1.4,30.06,NNW,338,4.7,7.8,22,0.00,,,0.00,VWS V14.01,2013-04-01 16:29:00,
2013-04-01 11:30:00,37.0,1.7,30.06,NNW,338,16.8,16.8,22,0.00,,,0.00,VWS V14.01,2013-04-01 16:30:00,
2013-04-01 11:31:00,37.4,1.0,30.06,NNW,338,6.0,6.0,21,0.00,,,0.00,VWS V14.01,2013-04-01 16:31:00,
2013-04-01 11:32:00,37.0,1.7,30.06,WNW,292,22.2,22.2,22,0.00,,,0.00,VWS V14.01,2013-04-01 16:32:00,
2013-04-01 11:33:00,37.0,1.7,30.06,NNE,22,11.4,11.4,22,0.00,,,0.00,VWS V14.01,2013-04-01 16:33:00,
2013-04-01 11:34:00,37.2,1.9,30.06,NNE,22,18.1,18.1,22,0.00,,,0.00,VWS V14.01,2013-04-01 16:34:00,
2013-04-01 11:35:00,36.9,1.6,30.06,NNW,338,17.5,17.5,22,0.00,,,0.00,VWS V14.01,2013-04-01 16:35:00,
2013-04-01 11:36:00,37.0,1.7,30.06,NNW,338,17.5,17.5,22,0.00,,,0.00,VWS V14.01,2013-04-01 16:36:00,
2013-04-01 11:37:00,36.7,1.4,30.06,WSW,248,10.1,10.1,22,0.00,,,0.00,VWS V14.01,2013-04-01 16:37:00,
2013-04-01 11:38:00,36.7,1.4,30.06,NW,315,12.8,12.8,22,0.00,,,0.00,VWS V14.01,2013-04-01 16:38:00,
2013-04-01 11:39:00,36.7,1.4,30.06,ENE,68,4.7,6.0,22,0.00,,,0.00,VWS V14.01,2013-04-01 16:39:00,
2013-04-01 11:40:00,37.0,1.7,30.06,ESE,112,12.1,12.1,22,0.00,,,0.00,VWS V14.01,2013-04-01 16:40:00,
2013-04-01 11:41:00,37.4,1.0,30.06,WSW,248,18.1,18.1,21,0.00,,,0.00,VWS V14.01,2013-04-01 16:41:00,
2013-04-01 11:42:00,37.6,1.2,30.06,NNW,338,10.1,10.1,21,0.00,,,0.00,VWS V14.01,2013-04-01 16:42:00,
2013-04-01 11:43:00,37.9,1.5,30.06,North,0,6.0,6.0,21,0.00,,,0.00,VWS V14.01,2013-04-01 16:43:00,
2013-04-01 11:44:00,37.9,1.5,30.06,NNW,338,0.0,3.4,21,0.00,,,0.00,VWS V14.01,2013-04-01 16:44:00,
2013-04-01 11:45:00,39.4,2.7,30.06,NW,315,10.7,10.7,21,0.00,,,0.00,VWS V14.01,2013-04-01 16:45:00,
2013-04-01 11:46:00,38.1,1.6,30.06,NW,315,16.1,16.1,21,0.00,,,0.00,VWS V14.01,2013-04-01 16:46:00,
2013-04-01 11:47:00,38.7,2.1,30.06,NW,315,11.4,11.4,21,0.00,,,0.00,VWS V14.01,2013-04-01 16:47:00,
2013-04-01 11:48:00,38.7,2.1,30.06,NNW,338,7.4,7.4,21,0.00,,,0.00,VWS V14.01,2013-04-01 16:48:00,
2013-04-01 11:49:00,38.7,2.1,30.06,WSW,248,3.4,4.9,21,0.00,,,0.00,VWS V14.01,2013-04-01 16:49:00,
2013-04-01 11:50:00,38.7,2.1,30.06,NW,315,6.0,6.0,21,0.00,,,0.00,VWS V14.01,2013-04-01 16:50:00,
2013-04-01 11:51:00,39.9,3.2,30.06,NNE,22,8.1,8.1,21,0.00,,,0.00,VWS V14.01,2013-04-01 16:51:00,
2013-04-01 11:52:00,39.6,2.9,30.06,NNW,338,7.4,7.4,21,0.00,,,0.00,VWS V14.01,2013-04-01 16:52:00,
2013-04-01 11:53:00,38.7,2.1,30.06,WNW,292,23.5,23.5,21,0.00,,,0.00,VWS V14.01,2013-04-01 16:53:00,
2013-04-01 11:54:00,38.7,2.1,30.06,ESE,112,10.1,10.1,21,0.00,,,0.00,VWS V14.01,2013-04-01 16:54:00,
2013-04-01 11:55:00,38.7,2.1,30.06,NNE,22,18.8,18.8,21,0.00,,,0.00,VWS V14.01,2013-04-01 16:55:00,
2013-04-01 11:56:00,39.2,2.6,30.06,South,180,12.1,12.1,21,0.00,,,0.00,VWS V14.01,2013-04-01 16:56:00,
2013-04-01 11:57:00,39.2,2.6,30.06,NW,315,14.8,14.8,21,0.00,,,0.00,VWS V14.01,2013-04-01 16:57:00,
2013-04-01 11:58:00,39.0,2.4,30.06,NNE,22,8.1,8.1,21,0.00,,,0.00,VWS V14.01,2013-04-01 16:58:00,
2013-04-01 11:59:00,39.2,2.6,30.06,East,90,3.4,3.4,21,0.00,,,0.00,VWS V14.01,2013-04-01 16:59:00,
2013-04-01 12:00:00,39.2,2.6,30.06,NNW,338,19.5,19.5,21,0.00,,,0.00,VWS V14.01,2013-04-01 17:00:00,
2013-04-01 12:01:00,40.3,3.5,30.06,WNW,292,4.0,6.5,21,0.00,,,0.00,VWS V14.01,2013-04-01 17:01:00,
2013-04-01 12:02:00,39.7,3.0,30.06,NNW,338,12.8,12.8,21,0.00,,,0.00,VWS V14.01,2013-04-01 17:02:00,
2013-04-01 12:03:00,39.4,2.7,30.06,West,270,8.7,8.7,21,0.00,,,0.00,VWS V14.01,2013-04-01 17:03:00,
2013-04-01 12:04:00,39.2,2.6,30.06,NNE,22,10.7,10.7,21,0.00,,,0.00,VWS V14.01,2013-04-01 17:04:00,
2013-04-01 12:05:00,39.2,2.6,30.06,WSW,248,8.7,8.7,21,0.00,,,0.00,VWS V14.01,2013-04-01 17:05:00,
2013-04-01 12:06:00,39.7,3.0,30.06,West,270,12.8,12.8,21,0.00,,,0.00,VWS V14.01,2013-04-01 17:06:00,
2013-04-01 12:07:00,39.4,2.7,30.06,ESE,112,10.7,10.7,21,0.00,,,0.00,VWS V14.01,2013-04-01 17:07:00,
2013-04-01 12:08:00,39.4,2.7,30.06,ENE,68,7.4,7.4,21,0.00,,,0.00,VWS V14.01,2013-04-01 17:08:00,
2013-04-01 12:09:00,39.7,3.0,30.06,South,180,8.1,8.1,21,0.00,,,0.00,VWS V14.01,2013-04-01 17:09:00,
2013-04-01 12:10:00,39.7,3.0,30.06,NNW,338,12.8,12.8,21,0.00,,,0.00,VWS V14.01,2013-04-01 17:10:00,
2013-04-01 12:11:00,39.6,2.9,30.06,NNE,22,11.4,11.4,21,0.00,,,0.00,VWS V14.01,2013-04-01 17:11:00,
2013-04-01 12:12:00,39.2,2.6,30.06,WNW,292,10.1,10.1,21,0.00,,,0.00,VWS V14.01,2013-04-01 17:12:00,
2013-04-01 12:13:00,39.0,2.4,30.06,SE,135,8.1,8.1,21,0.00,,,0.00,VWS V14.01,2013-04-01 17:13:00,
2013-04-01 12:14:00,39.4,2.7,30.06,NNW,338,19.5,19.5,21,0.00,,,0.00,VWS V14.01,2013-04-01 17:14:00,
2013-04-01 12:15:00,39.4,2.7,30.06,NNW,338,9.4,9.4,21,0.00,,,0.00,VWS V14.01,2013-04-01 17:15:00,
2013-04-01 12:16:00,38.5,2.0,30.06,NW,315,18.8,18.8,21,0.00,,,0.00,VWS V14.01,2013-04-01 17:16:00,
2013-04-01 12:17:00,38.7,2.1,30.06,NNW,338,17.5,17.5,21,0.00,,,0.00,VWS V14.01,2013-04-01 17:17:00,
2013-04-01 12:18:00,38.7,2.1,30.06,NNW,338,11.4,11.4,21,0.00,,,0.00,VWS V14.01,2013-04-01 17:18:00,
2013-04-01 12:19:00,38.7,2.1,30.06,WSW,248,7.4,7.4,21,0.00,,,0.00,VWS V14.01,2013-04-01 17:19:00,
2013-04-01 12:20:00,38.7,2.1,30.06,West,270,18.1,18.1,21,0.00,,,0.00,VWS V14.01,2013-04-01 17:20:00,
2013-04-01 12:21:00,38.7,2.1,30.06,WSW,248,12.1,12.1,21,0.00,,,0.00,VWS V14.01,2013-04-01 17:21:00,
2013-04-01 12:22:00,38.8,2.3,30.06,NNW,338,12.1,12.1,21,0.00,,,0.00,VWS V14.01,2013-04-01 17:22:00,
2013-04-01 12:23:00,38.5,2.0,30.06,NE,45,9.4,9.4,21,0.00,,,0.00,VWS V14.01,2013-04-01 17:23:00,
2013-04-01 12:24:00,39.2,2.6,30.06,South,180,4.7,4.7,21,0.00,,,0.00,VWS V14.01,2013-04-01 17:24:00,
2013-04-01 12:25:00,39.2,2.6,30.06,NNW,338,12.8,12.8,21,0.00,,,0.00,VWS V14.01,2013-04-01 17:25:00,
2013-04-01 12:26:00,39.2,2.6,30.06,NNW,338,8.1,8.1,21,0.00,,,0.00,VWS V14.01,2013-04-01 17:26:00,
2013-04-01 12:27:00,39.2,2.6,30.06,NNE,22,6.0,6.0,21,0.00,,,0.00,VWS V14.01,2013-04-01 17:27:00,
2013-04-01 12:28:00,39.7,3.0,30.06,NNE,22,6.0,6.0,21,0.00,,,0.00,VWS V14.01,2013-04-01 17:28:00,
2013-04-01 12:29:00,40.1,3.3,30.06,West,270,10.7,10.7,21,0.00,,,0.00,VWS V14.01,2013-04-01 17:29:00,
2013-04-01 12:30:00,39.2,2.6,30.06,NW,315,32.2,32.2,21,0.00,,,0.00,VWS V14.01,2013-04-01 17:30:00,
2013-04-01 12:31:00,39.0,2.4,30.06,NE,45,9.4,10.7,21,0.00,,,0.00,VWS V14.01,2013-04-01 17:31:00,
2013-04-01 12:32:00,38.7,2.1,30.06,NW,315,26.2,26.2,21,0.00,,,0.00,VWS V14.01,2013-04-01 17:32:00,
2013-04-01 12:33:00,38.8,2.3,30.06,West,270,10.7,10.7,21,0.00,,,0.00,VWS V14.01,2013-04-01 17:33:00,
2013-04-01 12:34:00,39.0,2.4,30.06,NNW,338,14.8,14.8,21,0.00,,,0.00,VWS V14.01,2013-04-01 17:34:00,
2013-04-01 12:35:00,39.4,2.7,30.06,South,180,16.8,16.8,21,0.00,,,0.00,VWS V14.01,2013-04-01 17:35:00,
2013-04-01 12:36:00,39.9,3.2,30.06,WSW,248,9.4,9.4,21,0.00,,,0.00,VWS V14.01,2013-04-01 17:36:00,
2013-04-01 12:37:00,39.6,2.9,30.06,North,0,16.1,16.1,21,0.00,,,0.00,VWS V14.01,2013-04-01 17:37:00,
2013-04-01 12:38:00,39.4,2.7,30.06,SSW,202,16.1,16.1,21,0.00,,,0.00,VWS V14.01,2013-04-01 17:38:00,
2013-04-01 12:39:00,39.4,2.7,30.06,NE,45,16.8,16.8,21,0.00,,,0.00,VWS V14.01,2013-04-01 17:39:00,
2013-04-01 12:40:00,38.8,2.3,30.06,WNW,292,12.8,12.8,21,0.00,,,0.00,VWS V14.01,2013-04-01 17:40:00,
2013-04-01 12:41:00,39.4,2.7,30.06,WNW,292,10.7,10.7,21,0.00,,,0.00,VWS V14.01,2013-04-01 17:41:00,
2013-04-01 12:42:00,39.6,2.9,30.06,NNW,338,7.4,7.4,21,0.00,,,0.00,VWS V14.01,2013-04-01 17:42:00,
2013-04-01 12:43:00,39.7,3.0,30.06,NNW,338,10.7,10.7,21,0.00,,,0.00,VWS V14.01,2013-04-01 17:43:00,
2013-04-01 12:44:00,39.7,3.0,30.06,NNE,22,10.1,10.1,21,0.00,,,0.00,VWS V14.01,2013-04-01 17:44:00,
2013-04-01 12:45:00,40.3,3.5,30.06,NW,315,12.8,12.8,21,0.00,,,0.00,VWS V14.01,2013-04-01 17:45:00,
2013-04-01 12:46:00,40.5,3.6,30.06,NNW,338,9.4,9.4,21,0.00,,,0.00,VWS V14.01,2013-04-01 17:46:00,
2013-04-01 12:47:00,40.3,3.5,30.06,SSW,202,10.7,10.7,21,0.00,,,0.00,VWS V14.01,2013-04-01 17:47:00,
2013-04-01 12:48:00,40.3,3.5,30.06,WSW,248,7.4,7.4,21,0.00,,,0.00,VWS V14.01,2013-04-01 17:48:00,
2013-04-01 12:49:00,39.9,3.2,30.06,NNW,338,14.1,14.1,21,0.00,,,0.00,VWS V14.01,2013-04-01 17:49:00,
2013-04-01 12:50:00,40.6,3.8,30.06,North,0,14.1,14.1,21,0.00,,,0.00,VWS V14.01,2013-04-01 17:50:00,
2013-04-01 12:51:00,40.8,3.9,30.06,NNW,338,12.8,12.8,21,0.00,,,0.00,VWS V14.01,2013-04-01 17:51:00,
2013-04-01 12:52:00,40.8,3.9,30.06,WSW,248,7.4,7.4,21,0.00,,,0.00,VWS V14.01,2013-04-01 17:52:00,
2013-04-01 12:53:00,41.2,4.2,30.06,NW,315,9.4,9.4,21,0.00,,,0.00,VWS V14.01,2013-04-01 17:53:00,
2013-04-01 12:54:00,41.0,4.1,30.06,NNW,338,14.8,14.8,21,0.00,,,0.00,VWS V14.01,2013-04-01 17:54:00,
2013-04-01 12:55:00,40.5,3.6,30.06,North,0,18.1,18.1,21,0.00,,,0.00,VWS V14.01,2013-04-01 17:55:00,
2013-04-01 12:56:00,40.5,3.6,30.03,NW,315,11.4,11.4,21,0.00,,,0.00,VWS V14.01,2013-04-01 17:56:00,
2013-04-01 12:57:00,40.6,3.8,30.03,NW,315,9.4,9.4,21,0.00,,,0.00,VWS V14.01,2013-04-01 17:57:00,
2013-04-01 12:58:00,40.5,3.6,30.03,NNE,22,8.1,8.1,21,0.00,,,0.00,VWS V14.01,2013-04-01 17:58:00,
2013-04-01 12:59:00,41.2,4.2,30.03,NW,315,14.8,14.8,21,0.00,,,0.00,VWS V14.01,2013-04-01 17:59:00,
2013-04-01 13:00:00,40.6,3.8,30.03,NNW,338,18.8,18.8,21,0.00,,,0.00,VWS V14.01,2013-04-01 18:00:00,
2013-04-01 13:01:00,39.9,3.2,30.03,NW,315,6.0,7.4,21,0.00,,,0.00,VWS V14.01,2013-04-01 18:01:00,
2013-04-01 13:02:00,39.6,2.9,30.03,SW,225,30.2,30.2,21,0.00,,,0.00,VWS V14.01,2013-04-01 18:02:00,
2013-04-01 13:03:00,39.4,2.7,30.03,NNE,22,18.1,18.1,21,0.00,,,0.00,VWS V14.01,2013-04-01 18:03:00,
2013-04-01 13:04:00,39.7,3.0,30.03,SSE,158,22.2,22.2,21,0.00,,,0.00,VWS V14.01,2013-04-01 18:04:00,
2013-04-01 13:05:00,39.9,3.2,30.03,NNW,338,10.7,10.7,21,0.00,,,0.00,VWS V14.01,2013-04-01 18:05:00,
2013-04-01 13:06:00,39.7,3.0,30.03,NNE,22,10.7,10.7,21,0.00,,,0.00,VWS V14.01,2013-04-01 18:06:00,
2013-04-01 13:07:00,39.9,3.2,30.03,NNE,22,8.1,8.1,21,0.00,,,0.00,VWS V14.01,2013-04-01 18:07:00,
2013-04-01 13:08:00,39.9,3.2,30.03,SW,225,10.1,10.1,21,0.00,,,0.00,VWS V14.01,2013-04-01 18:08:00,
2013-04-01 13:09:00,40.3,3.5,30.03,WNW,292,8.7,8.7,21,0.00,,,0.00,VWS V14.01,2013-04-01 18:09:00,
2013-04-01 13:10:00,40.3,3.5,30.03,WNW,292,19.5,19.5,21,0.00,,,0.00,VWS V14.01,2013-04-01 18:10:00,
2013-04-01 13:11:00,40.3,3.5,30.03,NW,315,6.7,6.7,21,0.00,,,0.00,VWS V14.01,2013-04-01 18:11:00,
2013-04-01 13:12:00,40.8,3.9,30.03,East,90,10.7,10.7,21,0.00,,,0.00,VWS V14.01,2013-04-01 18:12:00,
2013-04-01 13:13:00,41.2,4.2,30.03,WSW,248,9.4,9.4,21,0.00,,,0.00,VWS V14.01,2013-04-01 18:13:00,
2013-04-01 13:14:00,41.2,4.2,30.03,WSW,248,7.4,7.4,21,0.00,,,0.00,VWS V14.01,2013-04-01 18:14:00,
2013-04-01 13:15:00,41.5,4.5,30.03,West,270,8.1,8.1,21,0.00,,,0.00,VWS V14.01,2013-04-01 18:15:00,
2013-04-01 13:16:00,41.5,4.5,30.03,NW,315,16.1,16.1,21,0.00,,,0.00,VWS V14.01,2013-04-01 18:16:00,
2013-04-01 13:17:00,41.4,4.4,30.03,NNW,338,16.1,16.1,21,0.00,,,0.00,VWS V14.01,2013-04-01 18:17:00,
2013-04-01 13:18:00,41.2,4.2,30.03,West,270,14.1,14.1,21,0.00,,,0.00,VWS V14.01,2013-04-01 18:18:00,
2013-04-01 13:19:00,41.4,4.4,30.03,WSW,248,4.0,4.7,21,0.00,,,0.00,VWS V14.01,2013-04-01 18:19:00,
2013-04-01 13:20:00,41.2,4.2,30.03,North,0,8.7,8.7,21,0.00,,,0.00,VWS V14.01,2013-04-01 18:20:00,
2013-04-01 13:21:00,42.1,5.0,30.03,North,0,7.4,7.4,21,0.00,,,0.00,VWS V14.01,2013-04-01 18:21:00,
2013-04-01 13:22:00,42.1,5.0,30.03,West,270,11.4,11.4,21,0.00,,,0.00,VWS V14.01,2013-04-01 18:22:00,
2013-04-01 13:23:00,41.7,4.7,30.03,West,270,10.7,10.7,21,0.00,,,0.00,VWS V14.01,2013-04-01 18:23:00,
2013-04-01 13:24:00,41.5,4.5,30.03,SW,225,12.8,12.8,21,0.00,,,0.00,VWS V14.01,2013-04-01 18:24:00,
2013-04-01 13:25:00,41.2,4.2,30.03,NW,315,9.4,9.4,21,0.00,,,0.00,VWS V14.01,2013-04-01 18:25:00,
2013-04-01 13:26:00,41.4,4.4,30.03,NNW,338,8.1,8.1,21,0.00,,,0.00,VWS V14.01,2013-04-01 18:26:00,
2013-04-01 13:27:00,41.0,4.1,30.03,West,270,11.4,11.4,21,0.00,,,0.00,VWS V14.01,2013-04-01 18:27:00,
2013-04-01 13:28:00,40.8,3.9,30.03,NW,315,11.4,11.4,21,0.00,,,0.00,VWS V14.01,2013-04-01 18:28:00,
2013-04-01 13:29:00,40.8,3.9,30.03,NW,315,11.4,11.4,21,0.00,,,0.00,VWS V14.01,2013-04-01 18:29:00,
2013-04-01 13:30:00,40.6,3.8,30.03,WNW,292,10.1,10.1,21,0.00,,,0.00,VWS V14.01,2013-04-01 18:30:00,
2013-04-01 13:31:00,40.3,3.5,30.03,NW,315,16.8,16.8,21,0.00,,,0.00,VWS V14.01,2013-04-01 18:31:00,
2013-04-01 13:32:00,40.3,3.5,30.03,North,0,10.7,10.7,21,0.00,,,0.00,VWS V14.01,2013-04-01 18:32:00,
2013-04-01 13:33:00,40.5,3.6,30.03,NNW,338,7.4,7.4,21,0.00,,,0.00,VWS V14.01,2013-04-01 18:33:00,
2013-04-01 13:34:00,40.5,3.6,30.03,NNW,338,12.1,12.1,21,0.00,,,0.00,VWS V14.01,2013-04-01 18:34:00,
2013-04-01 13:35:00,40.6,3.8,30.03,NNW,338,8.7,8.7,21,0.00,,,0.00,VWS V14.01,2013-04-01 18:35:00,
2013-04-01 13:36:00,41.0,4.1,30.03,NNE,22,14.1,14.1,21,0.00,,,0.00,VWS V14.01,2013-04-01 18:36:00,
2013-04-01 13:37:00,41.2,4.2,30.03,NW,315,14.1,14.1,21,0.00,,,0.00,VWS V14.01,2013-04-01 18:37:00,
2013-04-01 13:38:00,40.6,3.8,30.03,NNE,22,9.4,9.4,21,0.00,,,0.00,VWS V14.01,2013-04-01 18:38:00,
2013-04-01 13:39:00,41.0,4.1,30.03,NNW,338,8.1,8.1,21,0.00,,,0.00,VWS V14.01,2013-04-01 18:39:00,
2013-04-01 13:40:00,41.2,4.2,30.03,SE,135,8.7,8.7,21,0.00,,,0.00,VWS V14.01,2013-04-01 18:40:00,
2013-04-01 13:41:00,41.2,4.2,30.03,NNW,338,10.7,10.7,21,0.00,,,0.00,VWS V14.01,2013-04-01 18:41:00,
2013-04-01 13:42:00,41.4,4.4,30.03,WSW,248,14.8,14.8,21,0.00,,,0.00,VWS V14.01,2013-04-01 18:42:00,
2013-04-01 13:43:00,41.0,4.1,30.03,WNW,292,10.7,10.7,21,0.00,,,0.00,VWS V14.01,2013-04-01 18:43:00,
2013-04-01 13:44:00,41.4,4.4,30.03,ENE,68,10.7,10.7,21,0.00,,,0.00,VWS V14.01,2013-04-01 18:44:00,
2013-04-01 13:45:00,41.0,4.1,30.03,NNE,22,18.8,18.8,21,0.00,,,0.00,VWS V14.01,2013-04-01 18:45:00,
2013-04-01 13:46:00,40.8,3.9,30.03,NW,315,17.5,17.5,21,0.00,,,0.00,VWS V14.01,2013-04-01 18:46:00,
2013-04-01 13:47:00,40.6,3.8,30.03,NW,315,14.8,14.8,21,0.00,,,0.00,VWS V14.01,2013-04-01 18:47:00,
2013-04-01 13:48:00,40.3,3.5,30.03,North,0,12.1,12.1,21,0.00,,,0.00,VWS V14.01,2013-04-01 18:48:00,
2013-04-01 13:49:00,40.6,3.8,30.03,South,180,11.4,11.4,21,0.00,,,0.00,VWS V14.01,2013-04-01 18:49:00,
2013-04-01 13:50:00,40.6,3.8,30.03,WNW,292,13.4,13.4,21,0.00,,,0.00,VWS V14.01,2013-04-01 18:50:00,
2013-04-01 13:51:00,40.1,3.3,30.03,South,180,11.4,11.4,21,0.00,,,0.00,VWS V14.01,2013-04-01 18:51:00,
2013-04-01 13:52:00,40.6,3.8,30.03,NW,315,11.4,11.4,21,0.00,,,0.00,VWS V14.01,2013-04-01 18:52:00,
2013-04-01 13:53:00,40.6,3.8,30.03,WNW,292,12.1,12.1,21,0.00,,,0.00,VWS V14.01,2013-04-01 18:53:00,
2013-04-01 13:54:00,40.3,3.5,30.03,NNW,338,8.1,8.1,21,0.00,,,0.00,VWS V14.01,2013-04-01 18:54:00,
2013-04-01 13:55:00,40.3,3.5,30.03,NNE,22,8.1,8.1,21,0.00,,,0.00,VWS V14.01,2013-04-01 18:55:00,
2013-04-01 13:56:00,40.6,3.8,30.06,West,270,10.7,10.7,21,0.00,,,0.00,VWS V14.01,2013-04-01 18:56:00,
2013-04-01 13:57:00,41.0,4.1,30.06,NW,315,14.1,14.1,21,0.00,,,0.00,VWS V14.01,2013-04-01 18:57:00,
2013-04-01 13:58:00,40.8,3.9,30.06,NW,315,12.1,12.1,21,0.00,,,0.00,VWS V14.01,2013-04-01 18:58:00,
2013-04-01 13:59:00,41.0,4.1,30.06,NNE,22,22.8,22.8,21,0.00,,,0.00,VWS V14.01,2013-04-01 18:59:00,
2013-04-01 14:00:00,40.5,3.6,30.06,NNE,22,9.4,9.4,21,0.00,,,0.00,VWS V14.01,2013-04-01 19:00:00,
2013-04-01 14:01:00,39.9,3.2,30.06,NW,315,14.8,14.8,21,0.00,,,0.00,VWS V14.01,2013-04-01 19:01:00,
2013-04-01 14:02:00,40.1,3.3,30.06,North,0,11.4,11.4,21,0.00,,,0.00,VWS V14.01,2013-04-01 19:02:00,
2013-04-01 14:03:00,39.9,3.2,30.06,ESE,112,8.7,8.7,21,0.00,,,0.00,VWS V14.01,2013-04-01 19:03:00,
2013-04-01 14:04:00,40.3,3.5,30.06,NW,315,12.1,12.1,21,0.00,,,0.00,VWS V14.01,2013-04-01 19:04:00,
2013-04-01 14:05:00,40.3,3.5,30.06,North,0,12.1,12.1,21,0.00,,,0.00,VWS V14.01,2013-04-01 19:05:00,
2013-04-01 14:06:00,40.1,3.3,30.06,NNW,338,10.1,10.1,21,0.00,,,0.00,VWS V14.01,2013-04-01 19:06:00,
2013-04-01 14:07:00,40.1,3.3,30.06,NNE,22,16.8,16.8,21,0.00,,,0.00,VWS V14.01,2013-04-01 19:07:00,
2013-04-01 14:08:00,40.3,3.5,30.06,East,90,10.1,10.1,21,0.00,,,0.00,VWS V14.01,2013-04-01 19:08:00,
2013-04-01 14:09:00,40.1,3.3,30.06,NNW,338,13.4,13.4,21,0.00,,,0.00,VWS V14.01,2013-04-01 19:09:00,
2013-04-01 14:10:00,40.1,3.3,30.06,NE,45,28.9,28.9,21,0.00,,,0.00,VWS V14.01,2013-04-01 19:10:00,
2013-04-01 14:11:00,39.7,3.0,30.03,NNW,338,23.5,23.5,21,0.00,,,0.00,VWS V14.01,2013-04-01 19:11:00,
2013-04-01 14:12:00,39.4,2.7,30.03,North,0,10.1,10.1,21,0.00,,,0.00,VWS V14.01,2013-04-01 19:12:00,
2013-04-01 14:13:00,39.6,2.9,30.03,SSW,202,8.7,8.7,21,0.00,,,0.00,VWS V14.01,2013-04-01 19:13:00,
2013-04-01 14:14:00,39.7,3.0,30.03,NNW,338,18.1,18.1,21,0.00,,,0.00,VWS V14.01,2013-04-01 19:14:00,
2013-04-01 14:15:00,39.2,2.6,30.03,NNW,338,8.7,8.7,21,0.00,,,0.00,VWS V14.01,2013-04-01 19:15:00,
2013-04-01 14:16:00,39.7,3.0,30.03,NNW,338,23.5,23.5,21,0.00,,,0.00,VWS V14.01,2013-04-01 19:16:00,
2013-04-01 14:17:00,39.7,3.0,30.03,NNW,338,14.1,14.1,21,0.00,,,0.00,VWS V14.01,2013-04-01 19:17:00,
2013-04-01 14:18:00,39.7,3.0,30.03,NNW,338,10.1,10.1,21,0.00,,,0.00,VWS V14.01,2013-04-01 19:18:00,
2013-04-01 14:19:00,39.7,3.0,30.03,West,270,22.8,22.8,21,0.00,,,0.00,VWS V14.01,2013-04-01 19:19:00,
2013-04-01 14:20:00,39.7,3.0,30.03,NE,45,12.1,12.1,21,0.00,,,0.00,VWS V14.01,2013-04-01 19:20:00,
2013-04-01 14:21:00,40.1,3.3,30.03,NNW,338,8.1,8.1,21,0.00,,,0.00,VWS V14.01,2013-04-01 19:21:00,
2013-04-01 14:22:00,40.3,3.5,30.03,NNW,338,11.4,11.4,21,0.00,,,0.00,VWS V14.01,2013-04-01 19:22:00,
2013-04-01 14:23:00,40.5,3.6,30.03,WNW,292,22.8,22.8,21,0.00,,,0.00,VWS V14.01,2013-04-01 19:23:00,
2013-04-01 14:24:00,39.7,3.0,30.03,NNW,338,12.1,12.1,21,0.00,,,0.00,VWS V14.01,2013-04-01 19:24:00,
2013-04-01 14:25:00,39.7,3.0,30.06,NNE,22,6.0,6.0,21,0.00,,,0.00,VWS V14.01,2013-04-01 19:25:00,
2013-04-01 14:26:00,39.7,3.0,30.06,NNW,338,10.1,10.1,21,0.00,,,0.00,VWS V14.01,2013-04-01 19:26:00,
2013-04-01 14:27:00,39.7,3.0,30.06,NNW,338,16.8,16.8,21,0.00,,,0.00,VWS V14.01,2013-04-01 19:27:00,
2013-04-01 14:28:00,39.6,2.9,30.06,SSE,158,6.0,6.0,21,0.00,,,0.00,VWS V14.01,2013-04-01 19:28:00,
2013-04-01 14:29:00,39.7,3.0,30.06,North,0,10.7,10.7,21,0.00,,,0.00,VWS V14.01,2013-04-01 19:29:00,
2013-04-01 14:30:00,39.7,3.0,30.06,NNW,338,10.7,10.7,21,0.00,,,0.00,VWS V14.01,2013-04-01 19:30:00,
2013-04-01 14:31:00,39.9,3.2,30.06,WNW,292,23.5,23.5,21,0.00,,,0.00,VWS V14.01,2013-04-01 19:31:00,
2013-04-01 14:32:00,39.7,3.0,30.06,NW,315,12.8,12.8,21,0.00,,,0.00,VWS V14.01,2013-04-01 19:32:00,
2013-04-01 14:33:00,39.7,3.0,30.06,NW,315,8.7,8.7,21,0.00,,,0.00,VWS V14.01,2013-04-01 19:33:00,
2013-04-01 14:34:00,40.3,3.5,30.06,WNW,292,7.4,7.4,21,0.00,,,0.00,VWS V14.01,2013-04-01 19:34:00,
2013-04-01 14:35:00,40.5,3.6,30.06,WNW,292,7.4,7.4,21,0.00,,,0.00,VWS V14.01,2013-04-01 19:35:00,
2013-04-01 14:36:00,40.6,3.8,30.06,WNW,292,7.4,7.4,21,0.00,,,0.00,VWS V14.01,2013-04-01 19:36:00,
2013-04-01 14:37:00,40.3,3.5,30.06,WNW,292,7.4,7.4,21,0.00,,,0.00,VWS V14.01,2013-04-01 19:37:00,
2013-04-01 14:38:00,40.3,3.5,30.06,NW,315,16.1,16.1,21,0.00,,,0.00,VWS V14.01,2013-04-01 19:38:00,
2013-04-01 14:39:00,39.7,3.0,30.06,NNE,22,18.8,18.8,21,0.00,,,0.00,VWS V14.01,2013-04-01 19:39:00,
2013-04-01 14:40:00,39.6,2.9,30.03,NNE,22,18.8,18.8,21,0.00,,,0.00,VWS V14.01,2013-04-01 19:40:00,
2013-04-01 14:41:00,39.9,3.2,30.03,NNW,338,7.4,7.4,21,0.00,,,0.00,VWS V14.01,2013-04-01 19:41:00,
2013-04-01 14:42:00,39.4,2.7,30.03,SSW,202,4.7,5.8,21,0.00,,,0.00,VWS V14.01,2013-04-01 19:42:00,
2013-04-01 14:43:00,39.2,2.6,30.03,NNW,338,19.5,19.5,21,0.00,,,0.00,VWS V14.01,2013-04-01 19:43:00,
2013-04-01 14:44:00,39.4,2.7,30.03,NNW,338,7.4,7.4,21,0.00,,,0.00,VWS V14.01,2013-04-01 19:44:00,
2013-04-01 14:45:00,39.7,3.0,30.03,NNW,338,4.0,4.3,21,0.00,,,0.00,VWS V14.01,2013-04-01 19:45:00,
2013-04-01 14:46:00,39.6,2.9,30.03,NNW,338,11.4,11.4,21,0.00,,,0.00,VWS V14.01,2013-04-01 19:46:00,
2013-04-01 14:47:00,39.9,3.2,30.03,NNW,338,9.4,9.4,21,0.00,,,0.00,VWS V14.01,2013-04-01 19:47:00,
2013-04-01 14:48:00,40.1,3.3,30.03,SSW,202,16.8,16.8,21,0.00,,,0.00,VWS V14.01,2013-04-01 19:48:00,
2013-04-01 14:49:00,40.3,3.5,30.03,NE,45,12.8,12.8,21,0.00,,,0.00,VWS V14.01,2013-04-01 19:49:00,
2013-04-01 14:50:00,40.3,3.5,30.03,NE,45,12.8,12.8,21,0.00,,,0.00,VWS V14.01,2013-04-01 19:50:00,
2013-04-01 14:51:00,39.7,3.0,30.03,NNW,338,14.8,14.8,21,0.00,,,0.00,VWS V14.01,2013-04-01 19:51:00,
2013-04-01 14:52:00,39.7,3.0,30.03,North,0,9.4,9.4,21,0.00,,,0.00,VWS V14.01,2013-04-01 19:52:00,
2013-04-01 14:53:00,39.4,2.7,30.03,NNW,338,16.8,16.8,21,0.00,,,0.00,VWS V14.01,2013-04-01 19:53:00,
2013-04-01 14:54:00,39.9,3.2,30.03,West,270,4.0,5.6,21,0.00,,,0.00,VWS V14.01,2013-04-01 19:54:00,
2013-04-01 14:55:00,39.9,3.2,30.03,NNE,22,18.8,18.8,21,0.00,,,0.00,VWS V14.01,2013-04-01 19:55:00,
2013-04-01 14:56:00,39.7,3.0,30.06,NE,45,12.1,12.1,21,0.00,,,0.00,VWS V14.01,2013-04-01 19:56:00,
2013-04-01 14:57:00,39.4,2.7,30.06,NNE,22,10.1,10.1,21,0.00,,,0.00,VWS V14.01,2013-04-01 19:57:00,
2013-04-01 14:58:00,39.7,3.0,30.06,NW,315,11.4,11.4,21,0.00,,,0.00,VWS V14.01,2013-04-01 19:58:00,
2013-04-01 14:59:00,40.1,3.3,30.06,SSE,158,10.1,10.1,21,0.00,,,0.00,VWS V14.01,2013-04-01 19:59:00,
2013-04-01 15:00:00,39.9,3.2,30.06,NNW,338,10.1,10.1,21,0.00,,,0.00,VWS V14.01,2013-04-01 20:00:00,
2013-04-01 15:01:00,39.9,3.2,30.06,NNW,338,4.0,6.5,21,0.00,,,0.00,VWS V14.01,2013-04-01 20:01:00,
2013-04-01 15:02:00,39.9,3.2,30.06,NNW,338,4.0,4.0,21,0.00,,,0.00,VWS V14.01,2013-04-01 20:02:00,
2013-04-01 15:03:00,39.9,3.2,30.06,WSW,248,9.4,9.4,21,0.00,,,0.00,VWS V14.01,2013-04-01 20:03:00,
2013-04-01 15:04:00,39.7,3.0,30.06,NW,315,11.4,11.4,21,0.00,,,0.00,VWS V14.01,2013-04-01 20:04:00,
2013-04-01 15:05:00,39.4,2.7,30.06,WSW,248,10.1,10.1,21,0.00,,,0.00,VWS V14.01,2013-04-01 20:05:00,
2013-04-01 15:06:00,39.4,2.7,30.06,NNW,338,9.4,9.4,21,0.00,,,0.00,VWS V14.01,2013-04-01 20:06:00,
2013-04-01 15:07:00,39.4,2.7,30.06,WSW,248,16.1,16.1,21,0.00,,,0.00,VWS V14.01,2013-04-01 20:07:00,
2013-04-01 15:08:00,39.2,2.6,30.06,East,90,12.1,12.1,21,0.00,,,0.00,VWS V14.01,2013-04-01 20:08:00,
2013-04-01 15:09:00,39.4,2.7,30.06,NE,45,14.1,14.1,21,0.00,,,0.00,VWS V14.01,2013-04-01 20:09:00,
2013-04-01 15:10:00,39.6,2.9,30.06,NW,315,8.7,8.7,21,0.00,,,0.00,VWS V14.01,2013-04-01 20:10:00,
2013-04-01 15:11:00,39.9,3.2,30.03,North,0,10.1,10.1,21,0.00,,,0.00,VWS V14.01,2013-04-01 20:11:00,
2013-04-01 15:12:00,40.3,3.5,30.03,NNW,338,10.1,10.1,21,0.00,,,0.00,VWS V14.01,2013-04-01 20:12:00,
2013-04-01 15:13:00,40.1,3.3,30.03,WSW,248,9.4,9.4,21,0.00,,,0.00,VWS V14.01,2013-04-01 20:13:00,
2013-04-01 15:14:00,40.1,3.3,30.03,North,0,8.1,8.1,21,0.00,,,0.00,VWS V14.01,2013-04-01 20:14:00,
2013-04-01 15:15:00,39.9,3.2,30.03,SSW,202,7.4,7.4,21,0.00,,,0.00,VWS V14.01,2013-04-01 20:15:00,
2013-04-01 15:16:00,39.9,3.2,30.03,NW,315,8.7,8.7,21,0.00,,,0.00,VWS V14.01,2013-04-01 20:16:00,
2013-04-01 15:17:00,39.9,3.2,30.03,SW,225,10.1,10.1,21,0.00,,,0.00,VWS V14.01,2013-04-01 20:17:00,
2013-04-01 15:18:00,39.7,3.0,30.03,NW,315,6.7,6.7,21,0.00,,,0.00,VWS V14.01,2013-04-01 20:18:00,
2013-04-01 15:19:00,40.3,3.5,30.03,WNW,292,8.1,8.1,21,0.00,,,0.00,VWS V14.01,2013-04-01 20:19:00,
2013-04-01 15:20:00,40.1,3.3,30.03,NNW,338,12.1,12.1,21,0.00,,,0.00,VWS V14.01,2013-04-01 20:20:00,
2013-04-01 15:21:00,39.9,3.2,30.03,North,0,18.8,18.8,21,0.00,,,0.00,VWS V14.01,2013-04-01 20:21:00,
2013-04-01 15:22:00,39.9,3.2,30.03,NW,315,16.1,16.1,21,0.00,,,0.00,VWS V14.01,2013-04-01 20:22:00,
2013-04-01 15:23:00,39.7,3.0,30.03,WNW,292,14.1,14.1,21,0.00,,,0.00,VWS V14.01,2013-04-01 20:23:00,
2013-04-01 15:24:00,39.6,2.9,30.03,WNW,292,10.7,10.7,21,0.00,,,0.00,VWS V14.01,2013-04-01 20:24:00,
2013-04-01 15:25:00,39.6,2.9,30.03,NNW,338,8.1,8.1,21,0.00,,,0.00,VWS V14.01,2013-04-01 20:25:00,
2013-04-01 15:26:00,39.7,3.0,30.06,NW,315,6.0,6.0,21,0.00,,,0.00,VWS V14.01,2013-04-01 20:26:00,
2013-04-01 15:27:00,39.6,2.9,30.06,WSW,248,20.8,20.8,21,0.00,,,0.00,VWS V14.01,2013-04-01 20:27:00,
2013-04-01 15:28:00,39.6,2.9,30.06,SE,135,8.1,8.1,21,0.00,,,0.00,VWS V14.01,2013-04-01 20:28:00,
2013-04-01 15:29:00,39.7,3.0,30.06,SSE,158,8.1,8.1,21,0.00,,,0.00,VWS V14.01,2013-04-01 20:29:00,
2013-04-01 15:30:00,40.1,3.3,30.06,West,270,10.1,10.1,21,0.00,,,0.00,VWS V14.01,2013-04-01 20:30:00,
2013-04-01 15:31:00,40.5,3.6,30.06,West,270,8.7,8.7,21,0.00,,,0.00,VWS V14.01,2013-04-01 20:31:00,
2013-04-01 15:32:00,40.3,3.5,30.06,NNE,22,12.8,12.8,21,0.00,,,0.00,VWS V14.01,2013-04-01 20:32:00,
2013-04-01 15:33:00,39.9,3.2,30.06,ENE,68,4.7,8.1,21,0.00,,,0.00,VWS V14.01,2013-04-01 20:33:00,
2013-04-01 15:34:00,39.9,3.2,30.06,North,0,16.8,16.8,21,0.00,,,0.00,VWS V14.01,2013-04-01 20:34:00,
2013-04-01 15:35:00,39.9,3.2,30.06,NW,315,10.7,10.7,21,0.00,,,0.00,VWS V14.01,2013-04-01 20:35:00,
2013-04-01 15:36:00,39.9,3.2,30.06,NNE,22,8.7,8.7,21,0.00,,,0.00,VWS V14.01,2013-04-01 20:36:00,
2013-04-01 15:37:00,39.9,3.2,30.06,NNW,338,7.4,7.4,21,0.00,,,0.00,VWS V14.01,2013-04-01 20:37:00,
2013-04-01 15:38:00,40.3,3.5,30.06,West,270,20.8,20.8,21,0.00,,,0.00,VWS V14.01,2013-04-01 20:38:00,
2013-04-01 15:39:00,40.3,3.5,30.06,ESE,112,10.7,10.7,21,0.00,,,0.00,VWS V14.01,2013-04-01 20:39:00,
2013-04-01 15:40:00,40.1,3.3,30.06,WNW,292,7.4,7.4,21,0.00,,,0.00,VWS V14.01,2013-04-01 20:40:00,
2013-04-01 15:41:00,39.7,3.0,30.03,East,90,20.8,20.8,21,0.00,,,0.00,VWS V14.01,2013-04-01 20:41:00,
2013-04-01 15:42:00,39.4,2.7,30.03,NW,315,12.1,12.1,21,0.00,,,0.00,VWS V14.01,2013-04-01 20:42:00,
2013-04-01 15:43:00,39.6,2.9,30.03,West,270,8.1,8.1,21,0.00,,,0.00,VWS V14.01,2013-04-01 20:43:00,
2013-04-01 15:44:00,39.9,3.2,30.03,WNW,292,9.4,9.4,21,0.00,,,0.00,VWS V14.01,2013-04-01 20:44:00,
2013-04-01 15:45:00,40.5,3.6,29.94,NNW,338,4.0,4.0,21,0.00,,,0.00,VWS V14.01,2013-04-01 20:45:00,
2013-04-01 15:47:00,40.3,3.5,30.03,SW,225,6.0,6.0,21,0.00,,,0.00,VWS V14.01,2013-04-01 20:47:00,
2013-04-01 15:49:00,40.3,3.5,30.03,NNW,338,8.1,8.1,21,0.00,,,0.00,VWS V14.01,2013-04-01 20:49:00,
2013-04-01 15:51:00,39.7,3.0,30.03,NNW,338,8.7,8.7,21,0.00,,,0.00,VWS V14.01,2013-04-01 20:51:00,
2013-04-01 15:54:00,39.2,2.6,30.03,NNW,338,10.1,10.1,21,0.00,,,0.00,VWS V14.01,2013-04-01 20:54:00,
2013-04-01 15:55:00,39.2,2.6,30.03,NNW,338,11.4,11.4,21,0.00,,,0.00,VWS V14.01,2013-04-01 20:55:00,
2013-04-01 15:56:00,39.2,2.6,30.03,NNE,22,9.4,9.4,21,0.00,,,0.00,VWS V14.01,2013-04-01 20:56:00,
2013-04-01 15:57:00,39.2,2.6,30.03,NW,315,17.5,17.5,21,0.00,,,0.00,VWS V14.01,2013-04-01 20:57:00,
2013-04-01 15:58:00,39.2,2.6,30.03,WNW,292,11.4,11.4,21,0.00,,,0.00,VWS V14.01,2013-04-01 20:58:00,
2013-04-01 15:59:00,39.2,2.6,30.03,NNW,338,8.7,8.7,21,0.00,,,0.00,VWS V14.01,2013-04-01 20:59:00,
2013-04-01 16:00:00,39.2,2.6,30.03,NNW,338,11.4,11.4,21,0.00,,,0.00,VWS V14.01,2013-04-01 21:00:00,
2013-04-01 16:01:00,39.2,2.6,30.03,NNW,338,8.7,8.7,21,0.00,,,0.00,VWS V14.01,2013-04-01 21:01:00,
2013-04-01 16:02:00,39.2,2.6,30.03,NNW,338,10.7,10.7,21,0.00,,,0.00,VWS V14.01,2013-04-01 21:02:00,
2013-04-01 16:03:00,39.4,2.7,30.03,WSW,248,18.1,18.1,21,0.00,,,0.00,VWS V14.01,2013-04-01 21:03:00,
2013-04-01 16:04:00,39.0,2.4,30.03,NW,315,17.5,17.5,21,0.00,,,0.00,VWS V14.01,2013-04-01 21:04:00,
2013-04-01 16:05:00,38.8,2.3,30.03,WNW,292,22.8,22.8,21,0.00,,,0.00,VWS V14.01,2013-04-01 21:05:00,
2013-04-01 16:06:00,38.8,2.3,30.03,SSW,202,17.5,17.5,21,0.00,,,0.00,VWS V14.01,2013-04-01 21:06:00,
2013-04-01 16:07:00,38.8,2.3,30.03,WNW,292,16.8,16.8,21,0.00,,,0.00,VWS V14.01,2013-04-01 21:07:00,
2013-04-01 16:08:00,38.8,2.3,30.03,West,270,8.7,8.7,21,0.00,,,0.00,VWS V14.01,2013-04-01 21:08:00,
2013-04-01 16:09:00,38.8,2.3,30.03,NW,315,17.5,17.5,21,0.00,,,0.00,VWS V14.01,2013-04-01 21:09:00,
2013-04-01 16:10:00,38.5,2.0,30.03,West,270,11.4,11.4,21,0.00,,,0.00,VWS V14.01,2013-04-01 21:10:00,
2013-04-01 16:11:00,38.8,2.3,30.06,WSW,248,6.0,6.0,21,0.00,,,0.00,VWS V14.01,2013-04-01 21:11:00,
2013-04-01 16:12:00,38.8,2.3,30.06,NNW,338,14.1,14.1,21,0.00,,,0.00,VWS V14.01,2013-04-01 21:12:00,
2013-04-01 16:13:00,38.5,2.0,30.06,NNW,338,10.1,10.1,21,0.00,,,0.00,VWS V14.01,2013-04-01 21:13:00,
2013-04-01 16:14:00,38.8,2.3,30.06,ESE,112,8.7,8.7,21,0.00,,,0.00,VWS V14.01,2013-04-01 21:14:00,
2013-04-01 16:15:00,39.2,2.6,30.06,WNW,292,12.1,12.1,21,0.00,,,0.00,VWS V14.01,2013-04-01 21:15:00,
2013-04-01 16:16:00,39.0,2.4,30.06,NNE,22,8.7,8.7,21,0.00,,,0.00,VWS V14.01,2013-04-01 21:16:00,
2013-04-01 16:17:00,38.5,2.0,30.06,NNW,338,8.7,8.7,21,0.00,,,0.00,VWS V14.01,2013-04-01 21:17:00,
2013-04-01 16:18:00,38.7,2.1,30.06,North,0,10.1,10.1,21,0.00,,,0.00,VWS V14.01,2013-04-01 21:18:00,
2013-04-01 16:19:00,38.8,2.3,30.06,SW,225,8.7,8.7,21,0.00,,,0.00,VWS V14.01,2013-04-01 21:19:00,
2013-04-01 16:20:00,38.8,2.3,30.06,SSW,202,10.7,10.7,21,0.00,,,0.00,VWS V14.01,2013-04-01 21:20:00,
2013-04-01 16:21:00,39.2,2.6,30.06,NNW,338,8.1,8.1,21,0.00,,,0.00,VWS V14.01,2013-04-01 21:21:00,
2013-04-01 16:22:00,39.0,2.4,30.06,WNW,292,6.7,6.7,21,0.00,,,0.00,VWS V14.01,2013-04-01 21:22:00,
2013-04-01 16:23:00,39.2,2.6,30.06,NW,315,16.1,16.1,21,0.00,,,0.00,VWS V14.01,2013-04-01 21:23:00,
2013-04-01 16:24:00,39.2,2.6,30.06,SW,225,17.5,17.5,21,0.00,,,0.00,VWS V14.01,2013-04-01 21:24:00,
2013-04-01 16:25:00,39.0,2.4,30.06,West,270,11.4,11.4,21,0.00,,,0.00,VWS V14.01,2013-04-01 21:25:00,
2013-04-01 16:26:00,39.0,2.4,30.06,NNW,338,8.7,8.7,21,0.00,,,0.00,VWS V14.01,2013-04-01 21:26:00,
2013-04-01 16:27:00,39.2,2.6,30.06,WNW,292,11.4,11.4,21,0.00,,,0.00,VWS V14.01,2013-04-01 21:27:00,
2013-04-01 16:28:00,38.8,2.3,30.06,SW,225,7.4,7.4,21,0.00,,,0.00,VWS V14.01,2013-04-01 21:28:00,
2013-04-01 16:29:00,39.0,2.4,30.06,WNW,292,8.1,8.1,21,0.00,,,0.00,VWS V14.01,2013-04-01 21:29:00,
2013-04-01 16:30:00,39.0,2.4,30.06,WNW,292,8.1,8.1,21,0.00,,,0.00,VWS V14.01,2013-04-01 21:30:00,
2013-04-01 16:31:00,39.2,2.6,30.06,SW,225,8.1,8.1,21,0.00,,,0.00,VWS V14.01,2013-04-01 21:31:00,
2013-04-01 16:32:00,38.7,2.1,30.06,NW,315,8.1,8.1,21,0.00,,,0.00,VWS V14.01,2013-04-01 21:32:00,
2013-04-01 16:33:00,38.8,2.3,30.06,North,0,18.8,18.8,21,0.00,,,0.00,VWS V14.01,2013-04-01 21:33:00,
2013-04-01 16:34:00,38.8,2.3,30.06,NE,45,8.7,8.7,21,0.00,,,0.00,VWS V14.01,2013-04-01 21:34:00,
2013-04-01 16:35:00,38.7,2.1,30.06,SW,225,8.7,8.7,21,0.00,,,0.00,VWS V14.01,2013-04-01 21:35:00,
2013-04-01 16:36:00,38.7,2.1,30.06,SSE,158,10.7,10.7,21,0.00,,,0.00,VWS V14.01,2013-04-01 21:36:00,
2013-04-01 16:37:00,38.8,2.3,30.06,NW,315,6.7,6.7,21,0.00,,,0.00,VWS V14.01,2013-04-01 21:37:00,
2013-04-01 16:38:00,38.7,2.1,30.06,North,0,8.1,8.1,21,0.00,,,0.00,VWS V14.01,2013-04-01 21:38:00,
2013-04-01 16:39:00,38.7,2.1,30.06,NNW,338,11.4,11.4,21,0.00,,,0.00,VWS V14.01,2013-04-01 21:39:00,
2013-04-01 16:40:00,38.7,2.1,30.06,WSW,248,12.1,12.1,21,0.00,,,0.00,VWS V14.01,2013-04-01 21:40:00,
2013-04-01 16:41:00,37.9,1.5,30.03,NW,315,9.4,9.4,21,0.00,,,0.00,VWS V14.01,2013-04-01 21:41:00,
2013-04-01 16:42:00,37.9,1.5,30.03,NNW,338,4.0,6.3,21,0.00,,,0.00,VWS V14.01,2013-04-01 21:42:00,
2013-04-01 16:43:00,37.6,1.2,30.03,WNW,292,12.1,12.1,21,0.00,,,0.00,VWS V14.01,2013-04-01 21:43:00,
2013-04-01 16:44:00,37.6,1.2,30.03,NNW,338,18.8,18.8,21,0.00,,,0.00,VWS V14.01,2013-04-01 21:44:00,
2013-04-01 16:45:00,37.4,1.0,30.03,WNW,292,12.8,12.8,21,0.00,,,0.00,VWS V14.01,2013-04-01 21:45:00,
2013-04-01 16:46:00,37.4,1.0,30.03,WNW,292,6.0,6.0,21,0.00,,,0.00,VWS V14.01,2013-04-01 21:46:00,
2013-04-01 16:47:00,37.4,1.0,30.03,WSW,248,17.5,17.5,21,0.00,,,0.00,VWS V14.01,2013-04-01 21:47:00,
2013-04-01 16:48:00,37.4,1.0,30.03,SE,135,9.4,9.4,21,0.00,,,0.00,VWS V14.01,2013-04-01 21:48:00,
2013-04-01 16:49:00,37.2,1.9,30.03,WSW,248,6.0,6.0,22,0.00,,,0.00,VWS V14.01,2013-04-01 21:49:00,
2013-04-01 16:50:00,37.2,1.9,30.03,NW,315,9.4,9.4,22,0.00,,,0.00,VWS V14.01,2013-04-01 21:50:00,
2013-04-01 16:51:00,36.9,1.6,30.03,WSW,248,7.4,7.4,22,0.00,,,0.00,VWS V14.01,2013-04-01 21:51:00,
2013-04-01 16:52:00,37.0,1.7,30.03,West,270,4.7,4.7,22,0.00,,,0.00,VWS V14.01,2013-04-01 21:52:00,
2013-04-01 16:53:00,37.0,1.7,30.03,ESE,112,8.7,8.7,22,0.00,,,0.00,VWS V14.01,2013-04-01 21:53:00,
2013-04-01 16:54:00,36.9,1.6,30.03,WNW,292,11.4,11.4,22,0.00,,,0.00,VWS V14.01,2013-04-01 21:54:00,
2013-04-01 16:55:00,36.9,1.6,30.03,WNW,292,11.4,11.4,22,0.00,,,0.00,VWS V14.01,2013-04-01 21:55:00,
2013-04-01 16:56:00,36.9,1.6,30.03,WNW,292,11.4,11.4,22,0.00,,,0.00,VWS V14.01,2013-04-01 21:56:00,
2013-04-01 16:57:00,36.7,1.4,30.03,NW,315,10.7,10.7,22,0.00,,,0.00,VWS V14.01,2013-04-01 21:57:00,
2013-04-01 16:58:00,36.7,1.4,30.03,West,270,19.5,19.5,22,0.00,,,0.00,VWS V14.01,2013-04-01 21:58:00,
2013-04-01 16:59:00,36.7,1.4,30.03,West,270,12.8,12.8,22,0.00,,,0.00,VWS V14.01,2013-04-01 21:59:00,
2013-04-01 17:00:00,36.9,1.6,30.03,WSW,248,9.4,9.4,22,0.00,,,0.00,VWS V14.01,2013-04-01 22:00:00,
2013-04-01 17:01:00,36.9,1.6,30.03,SW,225,17.5,17.5,22,0.00,,,0.00,VWS V14.01,2013-04-01 22:01:00,
2013-04-01 17:02:00,36.9,1.6,30.03,WSW,248,9.4,9.4,22,0.00,,,0.00,VWS V14.01,2013-04-01 22:02:00,
2013-04-01 17:03:00,36.7,1.4,30.03,WSW,248,9.4,9.4,22,0.00,,,0.00,VWS V14.01,2013-04-01 22:03:00,
2013-04-01 17:04:00,36.1,1.0,30.03,NNW,338,11.4,11.4,22,0.00,,,0.00,VWS V14.01,2013-04-01 22:04:00,
2013-04-01 17:05:00,36.1,1.0,30.03,SW,225,12.8,12.8,22,0.00,,,0.00,VWS V14.01,2013-04-01 22:05:00,
2013-04-01 17:06:00,36.1,1.0,30.03,WSW,248,6.0,6.0,22,0.00,,,0.00,VWS V14.01,2013-04-01 22:06:00,
2013-04-01 17:07:00,36.1,1.0,30.03,WNW,292,8.1,8.1,22,0.00,,,0.00,VWS V14.01,2013-04-01 22:07:00,
2013-04-01 17:08:00,36.0,0.8,30.03,SE,135,8.1,8.1,22,0.00,,,0.00,VWS V14.01,2013-04-01 22:08:00,
2013-04-01 17:09:00,35.6,0.5,30.03,WSW,248,4.0,4.0,22,0.00,,,0.00,VWS V14.01,2013-04-01 22:09:00,
2013-04-01 17:10:00,35.4,0.4,30.03,NNE,22,12.8,12.8,22,0.00,,,0.00,VWS V14.01,2013-04-01 22:10:00,
2013-04-01 17:11:00,35.2,0.2,30.06,SSW,202,9.4,9.4,22,0.00,,,0.00,VWS V14.01,2013-04-01 22:11:00,
2013-04-01 17:12:00,35.2,0.2,30.06,North,0,7.4,7.4,22,0.00,,,0.00,VWS V14.01,2013-04-01 22:12:00,
2013-04-01 17:13:00,35.2,0.2,30.06,North,0,25.5,25.5,22,0.00,,,0.00,VWS V14.01,2013-04-01 22:13:00,
2013-04-01 17:14:00,35.1,0.1,30.06,NE,45,8.7,8.7,22,0.00,,,0.00,VWS V14.01,2013-04-01 22:14:00,
2013-04-01 17:15:00,35.1,0.1,30.06,NNW,338,8.7,8.7,22,0.00,,,0.00,VWS V14.01,2013-04-01 22:15:00,
2013-04-01 17:16:00,34.9,-0.1,30.06,NW,315,8.7,8.7,22,0.00,,,0.00,VWS V14.01,2013-04-01 22:16:00,
2013-04-01 17:17:00,34.9,-0.1,30.06,SE,135,10.7,10.7,22,0.00,,,0.00,VWS V14.01,2013-04-01 22:17:00,
2013-04-01 17:18:00,34.7,-0.2,30.06,SSE,158,7.4,7.4,22,0.00,,,0.00,VWS V14.01,2013-04-01 22:18:00,
2013-04-01 17:19:00,34.7,-0.2,30.06,SW,225,6.0,6.0,22,0.00,,,0.00,VWS V14.01,2013-04-01 22:19:00,
2013-04-01 17:20:00,34.5,-0.4,30.06,WNW,292,10.1,10.1,22,0.00,,,0.00,VWS V14.01,2013-04-01 22:20:00,
2013-04-01 17:21:00,34.5,-0.4,30.06,North,0,10.1,10.1,22,0.00,,,0.00,VWS V14.01,2013-04-01 22:21:00,
2013-04-01 17:22:00,34.3,-0.6,30.06,NNW,338,10.7,10.7,22,0.00,,,0.00,VWS V14.01,2013-04-01 22:22:00,
2013-04-01 17:23:00,34.3,-0.6,30.06,NNW,338,9.4,9.4,22,0.00,,,0.00,VWS V14.01,2013-04-01 22:23:00,
2013-04-01 17:24:00,34.3,-0.6,30.06,NE,45,10.7,10.7,22,0.00,,,0.00,VWS V14.01,2013-04-01 22:24:00,
2013-04-01 17:25:00,34.3,-0.6,30.06,NE,45,7.4,7.4,22,0.00,,,0.00,VWS V14.01,2013-04-01 22:25:00,
2013-04-01 17:26:00,34.2,-0.7,30.03,West,270,4.7,4.7,22,0.00,,,0.00,VWS V14.01,2013-04-01 22:26:00,
2013-04-01 17:27:00,34.2,-0.7,30.03,WNW,292,8.1,8.1,22,0.00,,,0.00,VWS V14.01,2013-04-01 22:27:00,
2013-04-01 17:28:00,34.0,-0.9,30.03,WNW,292,8.1,8.1,22,0.00,,,0.00,VWS V14.01,2013-04-01 22:28:00,
2013-04-01 17:29:00,33.8,-1.0,30.03,North,0,19.5,19.5,22,0.00,,,0.00,VWS V14.01,2013-04-01 22:29:00,
2013-04-01 17:30:00,33.8,-1.0,30.03,North,0,19.5,19.5,22,0.00,,,0.00,VWS V14.01,2013-04-01 22:30:00,
2013-04-01 17:31:00,33.8,-1.0,30.03,North,0,19.5,19.5,22,0.00,,,0.00,VWS V14.01,2013-04-01 22:31:00,
2013-04-01 17:32:00,33.3,-0.5,30.03,South,180,7.4,7.4,23,0.00,,,0.00,VWS V14.01,2013-04-01 22:32:00,
2013-04-01 17:33:00,33.3,-0.5,30.03,North,0,17.5,17.5,23,0.00,,,0.00,VWS V14.01,2013-04-01 22:33:00,
2013-04-01 17:34:00,33.1,-0.7,30.03,SW,225,6.0,6.0,23,0.00,,,0.00,VWS V14.01,2013-04-01 22:34:00,
2013-04-01 17:35:00,33.1,-0.7,30.03,SW,225,4.7,4.7,23,0.00,,,0.00,VWS V14.01,2013-04-01 22:35:00,
2013-04-01 17:36:00,33.1,-0.7,30.03,WNW,292,22.8,22.8,23,0.00,,,0.00,VWS V14.01,2013-04-01 22:36:00,
2013-04-01 17:37:00,32.9,-0.8,30.03,WSW,248,11.4,11.4,23,0.00,,,0.00,VWS V14.01,2013-04-01 22:37:00,
2013-04-01 17:38:00,32.9,-0.8,30.03,WNW,292,7.4,7.4,23,0.00,,,0.00,VWS V14.01,2013-04-01 22:38:00,
2013-04-01 17:39:00,32.7,-1.0,30.03,NNW,338,8.1,8.1,23,0.00,,,0.00,VWS V14.01,2013-04-01 22:39:00,
2013-04-01 17:40:00,32.5,-1.1,30.03,NNW,338,10.7,10.7,23,0.00,,,0.00,VWS V14.01,2013-04-01 22:40:00,
2013-04-01 17:41:00,32.5,-1.1,30.06,NW,315,10.1,10.1,23,0.00,,,0.00,VWS V14.01,2013-04-01 22:41:00,
2013-04-01 17:42:00,32.5,-1.1,30.06,NNW,338,4.0,4.0,23,0.00,,,0.00,VWS V14.01,2013-04-01 22:42:00,
2013-04-01 17:43:00,32.4,-1.3,30.06,NW,315,9.4,9.4,23,0.00,,,0.00,VWS V14.01,2013-04-01 22:43:00,
2013-04-01 17:44:00,32.2,-1.4,30.06,WNW,292,23.5,23.5,23,0.00,,,0.00,VWS V14.01,2013-04-01 22:44:00,
2013-04-01 17:45:00,32.2,-1.4,30.06,SSW,202,11.4,11.4,23,0.00,,,0.00,VWS V14.01,2013-04-01 22:45:00,
2013-04-01 17:46:00,32.0,-1.6,30.06,NNW,338,10.1,10.1,23,0.00,,,0.00,VWS V14.01,2013-04-01 22:46:00,
2013-04-01 17:47:00,32.0,-1.6,30.06,NW,315,2.7,4.9,23,0.00,,,0.00,VWS V14.01,2013-04-01 22:47:00,
2013-04-01 17:48:00,32.0,-1.6,30.06,NNW,338,12.8,12.8,23,0.00,,,0.00,VWS V14.01,2013-04-01 22:48:00,
2013-04-01 17:49:00,31.8,-1.8,30.06,NNW,338,10.1,10.1,23,0.00,,,0.00,VWS V14.01,2013-04-01 22:49:00,
2013-04-01 17:50:00,31.6,-1.9,30.06,WSW,248,9.4,9.4,23,0.00,,,0.00,VWS V14.01,2013-04-01 22:50:00,
2013-04-01 17:51:00,31.6,-1.9,30.06,WNW,292,4.0,4.0,23,0.00,,,0.00,VWS V14.01,2013-04-01 22:51:00,
2013-04-01 17:52:00,31.6,-0.1,30.06,NNE,22,14.1,14.1,25,0.00,,,0.00,VWS V14.01,2013-04-01 22:52:00,
2013-04-01 17:53:00,31.5,-0.3,30.06,NE,45,7.4,7.4,25,0.00,,,0.00,VWS V14.01,2013-04-01 22:53:00,
2013-04-01 17:54:00,31.5,-0.3,30.06,NNW,338,8.1,8.1,25,0.00,,,0.00,VWS V14.01,2013-04-01 22:54:00,
2013-04-01 17:55:00,31.5,-0.3,30.06,SW,225,8.7,8.7,25,0.00,,,0.00,VWS V14.01,2013-04-01 22:55:00,
2013-04-01 17:56:00,31.3,-0.4,30.03,WSW,248,3.4,3.4,25,0.00,,,0.00,VWS V14.01,2013-04-01 22:56:00,
2013-04-01 17:57:00,31.3,-0.4,30.03,South,180,8.1,8.1,25,0.00,,,0.00,VWS V14.01,2013-04-01 22:57:00,
2013-04-01 17:58:00,31.1,-0.6,30.03,NNW,338,14.8,14.8,25,0.00,,,0.00,VWS V14.01,2013-04-01 22:58:00,
2013-04-01 17:59:00,31.1,-0.6,30.03,NNW,338,18.8,18.8,25,0.00,,,0.00,VWS V14.01,2013-04-01 22:59:00,
2013-04-01 18:00:00,31.1,-0.6,30.03,WNW,292,8.1,8.1,25,0.00,,,0.00,VWS V14.01,2013-04-01 23:00:00,
2013-04-01 18:01:00,30.9,-0.8,30.03,NNW,338,9.4,9.4,25,0.00,,,0.00,VWS V14.01,2013-04-01 23:01:00,
2013-04-01 18:02:00,30.9,-0.8,30.03,NW,315,6.0,6.0,25,0.00,,,0.00,VWS V14.01,2013-04-01 23:02:00,
2013-04-01 18:03:00,30.7,-0.9,30.03,NW,315,6.0,6.0,25,0.00,,,0.00,VWS V14.01,2013-04-01 23:03:00,
2013-04-01 18:04:00,30.7,-0.9,30.03,WSW,248,8.1,8.1,25,0.00,,,0.00,VWS V14.01,2013-04-01 23:04:00,
2013-04-01 18:05:00,30.6,-1.1,30.03,NNW,338,17.5,17.5,25,0.00,,,0.00,VWS V14.01,2013-04-01 23:05:00,
2013-04-01 18:06:00,30.6,-1.1,30.03,West,270,12.1,12.1,25,0.00,,,0.00,VWS V14.01,2013-04-01 23:06:00,
2013-04-01 18:07:00,30.6,-1.1,30.03,ESE,112,10.1,10.1,25,0.00,,,0.00,VWS V14.01,2013-04-01 23:07:00,
2013-04-01 18:08:00,30.4,-1.2,30.03,West,270,10.7,10.7,25,0.00,,,0.00,VWS V14.01,2013-04-01 23:08:00,
2013-04-01 18:09:00,30.4,-1.2,30.03,WSW,248,8.7,8.7,25,0.00,,,0.00,VWS V14.01,2013-04-01 23:09:00,
2013-04-01 18:10:00,30.4,-1.2,30.03,WSW,248,8.7,8.7,25,0.00,,,0.00,VWS V14.01,2013-04-01 23:10:00,
2013-04-01 18:11:00,30.4,-1.2,30.03,NNE,22,8.1,8.1,25,0.00,,,0.00,VWS V14.01,2013-04-01 23:11:00,
2013-04-01 18:12:00,30.4,-1.2,30.03,NW,315,19.5,19.5,25,0.00,,,0.00,VWS V14.01,2013-04-01 23:12:00,
2013-04-01 18:13:00,30.4,-1.2,30.03,SSE,158,8.1,8.1,25,0.00,,,0.00,VWS V14.01,2013-04-01 23:13:00,
2013-04-01 18:14:00,30.4,-1.2,30.03,West,270,6.0,6.0,25,0.00,,,0.00,VWS V14.01,2013-04-01 23:14:00,
2013-04-01 18:15:00,30.2,-1.4,30.03,NNW,338,9.4,9.4,25,0.00,,,0.00,VWS V14.01,2013-04-01 23:15:00,
2013-04-01 18:16:00,30.0,-1.5,30.03,West,270,16.1,16.1,25,0.00,,,0.00,VWS V14.01,2013-04-01 23:16:00,
2013-04-01 18:17:00,29.8,-1.7,30.03,West,270,16.1,16.1,25,0.00,,,0.00,VWS V14.01,2013-04-01 23:17:00,
2013-04-01 18:18:00,29.7,-1.8,30.03,North,0,8.7,8.7,25,0.00,,,0.00,VWS V14.01,2013-04-01 23:18:00,
2013-04-01 18:19:00,29.7,-1.8,30.03,North,0,8.7,8.7,25,0.00,,,0.00,VWS V14.01,2013-04-01 23:19:00,
2013-04-01 18:20:00,29.5,-2.0,30.03,East,90,10.1,10.1,25,0.00,,,0.00,VWS V14.01,2013-04-01 23:20:00,
2013-04-01 18:21:00,29.5,-2.0,30.03,WSW,248,7.4,7.4,25,0.00,,,0.00,VWS V14.01,2013-04-01 23:21:00,
2013-04-01 18:22:00,29.5,-2.0,30.03,North,0,16.1,16.1,25,0.00,,,0.00,VWS V14.01,2013-04-01 23:22:00,
2013-04-01 18:23:00,29.3,-2.2,30.03,SSW,202,10.1,10.1,25,0.00,,,0.00,VWS V14.01,2013-04-01 23:23:00,
2013-04-01 18:24:00,29.3,-2.2,30.03,NW,315,32.2,32.2,25,0.00,,,0.00,VWS V14.01,2013-04-01 23:24:00,
2013-04-01 18:25:00,29.1,-2.3,30.03,NW,315,32.2,32.2,25,0.00,,,0.00,VWS V14.01,2013-04-01 23:25:00,
2013-04-01 18:26:00,29.1,-2.3,30.03,NNW,338,10.1,10.7,25,0.00,,,0.00,VWS V14.01,2013-04-01 23:26:00,
2013-04-01 18:27:00,28.9,-2.5,30.03,WNW,292,18.1,18.1,25,0.00,,,0.00,VWS V14.01,2013-04-01 23:27:00,
2013-04-01 18:28:00,28.9,-2.5,30.03,NW,315,9.4,9.4,25,0.00,,,0.00,VWS V14.01,2013-04-01 23:28:00,
2013-04-01 18:29:00,28.9,-2.5,30.03,NW,315,13.4,13.4,25,0.00,,,0.00,VWS V14.01,2013-04-01 23:29:00,
2013-04-01 18:30:00,28.9,-2.5,30.03,WNW,292,16.8,16.8,25,0.00,,,0.00,VWS V14.01,2013-04-01 23:30:00,
2013-04-01 18:31:00,28.9,-2.5,30.03,North,0,8.1,8.1,25,0.00,,,0.00,VWS V14.01,2013-04-01 23:31:00,
2013-04-01 18:32:00,28.8,-2.6,30.03,NNW,338,4.0,4.0,25,0.00,,,0.00,VWS V14.01,2013-04-01 23:32:00,
2013-04-01 18:33:00,28.8,-2.6,30.03,SSE,158,4.7,4.7,25,0.00,,,0.00,VWS V14.01,2013-04-01 23:33:00,
2013-04-01 18:34:00,28.6,-2.8,30.03,SSE,158,4.7,4.7,25,0.00,,,0.00,VWS V14.01,2013-04-01 23:34:00,
2013-04-01 18:35:00,28.6,-2.8,30.03,West,270,7.4,7.4,25,0.00,,,0.00,VWS V14.01,2013-04-01 23:35:00,
2013-04-01 18:36:00,28.6,-2.8,30.03,NW,315,4.7,4.7,25,0.00,,,0.00,VWS V14.01,2013-04-01 23:36:00,
2013-04-01 18:37:00,28.6,-2.8,30.03,NNW,338,9.4,9.4,25,0.00,,,0.00,VWS V14.01,2013-04-01 23:37:00,
2013-04-01 18:38:00,28.6,-2.8,30.03,South,180,8.7,8.7,25,0.00,,,0.00,VWS V14.01,2013-04-01 23:38:00,
2013-04-01 18:39:00,28.6,-2.8,30.03,NNW,338,6.0,6.0,25,0.00,,,0.00,VWS V14.01,2013-04-01 23:39:00,
2013-04-01 18:40:00,28.4,-2.1,30.03,SSE,158,8.1,8.1,26,0.00,,,0.00,VWS V14.01,2013-04-01 23:40:00,
2013-04-01 18:41:00,28.4,-2.1,30.03,West,270,6.0,6.0,26,0.00,,,0.00,VWS V14.01,2013-04-01 23:41:00,
2013-04-01 18:42:00,28.2,-2.2,30.03,NW,315,4.7,4.7,26,0.00,,,0.00,VWS V14.01,2013-04-01 23:42:00,
2013-04-01 18:43:00,28.2,-2.2,30.03,NNW,338,7.4,7.4,26,0.00,,,0.00,VWS V14.01,2013-04-01 23:43:00,
2013-04-01 18:44:00,28.2,-2.2,30.03,West,270,3.4,3.6,26,0.00,,,0.00,VWS V14.01,2013-04-01 23:44:00,
2013-04-01 18:45:00,28.0,-2.4,30.03,NW,315,4.7,4.7,26,0.00,,,0.00,VWS V14.01,2013-04-01 23:45:00,
2013-04-01 18:46:00,28.0,-2.4,30.03,WSW,248,0.0,2.9,26,0.00,,,0.00,VWS V14.01,2013-04-01 23:46:00,
2013-04-01 18:47:00,28.0,-2.4,30.03,NW,315,4.7,4.7,26,0.00,,,0.00,VWS V14.01,2013-04-01 23:47:00,
2013-04-01 18:48:00,27.9,-2.6,30.03,West,270,6.0,6.0,26,0.00,,,0.00,VWS V14.01,2013-04-01 23:48:00,
2013-04-01 18:49:00,27.9,-2.6,30.03,North,0,4.0,4.0,26,0.00,,,0.00,VWS V14.01,2013-04-01 23:49:00,
2013-04-01 18:50:00,27.9,-2.6,30.03,SE,135,4.0,4.0,26,0.00,,,0.00,VWS V14.01,2013-04-01 23:50:00,
2013-04-01 18:51:00,27.9,-1.0,30.03,NNE,22,10.7,10.7,28,0.00,,,0.00,VWS V14.01,2013-04-01 23:51:00,
2013-04-01 18:52:00,27.7,-1.2,30.03,WNW,292,12.1,12.1,28,0.00,,,0.00,VWS V14.01,2013-04-01 23:52:00,
2013-04-01 18:53:00,27.7,-1.2,30.03,WNW,292,12.1,12.1,28,0.00,,,0.00,VWS V14.01,2013-04-01 23:53:00,
2013-04-01 18:54:00,27.7,-1.2,30.03,West,270,6.7,6.7,28,0.00,,,0.00,VWS V14.01,2013-04-01 23:54:00,
2013-04-01 18:55:00,27.7,-1.2,30.03,West,270,10.1,10.1,28,0.00,,,0.00,VWS V14.01,2013-04-01 23:55:00,
2013-04-01 18:56:00,27.7,-1.2,30.03,ESE,112,14.8,14.8,28,0.00,,,0.00,VWS V14.01,2013-04-01 23:56:00,
2013-04-01 18:57:00,27.5,-1.3,30.03,SSW,202,6.7,6.7,28,0.00,,,0.00,VWS V14.01,2013-04-01 23:57:00,
2013-04-01 18:58:00,27.5,-1.3,30.03,SSW,202,6.7,6.7,28,0.00,,,0.00,VWS V14.01,2013-04-01 23:58:00,
2013-04-01 18:59:00,27.5,-1.3,30.03,WSW,248,6.0,6.0,28,0.00,,,0.00,VWS V14.01,2013-04-01 23:59:00,
2013-04-01 19:00:00,27.5,-1.3,30.03,NW,315,9.4,9.4,28,0.00,,,0.00,VWS V14.01,2013-04-02 00:00:00,
2013-04-01 19:01:00,27.5,-1.3,30.03,NW,315,9.4,9.4,28,0.00,,,0.00,VWS V14.01,2013-04-02 00:01:00,
2013-04-01 19:02:00,27.5,-1.3,30.03,NNE,22,4.0,4.0,28,0.00,,,0.00,VWS V14.01,2013-04-02 00:02:00,
2013-04-01 19:03:00,27.3,-1.5,30.03,NW,315,8.1,8.1,28,0.00,,,0.00,VWS V14.01,2013-04-02 00:03:00,
2013-04-01 19:04:00,27.3,-1.5,30.03,NNW,338,6.0,6.0,28,0.00,,,0.00,VWS V14.01,2013-04-02 00:04:00,
2013-04-01 19:05:00,27.1,-1.6,30.03,NNW,338,6.0,6.0,28,0.00,,,0.00,VWS V14.01,2013-04-02 00:05:00,
2013-04-01 19:06:00,27.1,-1.6,30.03,NNW,338,6.0,6.0,28,0.00,,,0.00,VWS V14.01,2013-04-02 00:06:00,
2013-04-01 19:07:00,27.1,-1.6,30.03,SW,225,8.7,8.7,28,0.00,,,0.00,VWS V14.01,2013-04-02 00:07:00,
2013-04-01 19:08:00,27.0,-1.8,30.03,NW,315,7.4,7.4,28,0.00,,,0.00,VWS V14.01,2013-04-02 00:08:00,
2013-04-01 19:09:00,27.0,-1.8,30.03,NW,315,7.4,7.4,28,0.00,,,0.00,VWS V14.01,2013-04-02 00:09:00,
2013-04-01 19:10:00,27.0,0.4,30.03,NW,315,7.4,7.4,31,0.00,,,0.00,VWS V14.01,2013-04-02 00:10:00,
2013-04-01 19:11:00,27.0,0.4,30.03,West,270,8.1,8.1,31,0.00,,,0.00,VWS V14.01,2013-04-02 00:11:00,
2013-04-01 19:12:00,26.8,0.2,30.03,West,270,8.1,8.1,31,0.00,,,0.00,VWS V14.01,2013-04-02 00:12:00,
2013-04-01 19:13:00,26.8,0.2,30.03,SSE,158,16.1,16.1,31,0.00,,,0.00,VWS V14.01,2013-04-02 00:13:00,
2013-04-01 19:14:00,26.8,0.2,30.03,SSE,158,16.1,16.1,31,0.00,,,0.00,VWS V14.01,2013-04-02 00:14:00,
2013-04-01 19:15:00,26.8,0.2,30.03,SSE,158,16.1,16.1,31,0.00,,,0.00,VWS V14.01,2013-04-02 00:15:00,
2013-04-01 19:16:00,26.6,0.1,30.03,North,0,3.4,5.4,31,0.00,,,0.00,VWS V14.01,2013-04-02 00:16:00,
2013-04-01 19:17:00,26.6,0.1,30.03,NNW,338,6.7,6.7,31,0.00,,,0.00,VWS V14.01,2013-04-02 00:17:00,
2013-04-01 19:18:00,26.6,0.1,30.03,NNW,338,6.7,6.7,31,0.00,,,0.00,VWS V14.01,2013-04-02 00:18:00,
2013-04-01 19:19:00,26.6,0.1,30.03,NW,315,9.4,9.4,31,0.00,,,0.00,VWS V14.01,2013-04-02 00:19:00,
2013-04-01 19:20:00,26.6,-1.4,30.03,NW,315,9.4,9.4,29,0.00,,,0.00,VWS V14.01,2013-04-02 00:20:00,
2013-04-01 19:21:00,26.4,-1.5,30.03,NNW,338,3.4,3.4,29,0.00,,,0.00,VWS V14.01,2013-04-02 00:21:00,
2013-04-01 19:22:00,26.4,-1.5,30.03,NNW,338,3.4,3.4,29,0.00,,,0.00,VWS V14.01,2013-04-02 00:22:00,
2013-04-01 19:23:00,26.4,-1.5,30.03,NNW,338,3.4,3.4,29,0.00,,,0.00,VWS V14.01,2013-04-02 00:23:00,
2013-04-01 19:24:00,26.2,-1.7,30.03,NNW,338,3.4,3.4,29,0.00,,,0.00,VWS V14.01,2013-04-02 00:24:00,
2013-04-01 19:25:00,26.2,-1.7,30.03,NNW,338,3.4,3.4,29,0.00,,,0.00,VWS V14.01,2013-04-02 00:25:00,
2013-04-01 19:26:00,26.1,-1.8,30.03,NNW,338,3.4,3.4,29,0.00,,,0.00,VWS V14.01,2013-04-02 00:26:00,
2013-04-01 19:27:00,26.1,-1.8,30.03,NNW,338,3.4,3.4,29,0.00,,,0.00,VWS V14.01,2013-04-02 00:27:00,
2013-04-01 19:28:00,26.1,-1.8,30.03,WSW,248,4.7,4.7,29,0.00,,,0.00,VWS V14.01,2013-04-02 00:28:00,
2013-04-01 19:29:00,26.1,-1.8,30.03,West,270,11.4,11.4,29,0.00,,,0.00,VWS V14.01,2013-04-02 00:29:00,
2013-04-01 19:30:00,26.1,-1.8,30.03,West,270,11.4,11.4,29,0.00,,,0.00,VWS V14.01,2013-04-02 00:30:00,
2013-04-01 19:31:00,26.1,-1.8,30.03,West,270,11.4,11.4,29,0.00,,,0.00,VWS V14.01,2013-04-02 00:31:00,
2013-04-01 19:32:00,26.1,-1.8,30.03,West,270,11.4,11.4,29,0.00,,,0.00,VWS V14.01,2013-04-02 00:32:00,
2013-04-01 19:33:00,26.1,-0.4,30.03,NNE,22,8.1,8.1,31,0.00,,,0.00,VWS V14.01,2013-04-02 00:33:00,
2013-04-01 19:34:00,26.1,-0.4,30.03,SW,225,7.4,7.4,31,0.00,,,0.00,VWS V14.01,2013-04-02 00:34:00,
2013-04-01 19:35:00,26.1,-0.4,30.03,SW,225,7.4,7.4,31,0.00,,,0.00,VWS V14.01,2013-04-02 00:35:00,
2013-04-01 19:36:00,26.1,-0.4,30.03,SW,225,7.4,7.4,31,0.00,,,0.00,VWS V14.01,2013-04-02 00:36:00,
2013-04-01 19:37:00,26.1,-0.4,30.03,WSW,248,16.1,16.1,31,0.00,,,0.00,VWS V14.01,2013-04-02 00:37:00,
2013-04-01 19:38:00,26.1,-0.4,30.03,South,180,4.7,5.4,31,0.00,,,0.00,VWS V14.01,2013-04-02 00:38:00,
2013-04-01 19:39:00,26.1,-0.4,30.03,South,180,4.7,5.4,31,0.00,,,0.00,VWS V14.01,2013-04-02 00:39:00,
2013-04-01 19:40:00,26.1,-0.4,30.03,South,180,4.7,4.7,31,0.00,,,0.00,VWS V14.01,2013-04-02 00:40:00,
2013-04-01 19:41:00,26.1,-0.4,30.03,South,180,4.7,4.7,31,0.00,,,0.00,VWS V14.01,2013-04-02 00:41:00,
2013-04-01 19:42:00,25.9,-0.6,30.03,WNW,292,4.0,4.0,31,0.00,,,0.00,VWS V14.01,2013-04-02 00:42:00,
2013-04-01 19:43:00,25.9,-0.6,30.03,West,270,6.7,6.7,31,0.00,,,0.00,VWS V14.01,2013-04-02 00:43:00,
2013-04-01 19:44:00,25.7,-0.7,30.03,West,270,6.7,6.7,31,0.00,,,0.00,VWS V14.01,2013-04-02 00:44:00,
2013-04-01 19:45:00,25.7,-0.7,30.03,West,270,6.7,6.7,31,0.00,,,0.00,VWS V14.01,2013-04-02 00:45:00,
2013-04-01 19:46:00,25.7,-0.7,30.03,NNE,22,0.0,2.2,31,0.00,,,0.00,VWS V14.01,2013-04-02 00:46:00,
2013-04-01 19:47:00,25.7,-0.7,30.03,NNE,22,0.0,2.2,31,0.00,,,0.00,VWS V14.01,2013-04-02 00:47:00,
2013-04-01 19:48:00,25.5,-0.9,30.03,WSW,248,11.4,11.4,31,0.00,,,0.00,VWS V14.01,2013-04-02 00:48:00,
2013-04-01 19:49:00,25.5,-0.2,30.03,WSW,248,2.7,4.0,32,0.00,,,0.00,VWS V14.01,2013-04-02 00:49:00,
2013-04-01 19:50:00,25.5,-0.9,30.03,WNW,292,0.0,4.0,31,0.00,,,0.00,VWS V14.01,2013-04-02 00:50:00,
2013-04-01 19:51:00,25.3,-1.1,30.03,NNW,338,6.0,6.0,31,0.00,,,0.00,VWS V14.01,2013-04-02 00:51:00,
2013-04-01 19:52:00,25.3,-0.4,30.03,SW,225,6.7,6.7,32,0.00,,,0.00,VWS V14.01,2013-04-02 00:52:00,
2013-04-01 19:53:00,25.3,-0.4,30.03,WSW,248,2.7,2.7,32,0.00,,,0.00,VWS V14.01,2013-04-02 00:53:00,
2013-04-01 19:54:00,25.3,-0.4,30.03,WSW,248,2.7,2.7,32,0.00,,,0.00,VWS V14.01,2013-04-02 00:54:00,
2013-04-01 19:55:00,25.3,-0.4,30.03,WNW,292,3.4,3.4,32,0.00,,,0.00,VWS V14.01,2013-04-02 00:55:00,
2013-04-01 19:56:00,25.3,-0.4,30.03,NNW,338,7.4,7.4,32,0.00,,,0.00,VWS V14.01,2013-04-02 00:56:00,
2013-04-01 19:57:00,25.3,-0.4,30.03,SSW,202,6.0,6.0,32,0.00,,,0.00,VWS V14.01,2013-04-02 00:57:00,
2013-04-01 19:58:00,25.3,-0.4,30.03,WNW,292,3.4,4.7,32,0.00,,,0.00,VWS V14.01,2013-04-02 00:58:00,
2013-04-01 19:59:00,25.3,-0.4,30.03,West,270,9.4,9.4,32,0.00,,,0.00,VWS V14.01,2013-04-02 00:59:00,
2013-04-01 20:01:00,25.3,-0.4,30.03,West,270,4.7,4.7,32,0.00,,,0.00,VWS V14.01,2013-04-02 01:01:00,
2013-04-01 20:02:00,25.2,-0.5,30.03,WNW,292,8.1,8.1,32,0.00,,,0.00,VWS V14.01,2013-04-02 01:02:00,
2013-04-01 20:03:00,25.2,-0.5,30.03,NW,315,3.4,3.4,32,0.00,,,0.00,VWS V14.01,2013-04-02 01:03:00,
2013-04-01 20:04:00,25.2,-0.5,30.03,WNW,292,0.0,2.7,32,0.00,,,0.00,VWS V14.01,2013-04-02 01:04:00,
2013-04-01 20:05:00,25.0,-0.7,30.03,SSE,158,3.4,3.4,32,0.00,,,0.00,VWS V14.01,2013-04-02 01:05:00,
2013-04-01 20:06:00,25.0,-0.7,30.03,WSW,248,0.0,1.1,32,0.00,,,0.00,VWS V14.01,2013-04-02 01:06:00,
2013-04-01 20:07:00,25.0,-0.7,30.03,NW,315,9.4,9.4,32,0.00,,,0.00,VWS V14.01,2013-04-02 01:07:00,
2013-04-01 20:08:00,25.0,-0.7,30.03,NW,315,9.4,9.4,32,0.00,,,0.00,VWS V14.01,2013-04-02 01:08:00,
2013-04-01 20:09:00,25.0,-0.7,30.03,East,90,2.7,3.1,32,0.00,,,0.00,VWS V14.01,2013-04-02 01:09:00,
2013-04-01 20:10:00,25.0,-0.7,30.03,WSW,248,4.0,4.0,32,0.00,,,0.00,VWS V14.01,2013-04-02 01:10:00,
2013-04-01 20:11:00,25.0,-0.7,30.06,South,180,3.4,3.4,32,0.00,,,0.00,VWS V14.01,2013-04-02 01:11:00,
2013-04-01 20:12:00,24.8,-0.2,30.06,WSW,248,7.4,7.4,33,0.00,,,0.00,VWS V14.01,2013-04-02 01:12:00,
2013-04-01 20:13:00,24.8,-0.2,30.06,SSW,202,4.7,4.7,33,0.00,,,0.00,VWS V14.01,2013-04-02 01:13:00,
2013-04-01 20:14:00,24.8,-0.2,30.06,WSW,248,8.1,8.1,33,0.00,,,0.00,VWS V14.01,2013-04-02 01:14:00,
2013-04-01 20:15:00,24.6,-0.4,30.06,SSW,202,0.0,2.7,33,0.00,,,0.00,VWS V14.01,2013-04-02 01:15:00,
2013-04-01 20:16:00,24.6,0.3,30.06,NNE,22,9.4,9.4,34,0.00,,,0.00,VWS V14.01,2013-04-02 01:16:00,
2013-04-01 20:17:00,24.6,0.3,30.06,South,180,6.0,6.0,34,0.00,,,0.00,VWS V14.01,2013-04-02 01:17:00,
2013-04-01 20:18:00,24.6,0.3,30.06,SE,135,7.4,7.4,34,0.00,,,0.00,VWS V14.01,2013-04-02 01:18:00,
2013-04-01 20:19:00,24.6,0.3,30.06,NW,315,4.7,4.7,34,0.00,,,0.00,VWS V14.01,2013-04-02 01:19:00,
2013-04-01 20:20:00,24.6,0.3,30.06,SSE,158,4.7,4.7,34,0.00,,,0.00,VWS V14.01,2013-04-02 01:20:00,
2013-04-01 20:21:00,24.4,0.1,30.06,SSE,158,4.7,4.7,34,0.00,,,0.00,VWS V14.01,2013-04-02 01:21:00,
2013-04-01 20:22:00,24.4,0.1,30.06,WNW,292,4.0,4.0,34,0.00,,,0.00,VWS V14.01,2013-04-02 01:22:00,
2013-04-01 20:23:00,24.4,0.1,30.06,SW,225,3.4,3.4,34,0.00,,,0.00,VWS V14.01,2013-04-02 01:23:00,
2013-04-01 20:24:00,24.4,0.1,30.06,SW,225,3.4,3.4,34,0.00,,,0.00,VWS V14.01,2013-04-02 01:24:00,
2013-04-01 20:25:00,24.4,0.7,30.06,SW,225,3.4,3.4,35,0.00,,,0.00,VWS V14.01,2013-04-02 01:25:00,
2013-04-01 20:26:00,24.4,0.7,30.06,SW,225,3.4,3.4,35,0.00,,,0.00,VWS V14.01,2013-04-02 01:26:00,
2013-04-01 20:27:00,24.4,0.7,30.06,SW,225,3.4,3.4,35,0.00,,,0.00,VWS V14.01,2013-04-02 01:27:00,
2013-04-01 20:28:00,24.4,0.7,30.06,SW,225,3.4,3.4,35,0.00,,,0.00,VWS V14.01,2013-04-02 01:28:00,
2013-04-01 20:29:00,24.4,0.7,30.06,SW,225,3.4,3.4,35,0.00,,,0.00,VWS V14.01,2013-04-02 01:29:00,
2013-04-01 20:30:00,24.4,0.7,30.06,SW,225,3.4,3.4,35,0.00,,,0.00,VWS V14.01,2013-04-02 01:30:00,
2013-04-01 20:31:00,24.3,0.6,30.06,SW,225,3.4,3.4,35,0.00,,,0.00,VWS V14.01,2013-04-02 01:31:00,
2013-04-01 20:32:00,24.3,0.6,30.06,SW,225,3.4,3.4,35,0.00,,,0.00,VWS V14.01,2013-04-02 01:32:00,
2013-04-01 20:33:00,24.3,0.6,30.06,SW,225,3.4,3.4,35,0.00,,,0.00,VWS V14.01,2013-04-02 01:33:00,
2013-04-01 20:34:00,24.3,1.2,30.06,SW,225,3.4,3.4,36,0.00,,,0.00,VWS V14.01,2013-04-02 01:34:00,
2013-04-01 20:35:00,24.3,1.2,30.06,WNW,292,9.4,9.4,36,0.00,,,0.00,VWS V14.01,2013-04-02 01:35:00,
2013-04-01 20:36:00,24.3,1.2,30.06,NNW,338,4.0,4.0,36,0.00,,,0.00,VWS V14.01,2013-04-02 01:36:00,
2013-04-01 20:37:00,24.3,1.2,30.06,NE,45,3.4,3.4,36,0.00,,,0.00,VWS V14.01,2013-04-02 01:37:00,
2013-04-01 20:38:00,24.3,1.2,30.06,NE,45,3.4,3.4,36,0.00,,,0.00,VWS V14.01,2013-04-02 01:38:00,
2013-04-01 20:39:00,24.3,1.2,30.06,NE,45,3.4,3.4,36,0.00,,,0.00,VWS V14.01,2013-04-02 01:39:00,
2013-04-01 20:40:00,24.3,1.2,30.06,WSW,248,4.7,4.7,36,0.00,,,0.00,VWS V14.01,2013-04-02 01:40:00,
2013-04-01 20:41:00,24.3,1.2,30.06,NNW,338,8.7,8.7,36,0.00,,,0.00,VWS V14.01,2013-04-02 01:41:00,
2013-04-01 20:42:00,24.3,1.2,30.06,NNW,338,8.7,8.7,36,0.00,,,0.00,VWS V14.01,2013-04-02 01:42:00,
2013-04-01 20:43:00,24.3,1.8,30.06,SSW,202,7.4,7.4,37,0.00,,,0.00,VWS V14.01,2013-04-02 01:43:00,
2013-04-01 20:44:00,24.3,1.8,30.06,SSW,202,7.4,7.4,37,0.00,,,0.00,VWS V14.01,2013-04-02 01:44:00,
2013-04-01 20:45:00,24.3,1.8,30.06,SSW,202,7.4,7.4,37,0.00,,,0.00,VWS V14.01,2013-04-02 01:45:00,
2013-04-01 20:46:00,24.3,1.8,30.06,SSW,202,7.4,7.4,37,0.00,,,0.00,VWS V14.01,2013-04-02 01:46:00,
2013-04-01 20:47:00,24.1,1.6,30.06,NNW,338,8.1,8.1,37,0.00,,,0.00,VWS V14.01,2013-04-02 01:47:00,
2013-04-01 20:48:00,24.1,1.6,30.06,West,270,8.7,8.7,37,0.00,,,0.00,VWS V14.01,2013-04-02 01:48:00,
2013-04-01 20:49:00,24.1,1.6,30.06,West,270,8.7,8.7,37,0.00,,,0.00,VWS V14.01,2013-04-02 01:49:00,
2013-04-01 20:50:00,24.1,1.6,30.06,NNE,22,8.1,8.1,37,0.00,,,0.00,VWS V14.01,2013-04-02 01:50:00,
2013-04-01 20:51:00,24.1,1.6,30.06,WNW,292,7.4,7.4,37,0.00,,,0.00,VWS V14.01,2013-04-02 01:51:00,
2013-04-01 20:52:00,24.1,1.6,30.06,WNW,292,8.1,8.1,37,0.00,,,0.00,VWS V14.01,2013-04-02 01:52:00,
2013-04-01 20:53:00,24.1,1.6,30.06,West,270,14.1,14.1,37,0.00,,,0.00,VWS V14.01,2013-04-02 01:53:00,
2013-04-01 20:54:00,24.1,1.6,30.06,West,270,14.1,14.1,37,0.00,,,0.00,VWS V14.01,2013-04-02 01:54:00,
2013-04-01 20:55:00,23.9,1.4,30.06,West,270,14.1,14.1,37,0.00,,,0.00,VWS V14.01,2013-04-02 01:55:00,
2013-04-01 20:56:00,23.9,1.4,30.06,West,270,8.1,8.1,37,0.00,,,0.00,VWS V14.01,2013-04-02 01:56:00,
2013-04-01 20:57:00,23.9,1.4,30.06,North,0,9.4,9.4,37,0.00,,,0.00,VWS V14.01,2013-04-02 01:57:00,
2013-04-01 20:58:00,23.9,1.4,30.06,North,0,9.4,9.4,37,0.00,,,0.00,VWS V14.01,2013-04-02 01:58:00,
2013-04-01 20:59:00,23.7,1.3,30.06,North,0,9.4,9.4,37,0.00,,,0.00,VWS V14.01,2013-04-02 01:59:00,
2013-04-01 21:00:00,23.7,1.8,30.06,WNW,292,10.7,10.7,38,0.00,,,0.00,VWS V14.01,2013-04-02 02:00:00,
2013-04-01 21:01:00,23.7,1.8,30.06,WNW,292,4.0,4.3,38,0.00,,,0.00,VWS V14.01,2013-04-02 02:01:00,
2013-04-01 21:02:00,23.7,1.8,30.06,West,270,6.7,6.7,38,0.00,,,0.00,VWS V14.01,2013-04-02 02:02:00,
2013-04-01 21:03:00,23.5,1.7,30.06,WNW,292,3.4,3.4,38,0.00,,,0.00,VWS V14.01,2013-04-02 02:03:00,
2013-04-01 21:04:00,23.5,1.7,30.06,NW,315,6.0,6.0,38,0.00,,,0.00,VWS V14.01,2013-04-02 02:04:00,
2013-04-01 21:05:00,23.5,1.7,30.06,NW,315,6.0,6.0,38,0.00,,,0.00,VWS V14.01,2013-04-02 02:05:00,
2013-04-01 21:06:00,23.5,1.7,30.06,NW,315,6.0,6.0,38,0.00,,,0.00,VWS V14.01,2013-04-02 02:06:00,
2013-04-01 21:07:00,23.5,1.7,30.06,NNW,338,10.7,10.7,38,0.00,,,0.00,VWS V14.01,2013-04-02 02:07:00,
2013-04-01 21:08:00,23.5,1.7,30.06,WSW,248,4.7,4.7,38,0.00,,,0.00,VWS V14.01,2013-04-02 02:08:00,
2013-04-01 21:09:00,23.5,2.2,30.06,WSW,248,4.7,4.7,39,0.00,,,0.00,VWS V14.01,2013-04-02 02:09:00,
2013-04-01 21:10:00,23.5,2.2,30.06,WSW,248,4.7,4.7,39,0.00,,,0.00,VWS V14.01,2013-04-02 02:10:00,
2013-04-01 21:11:00,23.5,2.2,30.06,WSW,248,4.7,4.7,39,0.00,,,0.00,VWS V14.01,2013-04-02 02:11:00,
2013-04-01 21:12:00,23.5,2.2,30.06,WNW,292,4.0,4.0,39,0.00,,,0.00,VWS V14.01,2013-04-02 02:12:00,
2013-04-01 21:13:00,23.5,2.2,30.06,WNW,292,4.0,4.0,39,0.00,,,0.00,VWS V14.01,2013-04-02 02:13:00,
2013-04-01 21:14:00,23.5,2.2,30.06,WSW,248,4.0,4.0,39,0.00,,,0.00,VWS V14.01,2013-04-02 02:14:00,
2013-04-01 21:15:00,23.4,2.1,30.06,WSW,248,4.0,4.0,39,0.00,,,0.00,VWS V14.01,2013-04-02 02:15:00,
2013-04-01 21:16:00,23.4,2.1,30.06,WSW,248,4.0,4.0,39,0.00,,,0.00,VWS V14.01,2013-04-02 02:16:00,
2013-04-01 21:17:00,23.4,2.1,30.06,WSW,248,4.0,4.0,39,0.00,,,0.00,VWS V14.01,2013-04-02 02:17:00,
2013-04-01 21:18:00,23.4,2.1,30.06,WSW,248,4.0,4.0,39,0.00,,,0.00,VWS V14.01,2013-04-02 02:18:00,
2013-04-01 21:19:00,23.4,2.1,30.06,SSW,202,4.0,4.0,39,0.00,,,0.00,VWS V14.01,2013-04-02 02:19:00,
2013-04-01 21:20:00,23.4,2.1,30.06,WNW,292,10.7,10.7,39,0.00,,,0.00,VWS V14.01,2013-04-02 02:20:00,
2013-04-01 21:21:00,23.2,1.9,30.06,SE,135,3.4,3.6,39,0.00,,,0.00,VWS V14.01,2013-04-02 02:21:00,
2013-04-01 21:22:00,23.2,1.9,30.06,SE,135,3.4,3.6,39,0.00,,,0.00,VWS V14.01,2013-04-02 02:22:00,
2013-04-01 21:23:00,23.2,1.9,30.06,SE,135,3.4,3.4,39,0.00,,,0.00,VWS V14.01,2013-04-02 02:23:00,
2013-04-01 21:24:00,23.0,1.8,30.06,WSW,248,3.4,3.4,39,0.00,,,0.00,VWS V14.01,2013-04-02 02:24:00,
2013-04-01 21:25:00,23.0,1.8,30.06,WSW,248,3.4,3.4,39,0.00,,,0.00,VWS V14.01,2013-04-02 02:25:00,
2013-04-01 21:26:00,23.0,2.3,30.06,WSW,248,7.4,7.4,40,0.00,,,0.00,VWS V14.01,2013-04-02 02:26:00,
2013-04-01 21:27:00,23.0,2.3,30.06,NNW,338,6.0,6.0,40,0.00,,,0.00,VWS V14.01,2013-04-02 02:27:00,
2013-04-01 21:28:00,23.0,2.3,30.06,NNW,338,6.0,6.0,40,0.00,,,0.00,VWS V14.01,2013-04-02 02:28:00,
2013-04-01 21:29:00,23.0,2.3,30.06,NNW,338,6.0,6.0,40,0.00,,,0.00,VWS V14.01,2013-04-02 02:29:00,
2013-04-01 21:30:00,23.0,2.3,30.06,NNW,338,6.0,6.0,40,0.00,,,0.00,VWS V14.01,2013-04-02 02:30:00,
2013-04-01 21:31:00,23.0,2.3,30.06,NNW,338,6.0,6.0,40,0.00,,,0.00,VWS V14.01,2013-04-02 02:31:00,
2013-04-01 21:32:00,23.0,2.3,30.06,NNW,338,6.0,6.0,40,0.00,,,0.00,VWS V14.01,2013-04-02 02:32:00,
2013-04-01 21:33:00,22.8,2.1,30.06,NNW,338,6.0,6.0,40,0.00,,,0.00,VWS V14.01,2013-04-02 02:33:00,
2013-04-01 21:34:00,22.8,2.1,30.06,NNW,338,6.0,6.0,40,0.00,,,0.00,VWS V14.01,2013-04-02 02:34:00,
2013-04-01 21:35:00,22.8,2.1,30.06,West,270,8.7,8.7,40,0.00,,,0.00,VWS V14.01,2013-04-02 02:35:00,
2013-04-01 21:36:00,22.8,2.7,30.06,West,270,8.7,8.7,41,0.00,,,0.00,VWS V14.01,2013-04-02 02:36:00,
2013-04-01 21:37:00,22.8,3.2,30.06,West,270,8.7,8.7,42,0.00,,,0.00,VWS V14.01,2013-04-02 02:37:00,
2013-04-01 21:38:00,22.8,3.2,30.06,North,0,4.0,4.0,42,0.00,,,0.00,VWS V14.01,2013-04-02 02:38:00,
2013-04-01 21:39:00,22.8,2.7,30.06,WSW,248,4.7,4.7,41,0.00,,,0.00,VWS V14.01,2013-04-02 02:39:00,
2013-04-01 21:40:00,22.8,2.7,30.06,WSW,248,2.7,2.7,41,0.00,,,0.00,VWS V14.01,2013-04-02 02:40:00,
2013-04-01 21:41:00,22.8,3.2,30.03,WSW,248,2.7,2.7,42,0.00,,,0.00,VWS V14.01,2013-04-02 02:41:00,
2013-04-01 21:42:00,22.8,2.7,30.03,WSW,248,2.7,2.7,41,0.00,,,0.00,VWS V14.01,2013-04-02 02:42:00,
2013-04-01 21:43:00,22.8,2.7,30.03,WSW,248,2.7,2.7,41,0.00,,,0.00,VWS V14.01,2013-04-02 02:43:00,
2013-04-01 21:44:00,22.6,2.5,30.03,WSW,248,2.7,2.7,41,0.00,,,0.00,VWS V14.01,2013-04-02 02:44:00,
2013-04-01 21:45:00,22.6,2.5,30.03,WSW,248,2.7,2.7,41,0.00,,,0.00,VWS V14.01,2013-04-02 02:45:00,
2013-04-01 21:46:00,22.6,2.5,30.03,WSW,248,2.7,2.7,41,0.00,,,0.00,VWS V14.01,2013-04-02 02:46:00,
2013-04-01 21:47:00,22.6,3.0,30.03,WSW,248,2.7,2.7,42,0.00,,,0.00,VWS V14.01,2013-04-02 02:47:00,
2013-04-01 21:48:00,22.6,3.0,30.03,WSW,248,2.7,2.7,42,0.00,,,0.00,VWS V14.01,2013-04-02 02:48:00,
2013-04-01 21:49:00,22.6,3.0,30.03,WSW,248,2.7,2.7,42,0.00,,,0.00,VWS V14.01,2013-04-02 02:49:00,
2013-04-01 21:50:00,22.6,3.0,30.03,WSW,248,2.7,2.7,42,0.00,,,0.00,VWS V14.01,2013-04-02 02:50:00,
2013-04-01 21:51:00,22.6,3.0,30.03,WSW,248,2.7,2.7,42,0.00,,,0.00,VWS V14.01,2013-04-02 02:51:00,
2013-04-01 21:52:00,22.6,3.0,30.03,WSW,248,2.7,2.7,42,0.00,,,0.00,VWS V14.01,2013-04-02 02:52:00,
2013-04-01 21:53:00,22.6,3.0,30.03,WSW,248,2.7,2.7,42,0.00,,,0.00,VWS V14.01,2013-04-02 02:53:00,
2013-04-01 21:54:00,22.5,2.8,30.03,WSW,248,6.7,6.7,42,0.00,,,0.00,VWS V14.01,2013-04-02 02:54:00,
2013-04-01 21:55:00,22.5,2.8,30.03,WSW,248,6.7,6.7,42,0.00,,,0.00,VWS V14.01,2013-04-02 02:55:00,
2013-04-01 21:56:00,22.5,2.8,30.03,WSW,248,6.7,6.7,42,0.00,,,0.00,VWS V14.01,2013-04-02 02:56:00,
2013-04-01 21:57:00,22.5,2.8,30.03,WSW,248,6.7,6.7,42,0.00,,,0.00,VWS V14.01,2013-04-02 02:57:00,
2013-04-01 21:58:00,22.5,2.8,30.03,WSW,248,6.7,6.7,42,0.00,,,0.00,VWS V14.01,2013-04-02 02:58:00,
2013-04-01 21:59:00,22.5,2.8,30.03,WSW,248,6.7,6.7,42,0.00,,,0.00,VWS V14.01,2013-04-02 02:59:00,
2013-04-01 22:00:00,22.5,2.8,30.03,WSW,248,6.7,6.7,42,0.00,,,0.00,VWS V14.01,2013-04-02 03:00:00,
2013-04-01 22:01:00,22.5,2.8,30.03,WSW,248,6.7,6.7,42,0.00,,,0.00,VWS V14.01,2013-04-02 03:01:00,
2013-04-01 22:02:00,22.3,2.7,30.03,WSW,248,6.7,6.7,42,0.00,,,0.00,VWS V14.01,2013-04-02 03:02:00,
2013-04-01 22:03:00,22.3,2.7,30.03,WSW,248,6.7,6.7,42,0.00,,,0.00,VWS V14.01,2013-04-02 03:03:00,
2013-04-01 22:04:00,22.3,2.7,30.03,WSW,248,6.7,6.7,42,0.00,,,0.00,VWS V14.01,2013-04-02 03:04:00,
2013-04-01 22:05:00,22.3,2.7,30.03,WSW,248,6.7,6.7,42,0.00,,,0.00,VWS V14.01,2013-04-02 03:05:00,
2013-04-01 22:06:00,22.3,2.7,30.03,WNW,292,6.7,6.7,42,0.00,,,0.00,VWS V14.01,2013-04-02 03:06:00,
2013-04-01 22:07:00,22.1,2.5,30.03,WNW,292,6.7,6.7,42,0.00,,,0.00,VWS V14.01,2013-04-02 03:07:00,
2013-04-01 22:08:00,22.1,2.5,30.03,WNW,292,6.7,6.7,42,0.00,,,0.00,VWS V14.01,2013-04-02 03:08:00,
2013-04-01 22:09:00,22.1,2.5,30.03,WNW,292,6.7,6.7,42,0.00,,,0.00,VWS V14.01,2013-04-02 03:09:00,
2013-04-01 22:10:00,22.1,2.5,30.03,WNW,292,6.7,6.7,42,0.00,,,0.00,VWS V14.01,2013-04-02 03:10:00,
2013-04-01 22:11:00,22.1,2.5,30.03,WNW,292,6.7,6.7,42,0.00,,,0.00,VWS V14.01,2013-04-02 03:11:00,
2013-04-01 22:12:00,22.1,2.5,30.03,WNW,292,6.7,6.7,42,0.00,,,0.00,VWS V14.01,2013-04-02 03:12:00,
2013-04-01 22:13:00,21.9,2.4,30.03,WNW,292,6.7,6.7,42,0.00,,,0.00,VWS V14.01,2013-04-02 03:13:00,
2013-04-01 22:14:00,21.9,2.4,30.03,WNW,292,6.7,6.7,42,0.00,,,0.00,VWS V14.01,2013-04-02 03:14:00,
2013-04-01 22:15:00,21.9,2.4,30.03,WNW,292,6.7,6.7,42,0.00,,,0.00,VWS V14.01,2013-04-02 03:15:00,
2013-04-01 22:16:00,21.9,2.4,30.03,WNW,292,6.7,6.7,42,0.00,,,0.00,VWS V14.01,2013-04-02 03:16:00,
2013-04-01 22:17:00,21.9,2.4,30.03,WNW,292,6.7,6.7,42,0.00,,,0.00,VWS V14.01,2013-04-02 03:17:00,
2013-04-01 22:18:00,21.7,2.2,30.03,WNW,292,6.7,6.7,42,0.00,,,0.00,VWS V14.01,2013-04-02 03:18:00,
2013-04-01 22:19:00,21.7,2.2,30.03,WNW,292,6.7,6.7,42,0.00,,,0.00,VWS V14.01,2013-04-02 03:19:00,
2013-04-01 22:20:00,21.7,2.2,30.03,WNW,292,6.7,6.7,42,0.00,,,0.00,VWS V14.01,2013-04-02 03:20:00,
2013-04-01 22:21:00,21.7,2.2,30.03,WNW,292,6.7,6.7,42,0.00,,,0.00,VWS V14.01,2013-04-02 03:21:00,
2013-04-01 22:22:00,21.6,2.0,30.03,WNW,292,6.7,6.7,42,0.00,,,0.00,VWS V14.01,2013-04-02 03:22:00,
2013-04-01 22:23:00,21.6,2.0,30.03,WNW,292,6.7,6.7,42,0.00,,,0.00,VWS V14.01,2013-04-02 03:23:00,
2013-04-01 22:24:00,21.6,2.0,30.03,WNW,292,6.7,6.7,42,0.00,,,0.00,VWS V14.01,2013-04-02 03:24:00,
2013-04-01 22:25:00,21.6,2.0,30.03,WNW,292,6.7,6.7,42,0.00,,,0.00,VWS V14.01,2013-04-02 03:25:00,
2013-04-01 22:26:00,21.6,2.0,30.03,WNW,292,6.7,6.7,42,0.00,,,0.00,VWS V14.01,2013-04-02 03:26:00,
2013-04-01 22:27:00,21.6,2.0,30.03,WNW,292,6.7,6.7,42,0.00,,,0.00,VWS V14.01,2013-04-02 03:27:00,
2013-04-01 22:28:00,21.6,2.5,30.03,WNW,292,6.7,6.7,43,0.00,,,0.00,VWS V14.01,2013-04-02 03:28:00,
2013-04-01 22:29:00,21.6,2.5,30.03,WNW,292,6.7,6.7,43,0.00,,,0.00,VWS V14.01,2013-04-02 03:29:00,
2013-04-01 22:30:00,21.6,2.5,30.03,WNW,292,6.7,6.7,43,0.00,,,0.00,VWS V14.01,2013-04-02 03:30:00,
2013-04-01 22:31:00,21.6,2.5,30.03,West,270,4.0,4.0,43,0.00,,,0.00,VWS V14.01,2013-04-02 03:31:00,
2013-04-01 22:32:00,21.6,2.5,30.03,West,270,4.0,4.0,43,0.00,,,0.00,VWS V14.01,2013-04-02 03:32:00,
2013-04-01 22:33:00,21.4,2.4,30.03,West,270,4.0,4.0,43,0.00,,,0.00,VWS V14.01,2013-04-02 03:33:00,
2013-04-01 22:34:00,21.4,2.4,30.03,WSW,248,0.0,1.3,43,0.00,,,0.00,VWS V14.01,2013-04-02 03:34:00,
2013-04-01 22:35:00,21.2,2.2,30.03,WSW,248,0.0,1.3,43,0.00,,,0.00,VWS V14.01,2013-04-02 03:35:00,
2013-04-01 22:36:00,21.2,2.2,30.03,WSW,248,0.0,0.0,43,0.00,,,0.00,VWS V14.01,2013-04-02 03:36:00,
2013-04-01 22:37:00,21.2,2.2,30.03,WSW,248,0.0,0.0,43,0.00,,,0.00,VWS V14.01,2013-04-02 03:37:00,
2013-04-01 22:38:00,21.2,2.2,30.03,WSW,248,0.0,0.0,43,0.00,,,0.00,VWS V14.01,2013-04-02 03:38:00,
2013-04-01 22:39:00,21.2,2.2,30.03,WSW,248,0.0,0.0,43,0.00,,,0.00,VWS V14.01,2013-04-02 03:39:00,
2013-04-01 22:40:00,21.0,2.0,30.03,WSW,248,0.0,0.0,43,0.00,,,0.00,VWS V14.01,2013-04-02 03:40:00,
2013-04-01 22:41:00,21.0,2.0,30.03,WSW,248,0.0,0.0,43,0.00,,,0.00,VWS V14.01,2013-04-02 03:41:00,
2013-04-01 22:42:00,21.0,2.0,30.03,WSW,248,0.0,0.0,43,0.00,,,0.00,VWS V14.01,2013-04-02 03:42:00,
2013-04-01 22:43:00,21.0,2.0,30.03,WSW,248,0.0,0.0,43,0.00,,,0.00,VWS V14.01,2013-04-02 03:43:00,
2013-04-01 22:44:00,21.0,2.0,30.03,WSW,248,0.0,0.0,43,0.00,,,0.00,VWS V14.01,2013-04-02 03:44:00,
2013-04-01 22:45:00,21.0,2.0,30.03,WSW,248,0.0,0.0,43,0.00,,,0.00,VWS V14.01,2013-04-02 03:45:00,
2013-04-01 22:46:00,20.8,1.9,30.03,WSW,248,0.0,0.0,43,0.00,,,0.00,VWS V14.01,2013-04-02 03:46:00,
2013-04-01 22:47:00,20.8,1.9,30.03,WSW,248,0.0,0.0,43,0.00,,,0.00,VWS V14.01,2013-04-02 03:47:00,
2013-04-01 22:48:00,20.8,1.9,30.03,WSW,248,0.0,0.0,43,0.00,,,0.00,VWS V14.01,2013-04-02 03:48:00,
2013-04-01 22:49:00,20.8,1.9,30.03,SSW,202,0.0,0.0,43,0.00,,,0.00,VWS V14.01,2013-04-02 03:49:00,
2013-04-01 22:50:00,20.8,1.9,30.03,SSW,202,0.0,0.0,43,0.00,,,0.00,VWS V14.01,2013-04-02 03:50:00,
2013-04-01 22:51:00,20.8,1.9,30.03,SSW,202,0.0,0.0,43,0.00,,,0.00,VWS V14.01,2013-04-02 03:51:00,
2013-04-01 22:52:00,20.7,1.7,30.03,SSW,202,0.0,0.0,43,0.00,,,0.00,VWS V14.01,2013-04-02 03:52:00,
2013-04-01 22:53:00,20.7,1.7,30.03,SSW,202,0.0,0.0,43,0.00,,,0.00,VWS V14.01,2013-04-02 03:53:00,
2013-04-01 22:54:00,20.7,2.2,30.03,SSW,202,0.0,0.0,44,0.00,,,0.00,VWS V14.01,2013-04-02 03:54:00,
2013-04-01 22:55:00,20.7,2.2,30.03,SSW,202,0.0,0.0,44,0.00,,,0.00,VWS V14.01,2013-04-02 03:55:00,
2013-04-01 22:56:00,20.7,2.2,30.06,SSW,202,0.0,0.0,44,0.00,,,0.00,VWS V14.01,2013-04-02 03:56:00,
2013-04-01 22:57:00,20.7,2.2,30.06,SSW,202,0.0,0.0,44,0.00,,,0.00,VWS V14.01,2013-04-02 03:57:00,
2013-04-01 22:58:00,20.7,2.2,30.06,SSW,202,0.0,0.0,44,0.00,,,0.00,VWS V14.01,2013-04-02 03:58:00,
2013-04-01 22:59:00,20.7,2.2,30.06,SSW,202,0.0,0.0,44,0.00,,,0.00,VWS V14.01,2013-04-02 03:59:00,
2013-04-01 23:00:00,20.7,2.2,30.06,SSW,202,0.0,0.0,44,0.00,,,0.00,VWS V14.01,2013-04-02 04:00:00,
2013-04-01 23:01:00,20.5,2.0,30.06,SSW,202,0.0,0.0,44,0.00,,,0.00,VWS V14.01,2013-04-02 04:01:00,
2013-04-01 23:02:00,20.5,2.0,30.06,SSW,202,0.0,0.0,44,0.00,,,0.00,VWS V14.01,2013-04-02 04:02:00,
2013-04-01 23:03:00,20.7,2.2,30.06,SSW,202,0.0,0.0,44,0.00,,,0.00,VWS V14.01,2013-04-02 04:03:00,
2013-04-01 23:04:00,20.7,2.2,30.06,SSW,202,0.0,0.0,44,0.00,,,0.00,VWS V14.01,2013-04-02 04:04:00,
2013-04-01 23:05:00,20.7,2.2,30.06,SSW,202,0.0,0.0,44,0.00,,,0.00,VWS V14.01,2013-04-02 04:05:00,
2013-04-01 23:06:00,20.7,2.2,30.06,SSW,202,0.0,0.0,44,0.00,,,0.00,VWS V14.01,2013-04-02 04:06:00,
2013-04-01 23:07:00,20.7,2.2,30.06,SSW,202,0.0,0.0,44,0.00,,,0.00,VWS V14.01,2013-04-02 04:07:00,
2013-04-01 23:08:00,20.7,2.2,30.06,SSW,202,0.0,0.0,44,0.00,,,0.00,VWS V14.01,2013-04-02 04:08:00,
2013-04-01 23:09:00,20.7,2.7,30.06,SSW,202,0.0,0.0,45,0.00,,,0.00,VWS V14.01,2013-04-02 04:09:00,
2013-04-01 23:10:00,20.7,2.2,30.06,SSW,202,0.0,0.0,44,0.00,,,0.00,VWS V14.01,2013-04-02 04:10:00,
2013-04-01 23:11:00,20.7,2.2,30.03,SSW,202,0.0,0.0,44,0.00,,,0.00,VWS V14.01,2013-04-02 04:11:00,
2013-04-01 23:12:00,20.7,2.2,30.03,SSW,202,0.0,0.0,44,0.00,,,0.00,VWS V14.01,2013-04-02 04:12:00,
2013-04-01 23:13:00,20.5,2.0,30.03,SSW,202,0.0,0.0,44,0.00,,,0.00,VWS V14.01,2013-04-02 04:13:00,
2013-04-01 23:14:00,20.7,2.2,30.03,SSW,202,0.0,0.0,44,0.00,,,0.00,VWS V14.01,2013-04-02 04:14:00,
2013-04-01 23:15:00,20.5,2.0,30.03,SSW,202,0.0,0.0,44,0.00,,,0.00,VWS V14.01,2013-04-02 04:15:00,
2013-04-01 23:16:00,20.5,2.0,30.03,SSW,202,0.0,0.0,44,0.00,,,0.00,VWS V14.01,2013-04-02 04:16:00,
2013-04-01 23:17:00,20.5,2.0,30.03,SSW,202,0.0,0.0,44,0.00,,,0.00,VWS V14.01,2013-04-02 04:17:00,
2013-04-01 23:18:00,20.5,2.0,30.03,SSW,202,0.0,0.0,44,0.00,,,0.00,VWS V14.01,2013-04-02 04:18:00,
2013-04-01 23:19:00,20.5,2.0,30.03,SSW,202,0.0,0.0,44,0.00,,,0.00,VWS V14.01,2013-04-02 04:19:00,
2013-04-01 23:20:00,20.5,2.0,30.03,SSW,202,0.0,0.0,44,0.00,,,0.00,VWS V14.01,2013-04-02 04:20:00,
2013-04-01 23:21:00,20.3,1.9,30.03,SSW,202,0.0,0.0,44,0.00,,,0.00,VWS V14.01,2013-04-02 04:21:00,
2013-04-01 23:22:00,20.3,1.9,30.03,SSW,202,0.0,0.0,44,0.00,,,0.00,VWS V14.01,2013-04-02 04:22:00,
2013-04-01 23:23:00,20.3,1.9,30.03,SSW,202,0.0,0.0,44,0.00,,,0.00,VWS V14.01,2013-04-02 04:23:00,
2013-04-01 23:24:00,20.3,1.9,30.03,SSW,202,0.0,0.0,44,0.00,,,0.00,VWS V14.01,2013-04-02 04:24:00,
2013-04-01 23:25:00,20.3,2.4,30.03,SSW,202,0.0,0.0,45,0.00,,,0.00,VWS V14.01,2013-04-02 04:25:00,
2013-04-01 23:26:00,20.3,2.4,30.06,SSW,202,0.0,0.0,45,0.00,,,0.00,VWS V14.01,2013-04-02 04:26:00,
2013-04-01 23:27:00,20.3,2.4,30.06,SSW,202,0.0,0.0,45,0.00,,,0.00,VWS V14.01,2013-04-02 04:27:00,
2013-04-01 23:28:00,20.3,2.4,30.06,SSW,202,0.0,0.0,45,0.00,,,0.00,VWS V14.01,2013-04-02 04:28:00,
2013-04-01 23:29:00,20.3,2.4,30.06,SSW,202,0.0,0.0,45,0.00,,,0.00,VWS V14.01,2013-04-02 04:29:00,
2013-04-01 23:30:00,20.3,2.4,30.06,SSW,202,0.0,0.0,45,0.00,,,0.00,VWS V14.01,2013-04-02 04:30:00,
2013-04-01 23:31:00,20.3,2.4,30.06,SSW,202,0.0,0.0,45,0.00,,,0.00,VWS V14.01,2013-04-02 04:31:00,
2013-04-01 23:32:00,20.3,2.4,30.06,SSW,202,0.0,0.0,45,0.00,,,0.00,VWS V14.01,2013-04-02 04:32:00,
2013-04-01 23:33:00,20.3,2.4,30.06,SSW,202,0.0,0.0,45,0.00,,,0.00,VWS V14.01,2013-04-02 04:33:00,
2013-04-01 23:34:00,20.3,2.4,30.06,SSW,202,0.0,0.0,45,0.00,,,0.00,VWS V14.01,2013-04-02 04:34:00,
2013-04-01 23:35:00,20.1,2.2,30.06,SSW,202,0.0,0.0,45,0.00,,,0.00,VWS V14.01,2013-04-02 04:35:00,
2013-04-01 23:36:00,20.1,2.2,30.06,SSW,202,0.0,0.0,45,0.00,,,0.00,VWS V14.01,2013-04-02 04:36:00,
2013-04-01 23:37:00,19.9,2.0,30.06,SSW,202,0.0,0.0,45,0.00,,,0.00,VWS V14.01,2013-04-02 04:37:00,
2013-04-01 23:38:00,19.9,2.0,30.06,SSW,202,0.0,0.0,45,0.00,,,0.00,VWS V14.01,2013-04-02 04:38:00,
2013-04-01 23:39:00,19.9,2.0,30.06,SSW,202,0.0,0.0,45,0.00,,,0.00,VWS V14.01,2013-04-02 04:39:00,
2013-04-01 23:40:00,19.8,1.9,30.06,SSW,202,0.0,0.0,45,0.00,,,0.00,VWS V14.01,2013-04-02 04:40:00,
2013-04-01 23:41:00,19.8,1.9,30.06,SSW,202,0.0,0.0,45,0.00,,,0.00,VWS V14.01,2013-04-02 04:41:00,
2013-04-01 23:42:00,19.9,2.0,30.06,SSW,202,0.0,0.0,45,0.00,,,0.00,VWS V14.01,2013-04-02 04:42:00,
2013-04-01 23:43:00,19.8,1.9,30.06,SSW,202,0.0,0.0,45,0.00,,,0.00,VWS V14.01,2013-04-02 04:43:00,
2013-04-01 23:44:00,19.8,1.9,30.06,SSW,202,0.0,0.0,45,0.00,,,0.00,VWS V14.01,2013-04-02 04:44:00,
2013-04-01 23:45:00,19.9,2.0,30.06,SSW,202,0.0,0.0,45,0.00,,,0.00,VWS V14.01,2013-04-02 04:45:00,
2013-04-01 23:46:00,19.9,2.0,30.06,SSW,202,0.0,0.0,45,0.00,,,0.00,VWS V14.01,2013-04-02 04:46:00,
2013-04-01 23:47:00,19.9,2.0,30.06,SSW,202,0.0,0.0,45,0.00,,,0.00,VWS V14.01,2013-04-02 04:47:00,
2013-04-01 23:48:00,19.9,2.0,30.06,SSW,202,0.0,0.0,45,0.00,,,0.00,VWS V14.01,2013-04-02 04:48:00,
2013-04-01 23:49:00,19.9,2.0,30.06,SSW,202,0.0,0.0,45,0.00,,,0.00,VWS V14.01,2013-04-02 04:49:00,
2013-04-01 23:50:00,19.9,2.0,30.06,SSW,202,0.0,0.0,45,0.00,,,0.00,VWS V14.01,2013-04-02 04:50:00,
2013-04-01 23:51:00,19.9,2.0,30.06,SSW,202,0.0,0.0,45,0.00,,,0.00,VWS V14.01,2013-04-02 04:51:00,
2013-04-01 23:52:00,19.9,2.5,30.06,SSW,202,0.0,0.0,46,0.00,,,0.00,VWS V14.01,2013-04-02 04:52:00,
2013-04-01 23:53:00,19.9,2.5,30.06,SSW,202,0.0,0.0,46,0.00,,,0.00,VWS V14.01,2013-04-02 04:53:00,
2013-04-01 23:54:00,19.9,2.5,30.06,NNW,338,2.7,2.7,46,0.00,,,0.00,VWS V14.01,2013-04-02 04:54:00,
2013-04-01 23:55:00,19.9,2.5,30.06,WNW,292,4.7,4.7,46,0.00,,,0.00,VWS V14.01,2013-04-02 04:55:00,
2013-04-01 23:56:00,19.9,2.5,30.06,NNW,338,4.0,4.0,46,0.00,,,0.00,VWS V14.01,2013-04-02 04:56:00,
2013-04-01 23:57:00,19.8,2.3,30.06,NNW,338,4.0,4.0,46,0.00,,,0.00,VWS V14.01,2013-04-02 04:57:00,
2013-04-01 23:58:00,19.8,1.9,30.06,NNW,338,4.0,4.0,45,0.00,,,0.00,VWS V14.01,2013-04-02 04:58:00,
2013-04-01 23:59:00,19.8,1.9,30.06,NNW,338,4.0,4.0,45,0.00,,,0.00,VWS V14.01,2013-04-02 04:59:00,